
<gpx xmlns="http://www.topografix.com/GPX/1/1" xmlns:gpxx="http://www.garmin.com/xmlschemas/GpxExtensions/v3" xmlns:xsi="http://www.w3.org/2001/XMLSchema-instance" version="1.1" creator="Adze - https://getadze.com/" xsi:schemaLocation="http://www.topografix.com/GPX/1/1 http://www.topografix.com/GPX/1/1/gpx.xsd http://www.garmin.com/xmlschemas/GpxExtensions/v3 http://www8.garmin.com/xmlschemas/GpxExtensionsv3.xsd">
    <metadata>
        <name>Untitled Document</name>
        <link href="http://www.garmin.com"></link>
        <time>2018-03-05T07:09:10.949Z</time>
    </metadata>
    <wpt lon="101.405813" lat="14.218043">
        <name>Khao Yai Grand View</name>
    </wpt>
    <trk>
        <name>May 2005 - Saturday</name>
        <extensions>
            <gpxx:TrackExtension>
                <gpxx:DisplayColor>Black</gpxx:DisplayColor>
            </gpxx:TrackExtension>
        </extensions>
        <trkseg>
            <trkpt lon="101.406686" lat="14.216901">
                <ele>82.330078</ele>
                <time>2005-09-23T22:32:38Z</time>
            </trkpt>
            <trkpt lon="101.406682" lat="14.216924">
                <ele>81.849365</ele>
                <time>2005-09-23T22:32:42Z</time>
            </trkpt>
            <trkpt lon="101.406674" lat="14.216905">
                <ele>78.004028</ele>
                <time>2005-09-23T22:32:45Z</time>
            </trkpt>
            <trkpt lon="101.406671" lat="14.216882">
                <ele>74.158813</ele>
                <time>2005-09-23T22:32:48Z</time>
            </trkpt>
            <trkpt lon="101.406668" lat="14.216879">
                <ele>70.794189</ele>
                <time>2005-09-23T22:32:51Z</time>
            </trkpt>
            <trkpt lon="101.406699" lat="14.216874">
                <ele>69.832886</ele>
                <time>2005-09-23T22:32:53Z</time>
            </trkpt>
            <trkpt lon="101.406709" lat="14.216870">
                <ele>66.468262</ele>
                <time>2005-09-23T22:32:55Z</time>
            </trkpt>
            <trkpt lon="101.406709" lat="14.216869">
                <ele>62.622925</ele>
                <time>2005-09-23T22:32:58Z</time>
            </trkpt>
            <trkpt lon="101.406707" lat="14.216870">
                <ele>60.700317</ele>
                <time>2005-09-23T22:33:01Z</time>
            </trkpt>
            <trkpt lon="101.406671" lat="14.216868">
                <ele>57.335815</ele>
                <time>2005-09-23T22:33:06Z</time>
            </trkpt>
            <trkpt lon="101.406652" lat="14.216850">
                <ele>55.413086</ele>
                <time>2005-09-23T22:33:09Z</time>
            </trkpt>
            <trkpt lon="101.406661" lat="14.216814">
                <ele>53.490479</ele>
                <time>2005-09-23T22:33:12Z</time>
            </trkpt>
            <trkpt lon="101.406738" lat="14.216802">
                <ele>50.125977</ele>
                <time>2005-09-23T22:33:17Z</time>
            </trkpt>
            <trkpt lon="101.406762" lat="14.216806">
                <ele>49.164551</ele>
                <time>2005-09-23T22:33:18Z</time>
            </trkpt>
            <trkpt lon="101.406815" lat="14.216812">
                <ele>48.203369</ele>
                <time>2005-09-23T22:33:20Z</time>
            </trkpt>
            <trkpt lon="101.406967" lat="14.216845">
                <ele>44.838623</ele>
                <time>2005-09-23T22:33:26Z</time>
            </trkpt>
            <trkpt lon="101.407210" lat="14.216953">
                <ele>41.954712</ele>
                <time>2005-09-23T22:33:35Z</time>
            </trkpt>
            <trkpt lon="101.407488" lat="14.217162">
                <ele>39.551270</ele>
                <time>2005-09-23T22:33:46Z</time>
            </trkpt>
            <trkpt lon="101.407667" lat="14.217412">
                <ele>39.070679</ele>
                <time>2005-09-23T22:33:55Z</time>
            </trkpt>
            <trkpt lon="101.407772" lat="14.217723">
                <ele>38.109375</ele>
                <time>2005-09-23T22:34:05Z</time>
            </trkpt>
            <trkpt lon="101.407763" lat="14.217997">
                <ele>39.070679</ele>
                <time>2005-09-23T22:34:14Z</time>
            </trkpt>
            <trkpt lon="101.407759" lat="14.218025">
                <ele>39.070679</ele>
                <time>2005-09-23T22:34:20Z</time>
            </trkpt>
            <trkpt lon="101.407739" lat="14.218123">
                <ele>38.590088</ele>
                <time>2005-09-23T22:34:32Z</time>
            </trkpt>
            <trkpt lon="101.407733" lat="14.218138">
                <ele>38.590088</ele>
                <time>2005-09-23T22:34:33Z</time>
            </trkpt>
            <trkpt lon="101.407694" lat="14.218196">
                <ele>38.590088</ele>
                <time>2005-09-23T22:34:37Z</time>
            </trkpt>
            <trkpt lon="101.407584" lat="14.218332">
                <ele>38.590088</ele>
                <time>2005-09-23T22:34:47Z</time>
            </trkpt>
            <trkpt lon="101.407543" lat="14.218425">
                <ele>38.590088</ele>
                <time>2005-09-23T22:34:56Z</time>
            </trkpt>
            <trkpt lon="101.407540" lat="14.218409">
                <ele>38.590088</ele>
                <time>2005-09-23T22:35:12Z</time>
            </trkpt>
            <trkpt lon="101.407537" lat="14.218405">
                <ele>29.457520</ele>
                <time>2005-09-23T22:35:25Z</time>
            </trkpt>
            <trkpt lon="101.407537" lat="14.218405">
                <ele>29.457520</ele>
                <time>2005-09-23T22:35:26Z</time>
            </trkpt>
            <trkpt lon="101.407536" lat="14.218404">
                <ele>30.418823</ele>
                <time>2005-09-23T22:35:29Z</time>
            </trkpt>
            <trkpt lon="101.407364" lat="14.218508">
                <ele>31.860718</ele>
                <time>2005-09-23T22:35:38Z</time>
            </trkpt>
            <trkpt lon="101.407077" lat="14.218718">
                <ele>33.302856</ele>
                <time>2005-09-23T22:35:48Z</time>
            </trkpt>
            <trkpt lon="101.406838" lat="14.218803">
                <ele>34.744873</ele>
                <time>2005-09-23T22:35:56Z</time>
            </trkpt>
            <trkpt lon="101.406625" lat="14.218868">
                <ele>34.744873</ele>
                <time>2005-09-23T22:36:05Z</time>
            </trkpt>
            <trkpt lon="101.406300" lat="14.218949">
                <ele>35.225464</ele>
                <time>2005-09-23T22:36:16Z</time>
            </trkpt>
            <trkpt lon="101.406198" lat="14.219058">
                <ele>34.264160</ele>
                <time>2005-09-23T22:36:24Z</time>
            </trkpt>
            <trkpt lon="101.406200" lat="14.219081">
                <ele>34.264160</ele>
                <time>2005-09-23T22:36:25Z</time>
            </trkpt>
            <trkpt lon="101.406402" lat="14.219442">
                <ele>34.744873</ele>
                <time>2005-09-23T22:36:35Z</time>
            </trkpt>
            <trkpt lon="101.406664" lat="14.219937">
                <ele>35.225464</ele>
                <time>2005-09-23T22:36:48Z</time>
            </trkpt>
            <trkpt lon="101.406851" lat="14.220295">
                <ele>35.706055</ele>
                <time>2005-09-23T22:36:58Z</time>
            </trkpt>
            <trkpt lon="101.407104" lat="14.220529">
                <ele>35.706055</ele>
                <time>2005-09-23T22:37:06Z</time>
            </trkpt>
            <trkpt lon="101.407254" lat="14.220639">
                <ele>36.667480</ele>
                <time>2005-09-23T22:37:12Z</time>
            </trkpt>
            <trkpt lon="101.407428" lat="14.220790">
                <ele>35.225464</ele>
                <time>2005-09-23T22:37:19Z</time>
            </trkpt>
            <trkpt lon="101.407654" lat="14.220855">
                <ele>35.706055</ele>
                <time>2005-09-23T22:37:25Z</time>
            </trkpt>
            <trkpt lon="101.407896" lat="14.220756">
                <ele>36.667480</ele>
                <time>2005-09-23T22:37:33Z</time>
            </trkpt>
            <trkpt lon="101.408043" lat="14.220666">
                <ele>37.148071</ele>
                <time>2005-09-23T22:37:40Z</time>
            </trkpt>
            <trkpt lon="101.408160" lat="14.220578">
                <ele>37.148071</ele>
                <time>2005-09-23T22:37:46Z</time>
            </trkpt>
            <trkpt lon="101.408345" lat="14.220370">
                <ele>37.148071</ele>
                <time>2005-09-23T22:37:56Z</time>
            </trkpt>
            <trkpt lon="101.408402" lat="14.220131">
                <ele>37.148071</ele>
                <time>2005-09-23T22:38:06Z</time>
            </trkpt>
            <trkpt lon="101.408554" lat="14.220013">
                <ele>37.148071</ele>
                <time>2005-09-23T22:38:13Z</time>
            </trkpt>
            <trkpt lon="101.408880" lat="14.219931">
                <ele>38.109375</ele>
                <time>2005-09-23T22:38:25Z</time>
            </trkpt>
            <trkpt lon="101.409099" lat="14.219900">
                <ele>38.109375</ele>
                <time>2005-09-23T22:38:35Z</time>
            </trkpt>
            <trkpt lon="101.409354" lat="14.219922">
                <ele>38.590088</ele>
                <time>2005-09-23T22:38:45Z</time>
            </trkpt>
            <trkpt lon="101.409596" lat="14.220090">
                <ele>39.070679</ele>
                <time>2005-09-23T22:38:54Z</time>
            </trkpt>
            <trkpt lon="101.409724" lat="14.220222">
                <ele>39.551270</ele>
                <time>2005-09-23T22:39:02Z</time>
            </trkpt>
            <trkpt lon="101.409752" lat="14.220241">
                <ele>39.070679</ele>
                <time>2005-09-23T22:39:10Z</time>
            </trkpt>
            <trkpt lon="101.409771" lat="14.220255">
                <ele>39.551270</ele>
                <time>2005-09-23T22:39:20Z</time>
            </trkpt>
            <trkpt lon="101.409845" lat="14.220298">
                <ele>40.032104</ele>
                <time>2005-09-23T22:39:28Z</time>
            </trkpt>
            <trkpt lon="101.409993" lat="14.220339">
                <ele>40.032104</ele>
                <time>2005-09-23T22:39:38Z</time>
            </trkpt>
            <trkpt lon="101.410288" lat="14.220412">
                <ele>39.551270</ele>
                <time>2005-09-23T22:39:51Z</time>
            </trkpt>
            <trkpt lon="101.410355" lat="14.220438">
                <ele>39.551270</ele>
                <time>2005-09-23T22:39:54Z</time>
            </trkpt>
            <trkpt lon="101.410370" lat="14.220451">
                <ele>40.032104</ele>
                <time>2005-09-23T22:40:02Z</time>
            </trkpt>
            <trkpt lon="101.410414" lat="14.220512">
                <ele>39.070679</ele>
                <time>2005-09-23T22:40:13Z</time>
            </trkpt>
            <trkpt lon="101.410492" lat="14.220620">
                <ele>40.032104</ele>
                <time>2005-09-23T22:40:21Z</time>
            </trkpt>
            <trkpt lon="101.410508" lat="14.220624">
                <ele>39.070679</ele>
                <time>2005-09-23T22:40:34Z</time>
            </trkpt>
            <trkpt lon="101.410565" lat="14.220626">
                <ele>40.032104</ele>
                <time>2005-09-23T22:42:02Z</time>
            </trkpt>
            <trkpt lon="101.410686" lat="14.220710">
                <ele>40.512817</ele>
                <time>2005-09-23T22:42:12Z</time>
            </trkpt>
            <trkpt lon="101.410861" lat="14.220760">
                <ele>40.512817</ele>
                <time>2005-09-23T22:42:25Z</time>
            </trkpt>
            <trkpt lon="101.411024" lat="14.220717">
                <ele>40.512817</ele>
                <time>2005-09-23T22:42:36Z</time>
            </trkpt>
            <trkpt lon="101.411122" lat="14.220605">
                <ele>40.993408</ele>
                <time>2005-09-23T22:42:44Z</time>
            </trkpt>
            <trkpt lon="101.411170" lat="14.220541">
                <ele>40.993408</ele>
                <time>2005-09-23T22:42:49Z</time>
            </trkpt>
            <trkpt lon="101.411259" lat="14.220422">
                <ele>40.993408</ele>
                <time>2005-09-23T22:42:59Z</time>
            </trkpt>
            <trkpt lon="101.411379" lat="14.220241">
                <ele>41.473999</ele>
                <time>2005-09-23T22:43:10Z</time>
            </trkpt>
            <trkpt lon="101.411548" lat="14.220059">
                <ele>41.954712</ele>
                <time>2005-09-23T22:43:21Z</time>
            </trkpt>
            <trkpt lon="101.411651" lat="14.219970">
                <ele>42.916016</ele>
                <time>2005-09-23T22:43:29Z</time>
            </trkpt>
            <trkpt lon="101.411682" lat="14.219946">
                <ele>41.954712</ele>
                <time>2005-09-23T22:43:38Z</time>
            </trkpt>
            <trkpt lon="101.411790" lat="14.219844">
                <ele>42.435425</ele>
                <time>2005-09-23T22:43:47Z</time>
            </trkpt>
            <trkpt lon="101.411895" lat="14.219706">
                <ele>42.916016</ele>
                <time>2005-09-23T22:43:58Z</time>
            </trkpt>
            <trkpt lon="101.411943" lat="14.219589">
                <ele>43.396606</ele>
                <time>2005-09-23T22:44:08Z</time>
            </trkpt>
            <trkpt lon="101.412032" lat="14.219432">
                <ele>42.916016</ele>
                <time>2005-09-23T22:44:16Z</time>
            </trkpt>
            <trkpt lon="101.412143" lat="14.219305">
                <ele>42.916016</ele>
                <time>2005-09-23T22:44:24Z</time>
            </trkpt>
            <trkpt lon="101.412278" lat="14.219175">
                <ele>42.916016</ele>
                <time>2005-09-23T22:44:34Z</time>
            </trkpt>
            <trkpt lon="101.412419" lat="14.219073">
                <ele>43.396606</ele>
                <time>2005-09-23T22:44:43Z</time>
            </trkpt>
            <trkpt lon="101.412566" lat="14.218961">
                <ele>42.916016</ele>
                <time>2005-09-23T22:44:54Z</time>
            </trkpt>
            <trkpt lon="101.412672" lat="14.218871">
                <ele>42.916016</ele>
                <time>2005-09-23T22:45:02Z</time>
            </trkpt>
            <trkpt lon="101.412715" lat="14.218826">
                <ele>35.706055</ele>
                <time>2005-09-23T22:45:05Z</time>
            </trkpt>
            <trkpt lon="101.412730" lat="14.218812">
                <ele>44.838623</ele>
                <time>2005-09-23T22:45:06Z</time>
            </trkpt>
            <trkpt lon="101.412787" lat="14.218764">
                <ele>42.916016</ele>
                <time>2005-09-23T22:45:14Z</time>
            </trkpt>
            <trkpt lon="101.412787" lat="14.218749">
                <ele>43.396606</ele>
                <time>2005-09-23T22:45:26Z</time>
            </trkpt>
            <trkpt lon="101.412784" lat="14.218630">
                <ele>43.877319</ele>
                <time>2005-09-23T22:45:38Z</time>
            </trkpt>
            <trkpt lon="101.412764" lat="14.218535">
                <ele>44.358032</ele>
                <time>2005-09-23T22:45:47Z</time>
            </trkpt>
            <trkpt lon="101.412737" lat="14.218425">
                <ele>43.396606</ele>
                <time>2005-09-23T22:45:58Z</time>
            </trkpt>
            <trkpt lon="101.412757" lat="14.218364">
                <ele>43.396606</ele>
                <time>2005-09-23T22:46:07Z</time>
            </trkpt>
            <trkpt lon="101.412788" lat="14.218286">
                <ele>42.916016</ele>
                <time>2005-09-23T22:46:17Z</time>
            </trkpt>
            <trkpt lon="101.412821" lat="14.218212">
                <ele>42.916016</ele>
                <time>2005-09-23T22:46:28Z</time>
            </trkpt>
            <trkpt lon="101.412802" lat="14.218163">
                <ele>42.435425</ele>
                <time>2005-09-23T22:46:37Z</time>
            </trkpt>
            <trkpt lon="101.412800" lat="14.218111">
                <ele>42.435425</ele>
                <time>2005-09-23T22:46:47Z</time>
            </trkpt>
            <trkpt lon="101.412803" lat="14.218060">
                <ele>41.473999</ele>
                <time>2005-09-23T22:47:04Z</time>
            </trkpt>
            <trkpt lon="101.412805" lat="14.218008">
                <ele>40.993408</ele>
                <time>2005-09-23T22:47:12Z</time>
            </trkpt>
            <trkpt lon="101.412805" lat="14.217926">
                <ele>40.993408</ele>
                <time>2005-09-23T22:47:22Z</time>
            </trkpt>
            <trkpt lon="101.412800" lat="14.217885">
                <ele>41.473999</ele>
                <time>2005-09-23T22:47:31Z</time>
            </trkpt>
            <trkpt lon="101.412794" lat="14.217852">
                <ele>40.993408</ele>
                <time>2005-09-23T22:47:37Z</time>
            </trkpt>
            <trkpt lon="101.412769" lat="14.217805">
                <ele>40.993408</ele>
                <time>2005-09-23T22:47:47Z</time>
            </trkpt>
            <trkpt lon="101.412763" lat="14.217768">
                <ele>40.993408</ele>
                <time>2005-09-23T22:47:56Z</time>
            </trkpt>
            <trkpt lon="101.412761" lat="14.217750">
                <ele>40.512817</ele>
                <time>2005-09-23T22:48:04Z</time>
            </trkpt>
            <trkpt lon="101.412759" lat="14.217724">
                <ele>40.993408</ele>
                <time>2005-09-23T22:48:11Z</time>
            </trkpt>
            <trkpt lon="101.412784" lat="14.217690">
                <ele>40.512817</ele>
                <time>2005-09-23T22:48:23Z</time>
            </trkpt>
            <trkpt lon="101.412800" lat="14.217679">
                <ele>41.473999</ele>
                <time>2005-09-23T22:48:32Z</time>
            </trkpt>
            <trkpt lon="101.412819" lat="14.217659">
                <ele>40.993408</ele>
                <time>2005-09-23T22:48:43Z</time>
            </trkpt>
            <trkpt lon="101.412828" lat="14.217621">
                <ele>40.993408</ele>
                <time>2005-09-23T22:48:51Z</time>
            </trkpt>
            <trkpt lon="101.412833" lat="14.217581">
                <ele>40.993408</ele>
                <time>2005-09-23T22:49:01Z</time>
            </trkpt>
            <trkpt lon="101.412848" lat="14.217555">
                <ele>37.148071</ele>
                <time>2005-09-23T22:49:08Z</time>
            </trkpt>
            <trkpt lon="101.412848" lat="14.217554">
                <ele>47.241821</ele>
                <time>2005-09-23T22:49:09Z</time>
            </trkpt>
            <trkpt lon="101.412844" lat="14.217543">
                <ele>41.473999</ele>
                <time>2005-09-23T22:49:10Z</time>
            </trkpt>
            <trkpt lon="101.412833" lat="14.217504">
                <ele>41.473999</ele>
                <time>2005-09-23T22:49:15Z</time>
            </trkpt>
            <trkpt lon="101.412819" lat="14.217429">
                <ele>41.473999</ele>
                <time>2005-09-23T22:49:25Z</time>
            </trkpt>
            <trkpt lon="101.412804" lat="14.217388">
                <ele>41.473999</ele>
                <time>2005-09-23T22:49:30Z</time>
            </trkpt>
            <trkpt lon="101.412813" lat="14.217269">
                <ele>40.993408</ele>
                <time>2005-09-23T22:49:41Z</time>
            </trkpt>
            <trkpt lon="101.412812" lat="14.217174">
                <ele>41.473999</ele>
                <time>2005-09-23T22:49:51Z</time>
            </trkpt>
            <trkpt lon="101.412795" lat="14.217126">
                <ele>41.473999</ele>
                <time>2005-09-23T22:49:59Z</time>
            </trkpt>
            <trkpt lon="101.412782" lat="14.217096">
                <ele>31.380127</ele>
                <time>2005-09-23T22:50:02Z</time>
            </trkpt>
            <trkpt lon="101.412780" lat="14.217086">
                <ele>48.683960</ele>
                <time>2005-09-23T22:50:03Z</time>
            </trkpt>
            <trkpt lon="101.412776" lat="14.217078">
                <ele>42.916016</ele>
                <time>2005-09-23T22:50:04Z</time>
            </trkpt>
            <trkpt lon="101.412775" lat="14.217059">
                <ele>41.473999</ele>
                <time>2005-09-23T22:50:06Z</time>
            </trkpt>
            <trkpt lon="101.412768" lat="14.217032">
                <ele>40.993408</ele>
                <time>2005-09-23T22:50:14Z</time>
            </trkpt>
            <trkpt lon="101.412767" lat="14.217033">
                <ele>36.667480</ele>
                <time>2005-09-23T22:50:15Z</time>
            </trkpt>
            <trkpt lon="101.412767" lat="14.217034">
                <ele>43.396606</ele>
                <time>2005-09-23T22:50:16Z</time>
            </trkpt>
            <trkpt lon="101.412773" lat="14.216995">
                <ele>41.473999</ele>
                <time>2005-09-23T22:50:20Z</time>
            </trkpt>
            <trkpt lon="101.412772" lat="14.216945">
                <ele>40.993408</ele>
                <time>2005-09-23T22:50:29Z</time>
            </trkpt>
            <trkpt lon="101.412769" lat="14.216898">
                <ele>41.473999</ele>
                <time>2005-09-23T22:50:39Z</time>
            </trkpt>
            <trkpt lon="101.412764" lat="14.216859">
                <ele>41.954712</ele>
                <time>2005-09-23T22:50:48Z</time>
            </trkpt>
            <trkpt lon="101.412765" lat="14.216806">
                <ele>41.954712</ele>
                <time>2005-09-23T22:50:53Z</time>
            </trkpt>
            <trkpt lon="101.412756" lat="14.216720">
                <ele>40.993408</ele>
                <time>2005-09-23T22:51:02Z</time>
            </trkpt>
            <trkpt lon="101.412773" lat="14.216677">
                <ele>42.435425</ele>
                <time>2005-09-23T22:51:16Z</time>
            </trkpt>
            <trkpt lon="101.412765" lat="14.216636">
                <ele>42.916016</ele>
                <time>2005-09-23T22:51:27Z</time>
            </trkpt>
            <trkpt lon="101.412722" lat="14.216591">
                <ele>42.916016</ele>
                <time>2005-09-23T22:51:36Z</time>
            </trkpt>
            <trkpt lon="101.412704" lat="14.216539">
                <ele>39.070679</ele>
                <time>2005-09-23T22:51:42Z</time>
            </trkpt>
            <trkpt lon="101.412703" lat="14.216531">
                <ele>41.954712</ele>
                <time>2005-09-23T22:51:43Z</time>
            </trkpt>
            <trkpt lon="101.412682" lat="14.216496">
                <ele>41.473999</ele>
                <time>2005-09-23T22:51:50Z</time>
            </trkpt>
            <trkpt lon="101.412638" lat="14.216440">
                <ele>40.993408</ele>
                <time>2005-09-23T22:52:00Z</time>
            </trkpt>
            <trkpt lon="101.412590" lat="14.216385">
                <ele>40.993408</ele>
                <time>2005-09-23T22:52:09Z</time>
            </trkpt>
            <trkpt lon="101.412542" lat="14.216328">
                <ele>40.032104</ele>
                <time>2005-09-23T22:52:19Z</time>
            </trkpt>
            <trkpt lon="101.412556" lat="14.216283">
                <ele>38.590088</ele>
                <time>2005-09-23T22:52:27Z</time>
            </trkpt>
            <trkpt lon="101.412535" lat="14.216221">
                <ele>37.628662</ele>
                <time>2005-09-23T22:52:35Z</time>
            </trkpt>
            <trkpt lon="101.412506" lat="14.216194">
                <ele>37.148071</ele>
                <time>2005-09-23T22:52:43Z</time>
            </trkpt>
            <trkpt lon="101.412448" lat="14.216167">
                <ele>38.590088</ele>
                <time>2005-09-23T22:52:57Z</time>
            </trkpt>
            <trkpt lon="101.412446" lat="14.216150">
                <ele>39.070679</ele>
                <time>2005-09-23T22:53:09Z</time>
            </trkpt>
            <trkpt lon="101.412423" lat="14.216132">
                <ele>38.590088</ele>
                <time>2005-09-23T22:53:14Z</time>
            </trkpt>
            <trkpt lon="101.412357" lat="14.216143">
                <ele>37.628662</ele>
                <time>2005-09-23T22:53:24Z</time>
            </trkpt>
            <trkpt lon="101.412334" lat="14.216140">
                <ele>38.109375</ele>
                <time>2005-09-23T22:54:35Z</time>
            </trkpt>
            <trkpt lon="101.412298" lat="14.216115">
                <ele>37.148071</ele>
                <time>2005-09-23T22:54:54Z</time>
            </trkpt>
            <trkpt lon="101.412206" lat="14.216100">
                <ele>37.148071</ele>
                <time>2005-09-23T22:55:05Z</time>
            </trkpt>
            <trkpt lon="101.412105" lat="14.216089">
                <ele>38.109375</ele>
                <time>2005-09-23T22:55:15Z</time>
            </trkpt>
            <trkpt lon="101.412016" lat="14.216047">
                <ele>38.590088</ele>
                <time>2005-09-23T22:55:24Z</time>
            </trkpt>
            <trkpt lon="101.411897" lat="14.215991">
                <ele>39.070679</ele>
                <time>2005-09-23T22:55:35Z</time>
            </trkpt>
            <trkpt lon="101.411828" lat="14.215940">
                <ele>39.551270</ele>
                <time>2005-09-23T22:55:46Z</time>
            </trkpt>
            <trkpt lon="101.411839" lat="14.215935">
                <ele>40.032104</ele>
                <time>2005-09-23T22:55:56Z</time>
            </trkpt>
            <trkpt lon="101.411795" lat="14.215935">
                <ele>39.551270</ele>
                <time>2005-09-23T22:56:08Z</time>
            </trkpt>
            <trkpt lon="101.411668" lat="14.215940">
                <ele>39.070679</ele>
                <time>2005-09-23T22:56:19Z</time>
            </trkpt>
            <trkpt lon="101.411524" lat="14.215930">
                <ele>38.109375</ele>
                <time>2005-09-23T22:56:28Z</time>
            </trkpt>
            <trkpt lon="101.411469" lat="14.215918">
                <ele>39.070679</ele>
                <time>2005-09-23T22:56:35Z</time>
            </trkpt>
            <trkpt lon="101.411473" lat="14.215924">
                <ele>36.667480</ele>
                <time>2005-09-23T22:56:48Z</time>
            </trkpt>
            <trkpt lon="101.411454" lat="14.215971">
                <ele>38.590088</ele>
                <time>2005-09-23T22:59:59Z</time>
            </trkpt>
            <trkpt lon="101.411591" lat="14.215978">
                <ele>39.551270</ele>
                <time>2005-09-23T23:00:08Z</time>
            </trkpt>
            <trkpt lon="101.411840" lat="14.215936">
                <ele>39.070679</ele>
                <time>2005-09-23T23:00:18Z</time>
            </trkpt>
            <trkpt lon="101.411930" lat="14.215906">
                <ele>39.070679</ele>
                <time>2005-09-23T23:00:22Z</time>
            </trkpt>
            <trkpt lon="101.411897" lat="14.215795">
                <ele>39.070679</ele>
                <time>2005-09-23T23:00:28Z</time>
            </trkpt>
            <trkpt lon="101.411847" lat="14.215739">
                <ele>39.070679</ele>
                <time>2005-09-23T23:00:34Z</time>
            </trkpt>
            <trkpt lon="101.411813" lat="14.215712">
                <ele>39.551270</ele>
                <time>2005-09-23T23:00:44Z</time>
            </trkpt>
            <trkpt lon="101.411773" lat="14.215644">
                <ele>39.551270</ele>
                <time>2005-09-23T23:00:52Z</time>
            </trkpt>
            <trkpt lon="101.411757" lat="14.215608">
                <ele>39.070679</ele>
                <time>2005-09-23T23:00:59Z</time>
            </trkpt>
            <trkpt lon="101.411722" lat="14.215535">
                <ele>35.706055</ele>
                <time>2005-09-23T23:01:07Z</time>
            </trkpt>
            <trkpt lon="101.411722" lat="14.215535">
                <ele>39.551270</ele>
                <time>2005-09-23T23:01:08Z</time>
            </trkpt>
            <trkpt lon="101.411716" lat="14.215492">
                <ele>39.070679</ele>
                <time>2005-09-23T23:01:15Z</time>
            </trkpt>
            <trkpt lon="101.411713" lat="14.215459">
                <ele>38.109375</ele>
                <time>2005-09-23T23:01:23Z</time>
            </trkpt>
            <trkpt lon="101.411680" lat="14.215411">
                <ele>38.590088</ele>
                <time>2005-09-23T23:01:32Z</time>
            </trkpt>
            <trkpt lon="101.411643" lat="14.215388">
                <ele>37.628662</ele>
                <time>2005-09-23T23:01:42Z</time>
            </trkpt>
            <trkpt lon="101.411614" lat="14.215292">
                <ele>37.628662</ele>
                <time>2005-09-23T23:01:52Z</time>
            </trkpt>
            <trkpt lon="101.411573" lat="14.215229">
                <ele>37.628662</ele>
                <time>2005-09-23T23:02:02Z</time>
            </trkpt>
            <trkpt lon="101.411571" lat="14.215223">
                <ele>38.590088</ele>
                <time>2005-09-23T23:02:03Z</time>
            </trkpt>
            <trkpt lon="101.411559" lat="14.215132">
                <ele>38.109375</ele>
                <time>2005-09-23T23:02:12Z</time>
            </trkpt>
            <trkpt lon="101.411555" lat="14.215059">
                <ele>36.667480</ele>
                <time>2005-09-23T23:02:21Z</time>
            </trkpt>
            <trkpt lon="101.411536" lat="14.215024">
                <ele>36.186768</ele>
                <time>2005-09-23T23:02:26Z</time>
            </trkpt>
            <trkpt lon="101.411538" lat="14.214942">
                <ele>36.667480</ele>
                <time>2005-09-23T23:02:36Z</time>
            </trkpt>
            <trkpt lon="101.411565" lat="14.214913">
                <ele>36.186768</ele>
                <time>2005-09-23T23:02:45Z</time>
            </trkpt>
            <trkpt lon="101.411590" lat="14.214892">
                <ele>36.186768</ele>
                <time>2005-09-23T23:02:53Z</time>
            </trkpt>
            <trkpt lon="101.411622" lat="14.214832">
                <ele>35.706055</ele>
                <time>2005-09-23T23:03:01Z</time>
            </trkpt>
            <trkpt lon="101.411657" lat="14.214762">
                <ele>36.667480</ele>
                <time>2005-09-23T23:03:10Z</time>
            </trkpt>
            <trkpt lon="101.411676" lat="14.214666">
                <ele>35.706055</ele>
                <time>2005-09-23T23:03:21Z</time>
            </trkpt>
            <trkpt lon="101.411731" lat="14.214581">
                <ele>35.225464</ele>
                <time>2005-09-23T23:03:31Z</time>
            </trkpt>
            <trkpt lon="101.411788" lat="14.214540">
                <ele>35.706055</ele>
                <time>2005-09-23T23:03:39Z</time>
            </trkpt>
            <trkpt lon="101.411807" lat="14.214485">
                <ele>35.225464</ele>
                <time>2005-09-23T23:03:47Z</time>
            </trkpt>
            <trkpt lon="101.411833" lat="14.214420">
                <ele>35.225464</ele>
                <time>2005-09-23T23:03:57Z</time>
            </trkpt>
            <trkpt lon="101.411802" lat="14.214367">
                <ele>36.186768</ele>
                <time>2005-09-23T23:04:05Z</time>
            </trkpt>
            <trkpt lon="101.411795" lat="14.214363">
                <ele>35.706055</ele>
                <time>2005-09-23T23:04:06Z</time>
            </trkpt>
            <trkpt lon="101.411779" lat="14.214281">
                <ele>35.225464</ele>
                <time>2005-09-23T23:04:14Z</time>
            </trkpt>
            <trkpt lon="101.411763" lat="14.214222">
                <ele>35.706055</ele>
                <time>2005-09-23T23:04:24Z</time>
            </trkpt>
            <trkpt lon="101.411784" lat="14.214200">
                <ele>35.706055</ele>
                <time>2005-09-23T23:04:32Z</time>
            </trkpt>
            <trkpt lon="101.411830" lat="14.214166">
                <ele>38.109375</ele>
                <time>2005-09-23T23:04:41Z</time>
            </trkpt>
            <trkpt lon="101.411900" lat="14.214133">
                <ele>38.590088</ele>
                <time>2005-09-23T23:04:51Z</time>
            </trkpt>
            <trkpt lon="101.411934" lat="14.214078">
                <ele>39.551270</ele>
                <time>2005-09-23T23:05:00Z</time>
            </trkpt>
            <trkpt lon="101.411971" lat="14.214034">
                <ele>39.551270</ele>
                <time>2005-09-23T23:05:10Z</time>
            </trkpt>
            <trkpt lon="101.411993" lat="14.214011">
                <ele>39.070679</ele>
                <time>2005-09-23T23:05:28Z</time>
            </trkpt>
            <trkpt lon="101.412012" lat="14.214002">
                <ele>39.551270</ele>
                <time>2005-09-23T23:05:36Z</time>
            </trkpt>
            <trkpt lon="101.412030" lat="14.213995">
                <ele>39.551270</ele>
                <time>2005-09-23T23:05:39Z</time>
            </trkpt>
            <trkpt lon="101.412079" lat="14.213958">
                <ele>40.032104</ele>
                <time>2005-09-23T23:05:47Z</time>
            </trkpt>
            <trkpt lon="101.412085" lat="14.213950">
                <ele>39.070679</ele>
                <time>2005-09-23T23:05:48Z</time>
            </trkpt>
            <trkpt lon="101.412119" lat="14.213868">
                <ele>40.032104</ele>
                <time>2005-09-23T23:05:59Z</time>
            </trkpt>
            <trkpt lon="101.412105" lat="14.213832">
                <ele>40.512817</ele>
                <time>2005-09-23T23:06:07Z</time>
            </trkpt>
            <trkpt lon="101.412056" lat="14.213801">
                <ele>40.032104</ele>
                <time>2005-09-23T23:06:15Z</time>
            </trkpt>
            <trkpt lon="101.412005" lat="14.213718">
                <ele>40.032104</ele>
                <time>2005-09-23T23:06:25Z</time>
            </trkpt>
            <trkpt lon="101.411979" lat="14.213676">
                <ele>39.551270</ele>
                <time>2005-09-23T23:06:30Z</time>
            </trkpt>
            <trkpt lon="101.411912" lat="14.213597">
                <ele>38.590088</ele>
                <time>2005-09-23T23:06:41Z</time>
            </trkpt>
            <trkpt lon="101.411867" lat="14.213524">
                <ele>38.109375</ele>
                <time>2005-09-23T23:06:50Z</time>
            </trkpt>
            <trkpt lon="101.411842" lat="14.213478">
                <ele>37.628662</ele>
                <time>2005-09-23T23:06:58Z</time>
            </trkpt>
            <trkpt lon="101.411835" lat="14.213453">
                <ele>37.628662</ele>
                <time>2005-09-23T23:07:01Z</time>
            </trkpt>
            <trkpt lon="101.411795" lat="14.213397">
                <ele>37.148071</ele>
                <time>2005-09-23T23:07:10Z</time>
            </trkpt>
            <trkpt lon="101.411748" lat="14.213330">
                <ele>37.148071</ele>
                <time>2005-09-23T23:07:20Z</time>
            </trkpt>
            <trkpt lon="101.411714" lat="14.213243">
                <ele>36.667480</ele>
                <time>2005-09-23T23:07:31Z</time>
            </trkpt>
            <trkpt lon="101.411703" lat="14.213193">
                <ele>37.148071</ele>
                <time>2005-09-23T23:07:37Z</time>
            </trkpt>
            <trkpt lon="101.411683" lat="14.213154">
                <ele>36.186768</ele>
                <time>2005-09-23T23:07:45Z</time>
            </trkpt>
            <trkpt lon="101.411663" lat="14.213137">
                <ele>36.186768</ele>
                <time>2005-09-23T23:07:52Z</time>
            </trkpt>
            <trkpt lon="101.411656" lat="14.213120">
                <ele>36.186768</ele>
                <time>2005-09-23T23:08:08Z</time>
            </trkpt>
            <trkpt lon="101.411645" lat="14.213076">
                <ele>36.186768</ele>
                <time>2005-09-23T23:08:15Z</time>
            </trkpt>
            <trkpt lon="101.411602" lat="14.212994">
                <ele>35.706055</ele>
                <time>2005-09-23T23:08:25Z</time>
            </trkpt>
            <trkpt lon="101.411555" lat="14.212952">
                <ele>35.706055</ele>
                <time>2005-09-23T23:08:34Z</time>
            </trkpt>
            <trkpt lon="101.411540" lat="14.212939">
                <ele>35.706055</ele>
                <time>2005-09-23T23:08:36Z</time>
            </trkpt>
            <trkpt lon="101.411514" lat="14.212889">
                <ele>35.706055</ele>
                <time>2005-09-23T23:08:45Z</time>
            </trkpt>
            <trkpt lon="101.411530" lat="14.212861">
                <ele>35.706055</ele>
                <time>2005-09-23T23:08:51Z</time>
            </trkpt>
            <trkpt lon="101.411539" lat="14.212833">
                <ele>35.225464</ele>
                <time>2005-09-23T23:08:59Z</time>
            </trkpt>
            <trkpt lon="101.411536" lat="14.212810">
                <ele>34.744873</ele>
                <time>2005-09-23T23:09:02Z</time>
            </trkpt>
            <trkpt lon="101.411513" lat="14.212723">
                <ele>33.783447</ele>
                <time>2005-09-23T23:09:12Z</time>
            </trkpt>
            <trkpt lon="101.411510" lat="14.212707">
                <ele>33.783447</ele>
                <time>2005-09-23T23:09:22Z</time>
            </trkpt>
            <trkpt lon="101.411570" lat="14.212710">
                <ele>34.264160</ele>
                <time>2005-09-23T23:09:30Z</time>
            </trkpt>
            <trkpt lon="101.411554" lat="14.212691">
                <ele>34.264160</ele>
                <time>2005-09-23T23:09:42Z</time>
            </trkpt>
            <trkpt lon="101.411547" lat="14.212681">
                <ele>34.264160</ele>
                <time>2005-09-23T23:09:46Z</time>
            </trkpt>
            <trkpt lon="101.411462" lat="14.212634">
                <ele>34.264160</ele>
                <time>2005-09-23T23:09:57Z</time>
            </trkpt>
            <trkpt lon="101.411378" lat="14.212595">
                <ele>34.264160</ele>
                <time>2005-09-23T23:10:07Z</time>
            </trkpt>
            <trkpt lon="101.411304" lat="14.212592">
                <ele>34.744873</ele>
                <time>2005-09-23T23:10:17Z</time>
            </trkpt>
            <trkpt lon="101.411245" lat="14.212623">
                <ele>34.744873</ele>
                <time>2005-09-23T23:10:26Z</time>
            </trkpt>
            <trkpt lon="101.411211" lat="14.212616">
                <ele>34.264160</ele>
                <time>2005-09-23T23:10:31Z</time>
            </trkpt>
            <trkpt lon="101.411159" lat="14.212547">
                <ele>32.822266</ele>
                <time>2005-09-23T23:10:42Z</time>
            </trkpt>
            <trkpt lon="101.411151" lat="14.212547">
                <ele>33.783447</ele>
                <time>2005-09-23T23:10:49Z</time>
            </trkpt>
            <trkpt lon="101.411156" lat="14.212549">
                <ele>33.783447</ele>
                <time>2005-09-23T23:11:00Z</time>
            </trkpt>
            <trkpt lon="101.411142" lat="14.212503">
                <ele>33.302856</ele>
                <time>2005-09-23T23:11:25Z</time>
            </trkpt>
            <trkpt lon="101.411139" lat="14.212484">
                <ele>34.264160</ele>
                <time>2005-09-23T23:11:32Z</time>
            </trkpt>
            <trkpt lon="101.411111" lat="14.212434">
                <ele>32.341553</ele>
                <time>2005-09-23T23:11:41Z</time>
            </trkpt>
            <trkpt lon="101.411088" lat="14.212383">
                <ele>32.341553</ele>
                <time>2005-09-23T23:11:51Z</time>
            </trkpt>
            <trkpt lon="101.411090" lat="14.212379">
                <ele>32.822266</ele>
                <time>2005-09-23T23:11:58Z</time>
            </trkpt>
            <trkpt lon="101.411086" lat="14.212361">
                <ele>32.822266</ele>
                <time>2005-09-23T23:12:05Z</time>
            </trkpt>
            <trkpt lon="101.411090" lat="14.212347">
                <ele>33.302856</ele>
                <time>2005-09-23T23:12:13Z</time>
            </trkpt>
            <trkpt lon="101.411110" lat="14.212251">
                <ele>33.783447</ele>
                <time>2005-09-23T23:12:23Z</time>
            </trkpt>
            <trkpt lon="101.411106" lat="14.212147">
                <ele>33.783447</ele>
                <time>2005-09-23T23:12:32Z</time>
            </trkpt>
            <trkpt lon="101.411124" lat="14.212041">
                <ele>34.264160</ele>
                <time>2005-09-23T23:12:43Z</time>
            </trkpt>
            <trkpt lon="101.411133" lat="14.211941">
                <ele>34.264160</ele>
                <time>2005-09-23T23:12:52Z</time>
            </trkpt>
            <trkpt lon="101.411138" lat="14.211885">
                <ele>34.264160</ele>
                <time>2005-09-23T23:12:58Z</time>
            </trkpt>
            <trkpt lon="101.411129" lat="14.211778">
                <ele>34.744873</ele>
                <time>2005-09-23T23:13:08Z</time>
            </trkpt>
            <trkpt lon="101.411067" lat="14.211681">
                <ele>34.744873</ele>
                <time>2005-09-23T23:13:19Z</time>
            </trkpt>
            <trkpt lon="101.411014" lat="14.211617">
                <ele>34.744873</ele>
                <time>2005-09-23T23:13:27Z</time>
            </trkpt>
            <trkpt lon="101.410891" lat="14.211576">
                <ele>34.744873</ele>
                <time>2005-09-23T23:13:38Z</time>
            </trkpt>
            <trkpt lon="101.410780" lat="14.211546">
                <ele>34.744873</ele>
                <time>2005-09-23T23:13:49Z</time>
            </trkpt>
            <trkpt lon="101.410761" lat="14.211540">
                <ele>34.744873</ele>
                <time>2005-09-23T23:13:57Z</time>
            </trkpt>
            <trkpt lon="101.410773" lat="14.211534">
                <ele>34.744873</ele>
                <time>2005-09-23T23:15:19Z</time>
            </trkpt>
            <trkpt lon="101.410771" lat="14.211537">
                <ele>35.706055</ele>
                <time>2005-09-23T23:16:50Z</time>
            </trkpt>
            <trkpt lon="101.410767" lat="14.211467">
                <ele>35.706055</ele>
                <time>2005-09-23T23:16:57Z</time>
            </trkpt>
            <trkpt lon="101.410728" lat="14.211389">
                <ele>35.706055</ele>
                <time>2005-09-23T23:17:05Z</time>
            </trkpt>
            <trkpt lon="101.410678" lat="14.211290">
                <ele>35.225464</ele>
                <time>2005-09-23T23:17:15Z</time>
            </trkpt>
            <trkpt lon="101.410632" lat="14.211200">
                <ele>35.225464</ele>
                <time>2005-09-23T23:17:23Z</time>
            </trkpt>
            <trkpt lon="101.410598" lat="14.211111">
                <ele>35.225464</ele>
                <time>2005-09-23T23:17:32Z</time>
            </trkpt>
            <trkpt lon="101.410548" lat="14.211010">
                <ele>35.225464</ele>
                <time>2005-09-23T23:17:38Z</time>
            </trkpt>
            <trkpt lon="101.410419" lat="14.210722">
                <ele>35.225464</ele>
                <time>2005-09-23T23:17:49Z</time>
            </trkpt>
            <trkpt lon="101.410307" lat="14.210503">
                <ele>34.744873</ele>
                <time>2005-09-23T23:17:58Z</time>
            </trkpt>
            <trkpt lon="101.410214" lat="14.210394">
                <ele>33.783447</ele>
                <time>2005-09-23T23:18:07Z</time>
            </trkpt>
            <trkpt lon="101.410186" lat="14.210368">
                <ele>33.783447</ele>
                <time>2005-09-23T23:18:14Z</time>
            </trkpt>
            <trkpt lon="101.410157" lat="14.210317">
                <ele>33.783447</ele>
                <time>2005-09-23T23:18:24Z</time>
            </trkpt>
            <trkpt lon="101.410096" lat="14.210280">
                <ele>34.264160</ele>
                <time>2005-09-23T23:18:32Z</time>
            </trkpt>
            <trkpt lon="101.409945" lat="14.210243">
                <ele>33.302856</ele>
                <time>2005-09-23T23:18:41Z</time>
            </trkpt>
            <trkpt lon="101.409922" lat="14.210231">
                <ele>33.783447</ele>
                <time>2005-09-23T23:18:42Z</time>
            </trkpt>
            <trkpt lon="101.409842" lat="14.210086">
                <ele>33.783447</ele>
                <time>2005-09-23T23:18:50Z</time>
            </trkpt>
            <trkpt lon="101.409809" lat="14.209933">
                <ele>34.264160</ele>
                <time>2005-09-23T23:18:57Z</time>
            </trkpt>
            <trkpt lon="101.409720" lat="14.209785">
                <ele>34.744873</ele>
                <time>2005-09-23T23:19:05Z</time>
            </trkpt>
            <trkpt lon="101.409588" lat="14.209735">
                <ele>34.744873</ele>
                <time>2005-09-23T23:19:12Z</time>
            </trkpt>
            <trkpt lon="101.409409" lat="14.209685">
                <ele>34.744873</ele>
                <time>2005-09-23T23:19:21Z</time>
            </trkpt>
            <trkpt lon="101.409189" lat="14.209589">
                <ele>35.706055</ele>
                <time>2005-09-23T23:19:30Z</time>
            </trkpt>
            <trkpt lon="101.409081" lat="14.209502">
                <ele>35.706055</ele>
                <time>2005-09-23T23:19:36Z</time>
            </trkpt>
            <trkpt lon="101.408763" lat="14.209518">
                <ele>35.706055</ele>
                <time>2005-09-23T23:19:38Z</time>
            </trkpt>
            <trkpt lon="101.408689" lat="14.209374">
                <ele>37.148071</ele>
                <time>2005-09-23T23:19:44Z</time>
            </trkpt>
            <trkpt lon="101.408568" lat="14.209144">
                <ele>39.551270</ele>
                <time>2005-09-23T23:19:56Z</time>
            </trkpt>
            <trkpt lon="101.408464" lat="14.208951">
                <ele>39.551270</ele>
                <time>2005-09-23T23:20:06Z</time>
            </trkpt>
            <trkpt lon="101.408395" lat="14.208732">
                <ele>41.954712</ele>
                <time>2005-09-23T23:20:15Z</time>
            </trkpt>
            <trkpt lon="101.408384" lat="14.208440">
                <ele>40.512817</ele>
                <time>2005-09-23T23:20:26Z</time>
            </trkpt>
            <trkpt lon="101.408346" lat="14.208182">
                <ele>39.551270</ele>
                <time>2005-09-23T23:20:35Z</time>
            </trkpt>
            <trkpt lon="101.408288" lat="14.208011">
                <ele>40.032104</ele>
                <time>2005-09-23T23:20:42Z</time>
            </trkpt>
            <trkpt lon="101.408177" lat="14.207783">
                <ele>40.512817</ele>
                <time>2005-09-23T23:20:51Z</time>
            </trkpt>
            <trkpt lon="101.408013" lat="14.207522">
                <ele>38.590088</ele>
                <time>2005-09-23T23:21:01Z</time>
            </trkpt>
            <trkpt lon="101.407903" lat="14.207287">
                <ele>37.628662</ele>
                <time>2005-09-23T23:21:08Z</time>
            </trkpt>
            <trkpt lon="101.407902" lat="14.207116">
                <ele>38.590088</ele>
                <time>2005-09-23T23:21:13Z</time>
            </trkpt>
            <trkpt lon="101.407892" lat="14.206817">
                <ele>38.109375</ele>
                <time>2005-09-23T23:21:22Z</time>
            </trkpt>
            <trkpt lon="101.407900" lat="14.206577">
                <ele>38.590088</ele>
                <time>2005-09-23T23:21:30Z</time>
            </trkpt>
            <trkpt lon="101.407912" lat="14.206393">
                <ele>38.109375</ele>
                <time>2005-09-23T23:21:36Z</time>
            </trkpt>
            <trkpt lon="101.407942" lat="14.206143">
                <ele>37.148071</ele>
                <time>2005-09-23T23:21:44Z</time>
            </trkpt>
            <trkpt lon="101.407953" lat="14.205888">
                <ele>37.628662</ele>
                <time>2005-09-23T23:21:51Z</time>
            </trkpt>
            <trkpt lon="101.407966" lat="14.205725">
                <ele>36.667480</ele>
                <time>2005-09-23T23:21:58Z</time>
            </trkpt>
            <trkpt lon="101.407989" lat="14.205546">
                <ele>35.706055</ele>
                <time>2005-09-23T23:22:06Z</time>
            </trkpt>
            <trkpt lon="101.407954" lat="14.205261">
                <ele>34.744873</ele>
                <time>2005-09-23T23:22:15Z</time>
            </trkpt>
            <trkpt lon="101.407888" lat="14.204975">
                <ele>34.264160</ele>
                <time>2005-09-23T23:22:24Z</time>
            </trkpt>
            <trkpt lon="101.407868" lat="14.204677">
                <ele>34.744873</ele>
                <time>2005-09-23T23:22:33Z</time>
            </trkpt>
            <trkpt lon="101.407892" lat="14.204506">
                <ele>34.264160</ele>
                <time>2005-09-23T23:22:40Z</time>
            </trkpt>
            <trkpt lon="101.407919" lat="14.204268">
                <ele>34.264160</ele>
                <time>2005-09-23T23:22:48Z</time>
            </trkpt>
            <trkpt lon="101.407973" lat="14.203986">
                <ele>34.264160</ele>
                <time>2005-09-23T23:22:58Z</time>
            </trkpt>
            <trkpt lon="101.407990" lat="14.203737">
                <ele>34.744873</ele>
                <time>2005-09-23T23:23:07Z</time>
            </trkpt>
            <trkpt lon="101.407909" lat="14.203499">
                <ele>34.264160</ele>
                <time>2005-09-23T23:23:15Z</time>
            </trkpt>
            <trkpt lon="101.407705" lat="14.203297">
                <ele>34.264160</ele>
                <time>2005-09-23T23:23:23Z</time>
            </trkpt>
            <trkpt lon="101.407497" lat="14.203001">
                <ele>32.822266</ele>
                <time>2005-09-23T23:23:33Z</time>
            </trkpt>
            <trkpt lon="101.407379" lat="14.202783">
                <ele>33.783447</ele>
                <time>2005-09-23T23:23:41Z</time>
            </trkpt>
            <trkpt lon="101.407359" lat="14.202559">
                <ele>32.822266</ele>
                <time>2005-09-23T23:23:48Z</time>
            </trkpt>
            <trkpt lon="101.407319" lat="14.202266">
                <ele>31.860718</ele>
                <time>2005-09-23T23:23:56Z</time>
            </trkpt>
            <trkpt lon="101.407291" lat="14.202014">
                <ele>31.860718</ele>
                <time>2005-09-23T23:24:04Z</time>
            </trkpt>
            <trkpt lon="101.407261" lat="14.201790">
                <ele>31.860718</ele>
                <time>2005-09-23T23:24:10Z</time>
            </trkpt>
            <trkpt lon="101.407201" lat="14.201445">
                <ele>31.860718</ele>
                <time>2005-09-23T23:24:19Z</time>
            </trkpt>
            <trkpt lon="101.407139" lat="14.201022">
                <ele>31.860718</ele>
                <time>2005-09-23T23:24:30Z</time>
            </trkpt>
            <trkpt lon="101.407154" lat="14.200602">
                <ele>29.457520</ele>
                <time>2005-09-23T23:24:40Z</time>
            </trkpt>
            <trkpt lon="101.407193" lat="14.200186">
                <ele>29.457520</ele>
                <time>2005-09-23T23:24:49Z</time>
            </trkpt>
            <trkpt lon="101.407224" lat="14.199768">
                <ele>28.496216</ele>
                <time>2005-09-23T23:24:59Z</time>
            </trkpt>
            <trkpt lon="101.407248" lat="14.199330">
                <ele>28.976929</ele>
                <time>2005-09-23T23:25:09Z</time>
            </trkpt>
            <trkpt lon="101.407266" lat="14.198931">
                <ele>28.976929</ele>
                <time>2005-09-23T23:25:19Z</time>
            </trkpt>
            <trkpt lon="101.407268" lat="14.198493">
                <ele>29.938110</ele>
                <time>2005-09-23T23:25:30Z</time>
            </trkpt>
            <trkpt lon="101.407265" lat="14.197993">
                <ele>29.457520</ele>
                <time>2005-09-23T23:25:42Z</time>
            </trkpt>
            <trkpt lon="101.407238" lat="14.197646">
                <ele>29.457520</ele>
                <time>2005-09-23T23:25:51Z</time>
            </trkpt>
            <trkpt lon="101.407218" lat="14.197416">
                <ele>30.418823</ele>
                <time>2005-09-23T23:25:57Z</time>
            </trkpt>
            <trkpt lon="101.407284" lat="14.197283">
                <ele>29.457520</ele>
                <time>2005-09-23T23:26:01Z</time>
            </trkpt>
            <trkpt lon="101.407338" lat="14.197160">
                <ele>28.496216</ele>
                <time>2005-09-23T23:26:04Z</time>
            </trkpt>
            <trkpt lon="101.407356" lat="14.196981">
                <ele>28.015503</ele>
                <time>2005-09-23T23:26:08Z</time>
            </trkpt>
            <trkpt lon="101.407302" lat="14.196757">
                <ele>28.015503</ele>
                <time>2005-09-23T23:26:13Z</time>
            </trkpt>
            <trkpt lon="101.407331" lat="14.196582">
                <ele>27.534912</ele>
                <time>2005-09-23T23:26:17Z</time>
            </trkpt>
            <trkpt lon="101.407589" lat="14.196227">
                <ele>25.612305</ele>
                <time>2005-09-23T23:26:26Z</time>
            </trkpt>
            <trkpt lon="101.407734" lat="14.196082">
                <ele>27.054321</ele>
                <time>2005-09-23T23:26:31Z</time>
            </trkpt>
            <trkpt lon="101.407822" lat="14.196084">
                <ele>28.015503</ele>
                <time>2005-09-23T23:26:36Z</time>
            </trkpt>
            <trkpt lon="101.408019" lat="14.195978">
                <ele>27.534912</ele>
                <time>2005-09-23T23:26:47Z</time>
            </trkpt>
            <trkpt lon="101.408306" lat="14.195799">
                <ele>27.534912</ele>
                <time>2005-09-23T23:26:59Z</time>
            </trkpt>
            <trkpt lon="101.408396" lat="14.195739">
                <ele>27.534912</ele>
                <time>2005-09-23T23:27:07Z</time>
            </trkpt>
            <trkpt lon="101.408439" lat="14.195704">
                <ele>28.015503</ele>
                <time>2005-09-23T23:27:18Z</time>
            </trkpt>
            <trkpt lon="101.408454" lat="14.195701">
                <ele>28.496216</ele>
                <time>2005-09-23T23:27:29Z</time>
            </trkpt>
            <trkpt lon="101.408459" lat="14.195702">
                <ele>25.131714</ele>
                <time>2005-09-23T23:27:41Z</time>
            </trkpt>
            <trkpt lon="101.408459" lat="14.195702">
                <ele>25.612305</ele>
                <time>2005-09-23T23:27:42Z</time>
            </trkpt>
            <trkpt lon="101.408458" lat="14.195702">
                <ele>28.976929</ele>
                <time>2005-09-23T23:27:43Z</time>
            </trkpt>
            <trkpt lon="101.408458" lat="14.195702">
                <ele>28.015503</ele>
                <time>2005-09-23T23:27:44Z</time>
            </trkpt>
            <trkpt lon="101.408458" lat="14.195702">
                <ele>29.938110</ele>
                <time>2005-09-23T23:27:47Z</time>
            </trkpt>
            <trkpt lon="101.408425" lat="14.195720">
                <ele>27.534912</ele>
                <time>2005-09-23T23:27:53Z</time>
            </trkpt>
            <trkpt lon="101.408419" lat="14.195721">
                <ele>27.054321</ele>
                <time>2005-09-23T23:27:54Z</time>
            </trkpt>
            <trkpt lon="101.408417" lat="14.195714">
                <ele>27.534912</ele>
                <time>2005-09-23T23:28:09Z</time>
            </trkpt>
            <trkpt lon="101.408418" lat="14.195727">
                <ele>28.015503</ele>
                <time>2005-09-23T23:28:43Z</time>
            </trkpt>
            <trkpt lon="101.408435" lat="14.195716">
                <ele>27.534912</ele>
                <time>2005-09-23T23:30:33Z</time>
            </trkpt>
            <trkpt lon="101.408416" lat="14.195713">
                <ele>28.496216</ele>
                <time>2005-09-23T23:31:04Z</time>
            </trkpt>
            <trkpt lon="101.408247" lat="14.195708">
                <ele>28.496216</ele>
                <time>2005-09-23T23:31:11Z</time>
            </trkpt>
            <trkpt lon="101.407876" lat="14.195571">
                <ele>28.496216</ele>
                <time>2005-09-23T23:31:22Z</time>
            </trkpt>
            <trkpt lon="101.407721" lat="14.195437">
                <ele>26.573608</ele>
                <time>2005-09-23T23:31:28Z</time>
            </trkpt>
            <trkpt lon="101.407710" lat="14.195395">
                <ele>26.092896</ele>
                <time>2005-09-23T23:31:30Z</time>
            </trkpt>
            <trkpt lon="101.407731" lat="14.195206">
                <ele>27.534912</ele>
                <time>2005-09-23T23:31:35Z</time>
            </trkpt>
            <trkpt lon="101.407716" lat="14.194836">
                <ele>27.054321</ele>
                <time>2005-09-23T23:31:42Z</time>
            </trkpt>
            <trkpt lon="101.407713" lat="14.194389">
                <ele>27.534912</ele>
                <time>2005-09-23T23:31:51Z</time>
            </trkpt>
            <trkpt lon="101.407859" lat="14.194248">
                <ele>27.054321</ele>
                <time>2005-09-23T23:31:56Z</time>
            </trkpt>
            <trkpt lon="101.407900" lat="14.194253">
                <ele>26.573608</ele>
                <time>2005-09-23T23:31:57Z</time>
            </trkpt>
            <trkpt lon="101.408360" lat="14.194293">
                <ele>27.054321</ele>
                <time>2005-09-23T23:32:06Z</time>
            </trkpt>
            <trkpt lon="101.408670" lat="14.194144">
                <ele>28.015503</ele>
                <time>2005-09-23T23:32:12Z</time>
            </trkpt>
            <trkpt lon="101.408777" lat="14.193940">
                <ele>28.015503</ele>
                <time>2005-09-23T23:32:16Z</time>
            </trkpt>
            <trkpt lon="101.408999" lat="14.193309">
                <ele>28.976929</ele>
                <time>2005-09-23T23:32:27Z</time>
            </trkpt>
            <trkpt lon="101.409260" lat="14.192602">
                <ele>28.496216</ele>
                <time>2005-09-23T23:32:39Z</time>
            </trkpt>
            <trkpt lon="101.409565" lat="14.191725">
                <ele>28.496216</ele>
                <time>2005-09-23T23:32:52Z</time>
            </trkpt>
            <trkpt lon="101.409777" lat="14.191010">
                <ele>28.496216</ele>
                <time>2005-09-23T23:33:02Z</time>
            </trkpt>
            <trkpt lon="101.409994" lat="14.189809">
                <ele>28.015503</ele>
                <time>2005-09-23T23:33:18Z</time>
            </trkpt>
            <trkpt lon="101.410085" lat="14.189505">
                <ele>28.015503</ele>
                <time>2005-09-23T23:33:22Z</time>
            </trkpt>
            <trkpt lon="101.410281" lat="14.189259">
                <ele>28.496216</ele>
                <time>2005-09-23T23:33:26Z</time>
            </trkpt>
            <trkpt lon="101.411238" lat="14.188442">
                <ele>28.015503</ele>
                <time>2005-09-23T23:33:41Z</time>
            </trkpt>
            <trkpt lon="101.411900" lat="14.187807">
                <ele>28.015503</ele>
                <time>2005-09-23T23:33:52Z</time>
            </trkpt>
            <trkpt lon="101.412086" lat="14.187552">
                <ele>27.534912</ele>
                <time>2005-09-23T23:33:56Z</time>
            </trkpt>
            <trkpt lon="101.412194" lat="14.187090">
                <ele>27.054321</ele>
                <time>2005-09-23T23:34:02Z</time>
            </trkpt>
            <trkpt lon="101.412260" lat="14.186416">
                <ele>27.534912</ele>
                <time>2005-09-23T23:34:11Z</time>
            </trkpt>
            <trkpt lon="101.412328" lat="14.185728">
                <ele>27.534912</ele>
                <time>2005-09-23T23:34:20Z</time>
            </trkpt>
            <trkpt lon="101.412393" lat="14.185070">
                <ele>27.054321</ele>
                <time>2005-09-23T23:34:29Z</time>
            </trkpt>
            <trkpt lon="101.412422" lat="14.184721">
                <ele>26.092896</ele>
                <time>2005-09-23T23:34:36Z</time>
            </trkpt>
            <trkpt lon="101.412495" lat="14.184559">
                <ele>26.573608</ele>
                <time>2005-09-23T23:34:42Z</time>
            </trkpt>
            <trkpt lon="101.412559" lat="14.184533">
                <ele>26.092896</ele>
                <time>2005-09-23T23:34:48Z</time>
            </trkpt>
            <trkpt lon="101.412666" lat="14.184484">
                <ele>26.573608</ele>
                <time>2005-09-23T23:34:52Z</time>
            </trkpt>
            <trkpt lon="101.413067" lat="14.184269">
                <ele>26.573608</ele>
                <time>2005-09-23T23:35:01Z</time>
            </trkpt>
            <trkpt lon="101.413535" lat="14.183912">
                <ele>27.054321</ele>
                <time>2005-09-23T23:35:11Z</time>
            </trkpt>
            <trkpt lon="101.414027" lat="14.183523">
                <ele>26.573608</ele>
                <time>2005-09-23T23:35:21Z</time>
            </trkpt>
            <trkpt lon="101.414508" lat="14.183154">
                <ele>25.612305</ele>
                <time>2005-09-23T23:35:31Z</time>
            </trkpt>
            <trkpt lon="101.414950" lat="14.182890">
                <ele>27.534912</ele>
                <time>2005-09-23T23:35:39Z</time>
            </trkpt>
            <trkpt lon="101.415656" lat="14.182476">
                <ele>27.054321</ele>
                <time>2005-09-23T23:35:51Z</time>
            </trkpt>
            <trkpt lon="101.416165" lat="14.182187">
                <ele>27.054321</ele>
                <time>2005-09-23T23:36:00Z</time>
            </trkpt>
            <trkpt lon="101.416863" lat="14.181778">
                <ele>27.054321</ele>
                <time>2005-09-23T23:36:12Z</time>
            </trkpt>
            <trkpt lon="101.417593" lat="14.181359">
                <ele>26.573608</ele>
                <time>2005-09-23T23:36:23Z</time>
            </trkpt>
            <trkpt lon="101.418341" lat="14.180926">
                <ele>26.092896</ele>
                <time>2005-09-23T23:36:34Z</time>
            </trkpt>
            <trkpt lon="101.419162" lat="14.180456">
                <ele>25.612305</ele>
                <time>2005-09-23T23:36:47Z</time>
            </trkpt>
            <trkpt lon="101.419980" lat="14.179987">
                <ele>25.131714</ele>
                <time>2005-09-23T23:37:00Z</time>
            </trkpt>
            <trkpt lon="101.420390" lat="14.179781">
                <ele>25.131714</ele>
                <time>2005-09-23T23:37:07Z</time>
            </trkpt>
            <trkpt lon="101.420981" lat="14.179569">
                <ele>26.092896</ele>
                <time>2005-09-23T23:37:16Z</time>
            </trkpt>
            <trkpt lon="101.421741" lat="14.179351">
                <ele>27.534912</ele>
                <time>2005-09-23T23:37:27Z</time>
            </trkpt>
            <trkpt lon="101.422357" lat="14.179107">
                <ele>26.092896</ele>
                <time>2005-09-23T23:37:36Z</time>
            </trkpt>
            <trkpt lon="101.422519" lat="14.178979">
                <ele>26.092896</ele>
                <time>2005-09-23T23:37:39Z</time>
            </trkpt>
            <trkpt lon="101.422740" lat="14.178609">
                <ele>25.131714</ele>
                <time>2005-09-23T23:37:45Z</time>
            </trkpt>
            <trkpt lon="101.422922" lat="14.177886">
                <ele>24.170288</ele>
                <time>2005-09-23T23:37:55Z</time>
            </trkpt>
            <trkpt lon="101.423010" lat="14.177495">
                <ele>23.689575</ele>
                <time>2005-09-23T23:38:02Z</time>
            </trkpt>
            <trkpt lon="101.423037" lat="14.177338">
                <ele>22.728271</ele>
                <time>2005-09-23T23:38:08Z</time>
            </trkpt>
            <trkpt lon="101.423062" lat="14.177107">
                <ele>23.689575</ele>
                <time>2005-09-23T23:38:13Z</time>
            </trkpt>
            <trkpt lon="101.423142" lat="14.176581">
                <ele>22.728271</ele>
                <time>2005-09-23T23:38:21Z</time>
            </trkpt>
            <trkpt lon="101.423283" lat="14.175825">
                <ele>21.286377</ele>
                <time>2005-09-23T23:38:32Z</time>
            </trkpt>
            <trkpt lon="101.423467" lat="14.175375">
                <ele>20.805664</ele>
                <time>2005-09-23T23:38:40Z</time>
            </trkpt>
            <trkpt lon="101.423570" lat="14.175189">
                <ele>20.324951</ele>
                <time>2005-09-23T23:38:46Z</time>
            </trkpt>
            <trkpt lon="101.423584" lat="14.175158">
                <ele>20.324951</ele>
                <time>2005-09-23T23:38:51Z</time>
            </trkpt>
            <trkpt lon="101.423561" lat="14.175010">
                <ele>19.844360</ele>
                <time>2005-09-23T23:39:01Z</time>
            </trkpt>
            <trkpt lon="101.423435" lat="14.174897">
                <ele>19.844360</ele>
                <time>2005-09-23T23:39:07Z</time>
            </trkpt>
            <trkpt lon="101.423152" lat="14.174646">
                <ele>18.883057</ele>
                <time>2005-09-23T23:39:16Z</time>
            </trkpt>
            <trkpt lon="101.423122" lat="14.174613">
                <ele>19.363770</ele>
                <time>2005-09-23T23:39:17Z</time>
            </trkpt>
            <trkpt lon="101.422935" lat="14.174525">
                <ele>18.883057</ele>
                <time>2005-09-23T23:39:22Z</time>
            </trkpt>
            <trkpt lon="101.422530" lat="14.174422">
                <ele>19.363770</ele>
                <time>2005-09-23T23:39:31Z</time>
            </trkpt>
            <trkpt lon="101.422495" lat="14.174402">
                <ele>18.883057</ele>
                <time>2005-09-23T23:39:32Z</time>
            </trkpt>
            <trkpt lon="101.422144" lat="14.174094">
                <ele>18.883057</ele>
                <time>2005-09-23T23:39:42Z</time>
            </trkpt>
            <trkpt lon="101.421923" lat="14.173856">
                <ele>18.883057</ele>
                <time>2005-09-23T23:39:50Z</time>
            </trkpt>
            <trkpt lon="101.421764" lat="14.173877">
                <ele>17.921753</ele>
                <time>2005-09-23T23:39:55Z</time>
            </trkpt>
            <trkpt lon="101.421644" lat="14.173880">
                <ele>18.402344</ele>
                <time>2005-09-23T23:39:58Z</time>
            </trkpt>
            <trkpt lon="101.421329" lat="14.173721">
                <ele>18.402344</ele>
                <time>2005-09-23T23:40:06Z</time>
            </trkpt>
            <trkpt lon="101.421263" lat="14.173494">
                <ele>18.883057</ele>
                <time>2005-09-23T23:40:11Z</time>
            </trkpt>
            <trkpt lon="101.421296" lat="14.173265">
                <ele>17.921753</ele>
                <time>2005-09-23T23:40:16Z</time>
            </trkpt>
            <trkpt lon="101.421183" lat="14.173072">
                <ele>17.921753</ele>
                <time>2005-09-23T23:40:22Z</time>
            </trkpt>
            <trkpt lon="101.421146" lat="14.173047">
                <ele>18.402344</ele>
                <time>2005-09-23T23:40:23Z</time>
            </trkpt>
            <trkpt lon="101.420829" lat="14.172915">
                <ele>17.921753</ele>
                <time>2005-09-23T23:40:32Z</time>
            </trkpt>
            <trkpt lon="101.420696" lat="14.172869">
                <ele>17.441162</ele>
                <time>2005-09-23T23:40:39Z</time>
            </trkpt>
            <trkpt lon="101.420689" lat="14.172849">
                <ele>17.921753</ele>
                <time>2005-09-23T23:40:49Z</time>
            </trkpt>
            <trkpt lon="101.420706" lat="14.172840">
                <ele>16.479736</ele>
                <time>2005-09-23T23:41:44Z</time>
            </trkpt>
            <trkpt lon="101.420713" lat="14.172885">
                <ele>17.921753</ele>
                <time>2005-09-23T23:41:57Z</time>
            </trkpt>
            <trkpt lon="101.420704" lat="14.172890">
                <ele>17.441162</ele>
                <time>2005-09-23T23:42:13Z</time>
            </trkpt>
            <trkpt lon="101.420713" lat="14.172897">
                <ele>17.441162</ele>
                <time>2005-09-23T23:42:19Z</time>
            </trkpt>
            <trkpt lon="101.420875" lat="14.172951">
                <ele>18.402344</ele>
                <time>2005-09-23T23:42:26Z</time>
            </trkpt>
            <trkpt lon="101.421199" lat="14.173105">
                <ele>18.402344</ele>
                <time>2005-09-23T23:42:35Z</time>
            </trkpt>
            <trkpt lon="101.421232" lat="14.173133">
                <ele>18.883057</ele>
                <time>2005-09-23T23:42:36Z</time>
            </trkpt>
            <trkpt lon="101.421286" lat="14.173359">
                <ele>18.402344</ele>
                <time>2005-09-23T23:42:42Z</time>
            </trkpt>
            <trkpt lon="101.421263" lat="14.173555">
                <ele>19.363770</ele>
                <time>2005-09-23T23:42:46Z</time>
            </trkpt>
            <trkpt lon="101.421385" lat="14.173807">
                <ele>19.844360</ele>
                <time>2005-09-23T23:42:52Z</time>
            </trkpt>
            <trkpt lon="101.421628" lat="14.173908">
                <ele>20.324951</ele>
                <time>2005-09-23T23:42:57Z</time>
            </trkpt>
            <trkpt lon="101.421749" lat="14.173911">
                <ele>19.363770</ele>
                <time>2005-09-23T23:43:01Z</time>
            </trkpt>
            <trkpt lon="101.421972" lat="14.173913">
                <ele>19.363770</ele>
                <time>2005-09-23T23:43:09Z</time>
            </trkpt>
            <trkpt lon="101.421997" lat="14.173939">
                <ele>19.363770</ele>
                <time>2005-09-23T23:43:10Z</time>
            </trkpt>
            <trkpt lon="101.422246" lat="14.174218">
                <ele>19.363770</ele>
                <time>2005-09-23T23:43:17Z</time>
            </trkpt>
            <trkpt lon="101.422491" lat="14.174424">
                <ele>18.883057</ele>
                <time>2005-09-23T23:43:24Z</time>
            </trkpt>
            <trkpt lon="101.422677" lat="14.174501">
                <ele>18.402344</ele>
                <time>2005-09-23T23:43:28Z</time>
            </trkpt>
            <trkpt lon="101.422981" lat="14.174563">
                <ele>18.402344</ele>
                <time>2005-09-23T23:43:34Z</time>
            </trkpt>
            <trkpt lon="101.423169" lat="14.174700">
                <ele>18.402344</ele>
                <time>2005-09-23T23:43:39Z</time>
            </trkpt>
            <trkpt lon="101.423247" lat="14.174780">
                <ele>19.844360</ele>
                <time>2005-09-23T23:43:41Z</time>
            </trkpt>
            <trkpt lon="101.423499" lat="14.174977">
                <ele>18.883057</ele>
                <time>2005-09-23T23:43:48Z</time>
            </trkpt>
            <trkpt lon="101.423573" lat="14.175047">
                <ele>20.324951</ele>
                <time>2005-09-23T23:43:54Z</time>
            </trkpt>
            <trkpt lon="101.423651" lat="14.175002">
                <ele>21.766968</ele>
                <time>2005-09-23T23:43:58Z</time>
            </trkpt>
            <trkpt lon="101.423801" lat="14.174817">
                <ele>21.766968</ele>
                <time>2005-09-23T23:44:05Z</time>
            </trkpt>
            <trkpt lon="101.423911" lat="14.174742">
                <ele>21.286377</ele>
                <time>2005-09-23T23:44:12Z</time>
            </trkpt>
            <trkpt lon="101.423918" lat="14.174735">
                <ele>20.805664</ele>
                <time>2005-09-23T23:44:19Z</time>
            </trkpt>
            <trkpt lon="101.423887" lat="14.174735">
                <ele>20.324951</ele>
                <time>2005-09-23T23:45:31Z</time>
            </trkpt>
            <trkpt lon="101.423890" lat="14.174748">
                <ele>18.402344</ele>
                <time>2005-09-23T23:45:38Z</time>
            </trkpt>
            <trkpt lon="101.423869" lat="14.174771">
                <ele>19.844360</ele>
                <time>2005-09-23T23:47:17Z</time>
            </trkpt>
            <trkpt lon="101.423853" lat="14.174760">
                <ele>20.324951</ele>
                <time>2005-09-23T23:47:23Z</time>
            </trkpt>
            <trkpt lon="101.423827" lat="14.174746">
                <ele>19.844360</ele>
                <time>2005-09-23T23:47:38Z</time>
            </trkpt>
            <trkpt lon="101.423685" lat="14.174707">
                <ele>19.844360</ele>
                <time>2005-09-23T23:47:47Z</time>
            </trkpt>
            <trkpt lon="101.423628" lat="14.174685">
                <ele>18.883057</ele>
                <time>2005-09-23T23:47:49Z</time>
            </trkpt>
            <trkpt lon="101.423434" lat="14.174509">
                <ele>18.402344</ele>
                <time>2005-09-23T23:47:56Z</time>
            </trkpt>
            <trkpt lon="101.423282" lat="14.174334">
                <ele>18.402344</ele>
                <time>2005-09-23T23:48:02Z</time>
            </trkpt>
            <trkpt lon="101.423107" lat="14.174257">
                <ele>17.921753</ele>
                <time>2005-09-23T23:48:06Z</time>
            </trkpt>
            <trkpt lon="101.422704" lat="14.174166">
                <ele>17.921753</ele>
                <time>2005-09-23T23:48:14Z</time>
            </trkpt>
            <trkpt lon="101.422415" lat="14.173942">
                <ele>17.441162</ele>
                <time>2005-09-23T23:48:21Z</time>
            </trkpt>
            <trkpt lon="101.422139" lat="14.173599">
                <ele>17.441162</ele>
                <time>2005-09-23T23:48:29Z</time>
            </trkpt>
            <trkpt lon="101.421918" lat="14.173483">
                <ele>17.921753</ele>
                <time>2005-09-23T23:48:34Z</time>
            </trkpt>
            <trkpt lon="101.421781" lat="14.173525">
                <ele>17.921753</ele>
                <time>2005-09-23T23:48:37Z</time>
            </trkpt>
            <trkpt lon="101.421588" lat="14.173483">
                <ele>17.441162</ele>
                <time>2005-09-23T23:48:42Z</time>
            </trkpt>
            <trkpt lon="101.421582" lat="14.173358">
                <ele>17.921753</ele>
                <time>2005-09-23T23:48:45Z</time>
            </trkpt>
            <trkpt lon="101.421581" lat="14.173147">
                <ele>17.921753</ele>
                <time>2005-09-23T23:48:50Z</time>
            </trkpt>
            <trkpt lon="101.421405" lat="14.172887">
                <ele>17.921753</ele>
                <time>2005-09-23T23:48:57Z</time>
            </trkpt>
            <trkpt lon="101.421298" lat="14.172802">
                <ele>17.921753</ele>
                <time>2005-09-23T23:49:00Z</time>
            </trkpt>
            <trkpt lon="101.421144" lat="14.172717">
                <ele>17.921753</ele>
                <time>2005-09-23T23:49:04Z</time>
            </trkpt>
            <trkpt lon="101.420881" lat="14.172626">
                <ele>18.402344</ele>
                <time>2005-09-23T23:49:12Z</time>
            </trkpt>
            <trkpt lon="101.420767" lat="14.172604">
                <ele>18.883057</ele>
                <time>2005-09-23T23:49:19Z</time>
            </trkpt>
            <trkpt lon="101.420755" lat="14.172604">
                <ele>18.883057</ele>
                <time>2005-09-23T23:49:20Z</time>
            </trkpt>
            <trkpt lon="101.420735" lat="14.172623">
                <ele>18.883057</ele>
                <time>2005-09-23T23:49:27Z</time>
            </trkpt>
            <trkpt lon="101.420738" lat="14.172625">
                <ele>18.883057</ele>
                <time>2005-09-23T23:49:37Z</time>
            </trkpt>
            <trkpt lon="101.420756" lat="14.172607">
                <ele>18.402344</ele>
                <time>2005-09-23T23:49:44Z</time>
            </trkpt>
            <trkpt lon="101.420894" lat="14.172620">
                <ele>17.921753</ele>
                <time>2005-09-23T23:49:52Z</time>
            </trkpt>
            <trkpt lon="101.421148" lat="14.172708">
                <ele>17.441162</ele>
                <time>2005-09-23T23:50:01Z</time>
            </trkpt>
            <trkpt lon="101.421392" lat="14.172867">
                <ele>16.960449</ele>
                <time>2005-09-23T23:50:09Z</time>
            </trkpt>
            <trkpt lon="101.421586" lat="14.173144">
                <ele>17.921753</ele>
                <time>2005-09-23T23:50:18Z</time>
            </trkpt>
            <trkpt lon="101.421584" lat="14.173397">
                <ele>17.921753</ele>
                <time>2005-09-23T23:50:25Z</time>
            </trkpt>
            <trkpt lon="101.421636" lat="14.173523">
                <ele>16.960449</ele>
                <time>2005-09-23T23:50:29Z</time>
            </trkpt>
            <trkpt lon="101.421812" lat="14.173510">
                <ele>16.960449</ele>
                <time>2005-09-23T23:50:34Z</time>
            </trkpt>
            <trkpt lon="101.422049" lat="14.173491">
                <ele>17.441162</ele>
                <time>2005-09-23T23:50:41Z</time>
            </trkpt>
            <trkpt lon="101.422200" lat="14.173663">
                <ele>17.441162</ele>
                <time>2005-09-23T23:50:48Z</time>
            </trkpt>
            <trkpt lon="101.422466" lat="14.173970">
                <ele>17.921753</ele>
                <time>2005-09-23T23:50:59Z</time>
            </trkpt>
            <trkpt lon="101.422701" lat="14.174149">
                <ele>17.921753</ele>
                <time>2005-09-23T23:51:08Z</time>
            </trkpt>
            <trkpt lon="101.422952" lat="14.174205">
                <ele>18.402344</ele>
                <time>2005-09-23T23:51:16Z</time>
            </trkpt>
            <trkpt lon="101.423289" lat="14.174321">
                <ele>17.921753</ele>
                <time>2005-09-23T23:51:26Z</time>
            </trkpt>
            <trkpt lon="101.423471" lat="14.174552">
                <ele>17.921753</ele>
                <time>2005-09-23T23:51:34Z</time>
            </trkpt>
            <trkpt lon="101.423489" lat="14.174574">
                <ele>18.883057</ele>
                <time>2005-09-23T23:51:36Z</time>
            </trkpt>
            <trkpt lon="101.423506" lat="14.174593">
                <ele>18.883057</ele>
                <time>2005-09-23T23:51:43Z</time>
            </trkpt>
            <trkpt lon="101.423613" lat="14.174671">
                <ele>18.402344</ele>
                <time>2005-09-23T23:51:50Z</time>
            </trkpt>
            <trkpt lon="101.423740" lat="14.174734">
                <ele>19.844360</ele>
                <time>2005-09-23T23:51:59Z</time>
            </trkpt>
            <trkpt lon="101.423782" lat="14.174762">
                <ele>20.324951</ele>
                <time>2005-09-23T23:52:10Z</time>
            </trkpt>
            <trkpt lon="101.423807" lat="14.174780">
                <ele>19.844360</ele>
                <time>2005-09-23T23:52:12Z</time>
            </trkpt>
            <trkpt lon="101.423875" lat="14.174741">
                <ele>20.324951</ele>
                <time>2005-09-23T23:52:19Z</time>
            </trkpt>
            <trkpt lon="101.423876" lat="14.174739">
                <ele>19.844360</ele>
                <time>2005-09-23T23:52:26Z</time>
            </trkpt>
            <trkpt lon="101.423879" lat="14.174740">
                <ele>19.363770</ele>
                <time>2005-09-23T23:52:39Z</time>
            </trkpt>
            <trkpt lon="101.423884" lat="14.174769">
                <ele>19.363770</ele>
                <time>2005-09-23T23:52:53Z</time>
            </trkpt>
            <trkpt lon="101.423899" lat="14.174789">
                <ele>19.363770</ele>
                <time>2005-09-23T23:53:04Z</time>
            </trkpt>
            <trkpt lon="101.423853" lat="14.174784">
                <ele>19.844360</ele>
                <time>2005-09-23T23:53:17Z</time>
            </trkpt>
            <trkpt lon="101.423810" lat="14.174760">
                <ele>19.363770</ele>
                <time>2005-09-23T23:53:24Z</time>
            </trkpt>
            <trkpt lon="101.423802" lat="14.174761">
                <ele>19.844360</ele>
                <time>2005-09-23T23:53:33Z</time>
            </trkpt>
            <trkpt lon="101.423775" lat="14.174783">
                <ele>19.363770</ele>
                <time>2005-09-23T23:53:41Z</time>
            </trkpt>
            <trkpt lon="101.423797" lat="14.174767">
                <ele>19.844360</ele>
                <time>2005-09-23T23:53:54Z</time>
            </trkpt>
            <trkpt lon="101.423772" lat="14.174743">
                <ele>19.844360</ele>
                <time>2005-09-23T23:53:57Z</time>
            </trkpt>
            <trkpt lon="101.423704" lat="14.174694">
                <ele>18.883057</ele>
                <time>2005-09-23T23:54:08Z</time>
            </trkpt>
            <trkpt lon="101.423686" lat="14.174694">
                <ele>18.883057</ele>
                <time>2005-09-23T23:54:22Z</time>
            </trkpt>
            <trkpt lon="101.423669" lat="14.174703">
                <ele>18.883057</ele>
                <time>2005-09-23T23:54:30Z</time>
            </trkpt>
            <trkpt lon="101.423684" lat="14.174703">
                <ele>19.363770</ele>
                <time>2005-09-23T23:54:39Z</time>
            </trkpt>
            <trkpt lon="101.423688" lat="14.174697">
                <ele>19.363770</ele>
                <time>2005-09-23T23:54:45Z</time>
            </trkpt>
            <trkpt lon="101.423717" lat="14.174712">
                <ele>19.363770</ele>
                <time>2005-09-23T23:54:55Z</time>
            </trkpt>
            <trkpt lon="101.423731" lat="14.174712">
                <ele>19.363770</ele>
                <time>2005-09-23T23:55:04Z</time>
            </trkpt>
            <trkpt lon="101.423800" lat="14.174740">
                <ele>19.844360</ele>
                <time>2005-09-23T23:55:10Z</time>
            </trkpt>
            <trkpt lon="101.423829" lat="14.174724">
                <ele>19.363770</ele>
                <time>2005-09-23T23:55:20Z</time>
            </trkpt>
            <trkpt lon="101.423837" lat="14.174730">
                <ele>19.844360</ele>
                <time>2005-09-23T23:55:31Z</time>
            </trkpt>
            <trkpt lon="101.423879" lat="14.174707">
                <ele>19.363770</ele>
                <time>2005-09-23T23:55:39Z</time>
            </trkpt>
            <trkpt lon="101.423871" lat="14.174705">
                <ele>19.844360</ele>
                <time>2005-09-23T23:55:41Z</time>
            </trkpt>
            <trkpt lon="101.423855" lat="14.174720">
                <ele>19.844360</ele>
                <time>2005-09-23T23:55:49Z</time>
            </trkpt>
            <trkpt lon="101.423869" lat="14.174723">
                <ele>17.921753</ele>
                <time>2005-09-23T23:56:02Z</time>
            </trkpt>
            <trkpt lon="101.423872" lat="14.174724">
                <ele>19.363770</ele>
                <time>2005-09-23T23:56:05Z</time>
            </trkpt>
            <trkpt lon="101.423891" lat="14.174719">
                <ele>20.324951</ele>
                <time>2005-09-23T23:56:34Z</time>
            </trkpt>
            <trkpt lon="101.424040" lat="14.174596">
                <ele>20.805664</ele>
                <time>2005-09-23T23:56:41Z</time>
            </trkpt>
            <trkpt lon="101.424357" lat="14.174377">
                <ele>20.324951</ele>
                <time>2005-09-23T23:56:50Z</time>
            </trkpt>
            <trkpt lon="101.425044" lat="14.173915">
                <ele>20.805664</ele>
                <time>2005-09-23T23:57:09Z</time>
            </trkpt>
            <trkpt lon="101.425489" lat="14.173616">
                <ele>21.286377</ele>
                <time>2005-09-23T23:57:18Z</time>
            </trkpt>
            <trkpt lon="101.426000" lat="14.173342">
                <ele>21.766968</ele>
                <time>2005-09-23T23:57:27Z</time>
            </trkpt>
            <trkpt lon="101.426608" lat="14.173045">
                <ele>21.766968</ele>
                <time>2005-09-23T23:57:36Z</time>
            </trkpt>
            <trkpt lon="101.427161" lat="14.172723">
                <ele>23.208984</ele>
                <time>2005-09-23T23:57:45Z</time>
            </trkpt>
            <trkpt lon="101.427547" lat="14.172343">
                <ele>22.728271</ele>
                <time>2005-09-23T23:57:52Z</time>
            </trkpt>
            <trkpt lon="101.428268" lat="14.171577">
                <ele>22.247559</ele>
                <time>2005-09-23T23:58:05Z</time>
            </trkpt>
            <trkpt lon="101.428827" lat="14.170958">
                <ele>22.247559</ele>
                <time>2005-09-23T23:58:15Z</time>
            </trkpt>
            <trkpt lon="101.429571" lat="14.170024">
                <ele>20.324951</ele>
                <time>2005-09-23T23:58:30Z</time>
            </trkpt>
            <trkpt lon="101.430067" lat="14.169530">
                <ele>20.324951</ele>
                <time>2005-09-23T23:58:39Z</time>
            </trkpt>
            <trkpt lon="101.430807" lat="14.168988">
                <ele>19.844360</ele>
                <time>2005-09-23T23:58:51Z</time>
            </trkpt>
            <trkpt lon="101.431230" lat="14.168542">
                <ele>19.844360</ele>
                <time>2005-09-23T23:58:59Z</time>
            </trkpt>
            <trkpt lon="101.431906" lat="14.167732">
                <ele>20.324951</ele>
                <time>2005-09-23T23:59:12Z</time>
            </trkpt>
            <trkpt lon="101.432494" lat="14.167096">
                <ele>20.324951</ele>
                <time>2005-09-23T23:59:23Z</time>
            </trkpt>
            <trkpt lon="101.433232" lat="14.166466">
                <ele>20.324951</ele>
                <time>2005-09-23T23:59:35Z</time>
            </trkpt>
            <trkpt lon="101.433770" lat="14.165899">
                <ele>19.844360</ele>
                <time>2005-09-23T23:59:45Z</time>
            </trkpt>
            <trkpt lon="101.434019" lat="14.165538">
                <ele>19.363770</ele>
                <time>2005-09-23T23:59:52Z</time>
            </trkpt>
            <trkpt lon="101.434144" lat="14.165388">
                <ele>18.883057</ele>
                <time>2005-09-23T23:59:58Z</time>
            </trkpt>
            <trkpt lon="101.434150" lat="14.165379">
                <ele>18.402344</ele>
                <time>2005-09-24T00:00:03Z</time>
            </trkpt>
            <trkpt lon="101.434143" lat="14.165366">
                <ele>19.844360</ele>
                <time>2005-09-24T00:04:01Z</time>
            </trkpt>
            <trkpt lon="101.434145" lat="14.165216">
                <ele>20.324951</ele>
                <time>2005-09-24T00:04:08Z</time>
            </trkpt>
            <trkpt lon="101.434133" lat="14.164983">
                <ele>19.363770</ele>
                <time>2005-09-24T00:04:19Z</time>
            </trkpt>
            <trkpt lon="101.434190" lat="14.164744">
                <ele>19.844360</ele>
                <time>2005-09-24T00:04:27Z</time>
            </trkpt>
            <trkpt lon="101.434185" lat="14.164531">
                <ele>19.363770</ele>
                <time>2005-09-24T00:04:35Z</time>
            </trkpt>
            <trkpt lon="101.434169" lat="14.164278">
                <ele>19.363770</ele>
                <time>2005-09-24T00:04:44Z</time>
            </trkpt>
            <trkpt lon="101.434136" lat="14.164025">
                <ele>18.883057</ele>
                <time>2005-09-24T00:04:54Z</time>
            </trkpt>
            <trkpt lon="101.434027" lat="14.163858">
                <ele>19.363770</ele>
                <time>2005-09-24T00:05:00Z</time>
            </trkpt>
            <trkpt lon="101.433716" lat="14.163457">
                <ele>19.363770</ele>
                <time>2005-09-24T00:05:10Z</time>
            </trkpt>
            <trkpt lon="101.433521" lat="14.163107">
                <ele>19.363770</ele>
                <time>2005-09-24T00:05:18Z</time>
            </trkpt>
            <trkpt lon="101.433398" lat="14.162703">
                <ele>19.363770</ele>
                <time>2005-09-24T00:05:26Z</time>
            </trkpt>
            <trkpt lon="101.433365" lat="14.162621">
                <ele>18.402344</ele>
                <time>2005-09-24T00:05:28Z</time>
            </trkpt>
            <trkpt lon="101.433176" lat="14.162419">
                <ele>19.363770</ele>
                <time>2005-09-24T00:05:34Z</time>
            </trkpt>
            <trkpt lon="101.432769" lat="14.162263">
                <ele>18.883057</ele>
                <time>2005-09-24T00:05:43Z</time>
            </trkpt>
            <trkpt lon="101.432547" lat="14.162232">
                <ele>18.883057</ele>
                <time>2005-09-24T00:05:49Z</time>
            </trkpt>
            <trkpt lon="101.432401" lat="14.162048">
                <ele>18.883057</ele>
                <time>2005-09-24T00:05:55Z</time>
            </trkpt>
            <trkpt lon="101.432400" lat="14.161394">
                <ele>18.883057</ele>
                <time>2005-09-24T00:06:06Z</time>
            </trkpt>
            <trkpt lon="101.432393" lat="14.160916">
                <ele>18.402344</ele>
                <time>2005-09-24T00:06:15Z</time>
            </trkpt>
            <trkpt lon="101.432372" lat="14.160826">
                <ele>18.402344</ele>
                <time>2005-09-24T00:06:17Z</time>
            </trkpt>
            <trkpt lon="101.432186" lat="14.160394">
                <ele>19.363770</ele>
                <time>2005-09-24T00:06:26Z</time>
            </trkpt>
            <trkpt lon="101.432123" lat="14.160183">
                <ele>19.363770</ele>
                <time>2005-09-24T00:06:30Z</time>
            </trkpt>
            <trkpt lon="101.432201" lat="14.159858">
                <ele>18.883057</ele>
                <time>2005-09-24T00:06:36Z</time>
            </trkpt>
            <trkpt lon="101.432429" lat="14.159249">
                <ele>18.883057</ele>
                <time>2005-09-24T00:06:46Z</time>
            </trkpt>
            <trkpt lon="101.432629" lat="14.158776">
                <ele>18.402344</ele>
                <time>2005-09-24T00:06:54Z</time>
            </trkpt>
            <trkpt lon="101.432818" lat="14.158145">
                <ele>17.921753</ele>
                <time>2005-09-24T00:07:05Z</time>
            </trkpt>
            <trkpt lon="101.432890" lat="14.157725">
                <ele>17.921753</ele>
                <time>2005-09-24T00:07:12Z</time>
            </trkpt>
            <trkpt lon="101.432832" lat="14.157425">
                <ele>17.441162</ele>
                <time>2005-09-24T00:07:17Z</time>
            </trkpt>
            <trkpt lon="101.432609" lat="14.156908">
                <ele>16.960449</ele>
                <time>2005-09-24T00:07:27Z</time>
            </trkpt>
            <trkpt lon="101.432704" lat="14.156620">
                <ele>16.479736</ele>
                <time>2005-09-24T00:07:33Z</time>
            </trkpt>
            <trkpt lon="101.432749" lat="14.156217">
                <ele>16.960449</ele>
                <time>2005-09-24T00:07:40Z</time>
            </trkpt>
            <trkpt lon="101.432740" lat="14.155528">
                <ele>16.479736</ele>
                <time>2005-09-24T00:07:51Z</time>
            </trkpt>
            <trkpt lon="101.432762" lat="14.154793">
                <ele>15.999023</ele>
                <time>2005-09-24T00:08:03Z</time>
            </trkpt>
            <trkpt lon="101.432764" lat="14.154529">
                <ele>15.999023</ele>
                <time>2005-09-24T00:08:08Z</time>
            </trkpt>
            <trkpt lon="101.432669" lat="14.154395">
                <ele>15.037720</ele>
                <time>2005-09-24T00:08:12Z</time>
            </trkpt>
            <trkpt lon="101.432580" lat="14.154391">
                <ele>15.999023</ele>
                <time>2005-09-24T00:08:14Z</time>
            </trkpt>
            <trkpt lon="101.432386" lat="14.154383">
                <ele>15.518433</ele>
                <time>2005-09-24T00:08:20Z</time>
            </trkpt>
            <trkpt lon="101.432155" lat="14.154311">
                <ele>15.037720</ele>
                <time>2005-09-24T00:08:27Z</time>
            </trkpt>
            <trkpt lon="101.432010" lat="14.154042">
                <ele>15.999023</ele>
                <time>2005-09-24T00:08:34Z</time>
            </trkpt>
            <trkpt lon="101.431931" lat="14.153883">
                <ele>15.518433</ele>
                <time>2005-09-24T00:08:39Z</time>
            </trkpt>
            <trkpt lon="101.431833" lat="14.153669">
                <ele>15.999023</ele>
                <time>2005-09-24T00:08:46Z</time>
            </trkpt>
            <trkpt lon="101.431713" lat="14.153455">
                <ele>15.037720</ele>
                <time>2005-09-24T00:08:53Z</time>
            </trkpt>
            <trkpt lon="101.431633" lat="14.153356">
                <ele>16.479736</ele>
                <time>2005-09-24T00:09:00Z</time>
            </trkpt>
            <trkpt lon="101.431540" lat="14.153227">
                <ele>16.479736</ele>
                <time>2005-09-24T00:09:07Z</time>
            </trkpt>
            <trkpt lon="101.431390" lat="14.153075">
                <ele>16.960449</ele>
                <time>2005-09-24T00:09:15Z</time>
            </trkpt>
            <trkpt lon="101.431173" lat="14.153029">
                <ele>16.479736</ele>
                <time>2005-09-24T00:09:21Z</time>
            </trkpt>
            <trkpt lon="101.430845" lat="14.153040">
                <ele>15.518433</ele>
                <time>2005-09-24T00:09:31Z</time>
            </trkpt>
            <trkpt lon="101.430778" lat="14.153021">
                <ele>15.518433</ele>
                <time>2005-09-24T00:09:36Z</time>
            </trkpt>
            <trkpt lon="101.430805" lat="14.153065">
                <ele>15.037720</ele>
                <time>2005-09-24T00:10:53Z</time>
            </trkpt>
            <trkpt lon="101.430808" lat="14.153074">
                <ele>15.037720</ele>
                <time>2005-09-24T00:11:08Z</time>
            </trkpt>
            <trkpt lon="101.430802" lat="14.153078">
                <ele>14.557007</ele>
                <time>2005-09-24T00:11:19Z</time>
            </trkpt>
            <trkpt lon="101.430768" lat="14.153061">
                <ele>14.076416</ele>
                <time>2005-09-24T00:16:16Z</time>
            </trkpt>
            <trkpt lon="101.430730" lat="14.153067">
                <ele>14.076416</ele>
                <time>2005-09-24T00:16:29Z</time>
            </trkpt>
            <trkpt lon="101.430643" lat="14.153113">
                <ele>13.595825</ele>
                <time>2005-09-24T00:16:36Z</time>
            </trkpt>
            <trkpt lon="101.430541" lat="14.153132">
                <ele>13.595825</ele>
                <time>2005-09-24T00:16:45Z</time>
            </trkpt>
            <trkpt lon="101.430447" lat="14.153125">
                <ele>13.595825</ele>
                <time>2005-09-24T00:16:53Z</time>
            </trkpt>
            <trkpt lon="101.430334" lat="14.153052">
                <ele>13.595825</ele>
                <time>2005-09-24T00:17:03Z</time>
            </trkpt>
            <trkpt lon="101.430314" lat="14.153036">
                <ele>13.115112</ele>
                <time>2005-09-24T00:17:08Z</time>
            </trkpt>
            <trkpt lon="101.430231" lat="14.153023">
                <ele>13.115112</ele>
                <time>2005-09-24T00:17:17Z</time>
            </trkpt>
            <trkpt lon="101.430164" lat="14.153009">
                <ele>13.595825</ele>
                <time>2005-09-24T00:17:25Z</time>
            </trkpt>
            <trkpt lon="101.430098" lat="14.152994">
                <ele>13.595825</ele>
                <time>2005-09-24T00:17:33Z</time>
            </trkpt>
            <trkpt lon="101.430084" lat="14.152995">
                <ele>14.076416</ele>
                <time>2005-09-24T00:17:42Z</time>
            </trkpt>
            <trkpt lon="101.430046" lat="14.152973">
                <ele>14.076416</ele>
                <time>2005-09-24T00:17:51Z</time>
            </trkpt>
            <trkpt lon="101.430014" lat="14.152960">
                <ele>13.595825</ele>
                <time>2005-09-24T00:17:57Z</time>
            </trkpt>
            <trkpt lon="101.430008" lat="14.152953">
                <ele>13.595825</ele>
                <time>2005-09-24T00:17:58Z</time>
            </trkpt>
            <trkpt lon="101.429927" lat="14.152840">
                <ele>14.076416</ele>
                <time>2005-09-24T00:18:07Z</time>
            </trkpt>
            <trkpt lon="101.429795" lat="14.152686">
                <ele>15.037720</ele>
                <time>2005-09-24T00:18:16Z</time>
            </trkpt>
            <trkpt lon="101.429680" lat="14.152609">
                <ele>14.557007</ele>
                <time>2005-09-24T00:18:23Z</time>
            </trkpt>
            <trkpt lon="101.429558" lat="14.152689">
                <ele>14.557007</ele>
                <time>2005-09-24T00:18:31Z</time>
            </trkpt>
            <trkpt lon="101.429366" lat="14.152831">
                <ele>14.557007</ele>
                <time>2005-09-24T00:18:41Z</time>
            </trkpt>
            <trkpt lon="101.429156" lat="14.152976">
                <ele>15.518433</ele>
                <time>2005-09-24T00:18:52Z</time>
            </trkpt>
            <trkpt lon="101.428917" lat="14.153136">
                <ele>15.037720</ele>
                <time>2005-09-24T00:19:04Z</time>
            </trkpt>
            <trkpt lon="101.428814" lat="14.153204">
                <ele>15.037720</ele>
                <time>2005-09-24T00:19:11Z</time>
            </trkpt>
            <trkpt lon="101.428799" lat="14.153255">
                <ele>15.037720</ele>
                <time>2005-09-24T00:19:15Z</time>
            </trkpt>
            <trkpt lon="101.428832" lat="14.153416">
                <ele>14.557007</ele>
                <time>2005-09-24T00:19:23Z</time>
            </trkpt>
            <trkpt lon="101.428880" lat="14.153585">
                <ele>13.595825</ele>
                <time>2005-09-24T00:19:30Z</time>
            </trkpt>
            <trkpt lon="101.428936" lat="14.153822">
                <ele>13.115112</ele>
                <time>2005-09-24T00:19:39Z</time>
            </trkpt>
            <trkpt lon="101.429015" lat="14.154015">
                <ele>12.153809</ele>
                <time>2005-09-24T00:19:48Z</time>
            </trkpt>
            <trkpt lon="101.429022" lat="14.154118">
                <ele>12.634399</ele>
                <time>2005-09-24T00:19:55Z</time>
            </trkpt>
            <trkpt lon="101.428998" lat="14.154163">
                <ele>12.153809</ele>
                <time>2005-09-24T00:20:02Z</time>
            </trkpt>
            <trkpt lon="101.428978" lat="14.154226">
                <ele>12.634399</ele>
                <time>2005-09-24T00:20:09Z</time>
            </trkpt>
            <trkpt lon="101.428944" lat="14.154272">
                <ele>12.634399</ele>
                <time>2005-09-24T00:20:18Z</time>
            </trkpt>
            <trkpt lon="101.428803" lat="14.154274">
                <ele>12.634399</ele>
                <time>2005-09-24T00:20:27Z</time>
            </trkpt>
            <trkpt lon="101.428653" lat="14.154277">
                <ele>13.115112</ele>
                <time>2005-09-24T00:20:35Z</time>
            </trkpt>
            <trkpt lon="101.428503" lat="14.154296">
                <ele>13.595825</ele>
                <time>2005-09-24T00:20:44Z</time>
            </trkpt>
            <trkpt lon="101.428452" lat="14.154389">
                <ele>12.634399</ele>
                <time>2005-09-24T00:20:49Z</time>
            </trkpt>
            <trkpt lon="101.428446" lat="14.154416">
                <ele>12.634399</ele>
                <time>2005-09-24T00:20:50Z</time>
            </trkpt>
            <trkpt lon="101.428417" lat="14.154529">
                <ele>12.634399</ele>
                <time>2005-09-24T00:20:57Z</time>
            </trkpt>
            <trkpt lon="101.428396" lat="14.154585">
                <ele>12.634399</ele>
                <time>2005-09-24T00:21:02Z</time>
            </trkpt>
            <trkpt lon="101.428304" lat="14.154600">
                <ele>12.634399</ele>
                <time>2005-09-24T00:21:10Z</time>
            </trkpt>
            <trkpt lon="101.428208" lat="14.154629">
                <ele>13.115112</ele>
                <time>2005-09-24T00:21:17Z</time>
            </trkpt>
            <trkpt lon="101.428059" lat="14.154619">
                <ele>13.115112</ele>
                <time>2005-09-24T00:21:25Z</time>
            </trkpt>
            <trkpt lon="101.427908" lat="14.154532">
                <ele>13.115112</ele>
                <time>2005-09-24T00:21:32Z</time>
            </trkpt>
            <trkpt lon="101.427741" lat="14.154531">
                <ele>14.076416</ele>
                <time>2005-09-24T00:21:39Z</time>
            </trkpt>
            <trkpt lon="101.427641" lat="14.154657">
                <ele>15.037720</ele>
                <time>2005-09-24T00:21:47Z</time>
            </trkpt>
            <trkpt lon="101.427621" lat="14.154825">
                <ele>15.518433</ele>
                <time>2005-09-24T00:21:54Z</time>
            </trkpt>
            <trkpt lon="101.427573" lat="14.155026">
                <ele>15.518433</ele>
                <time>2005-09-24T00:22:03Z</time>
            </trkpt>
            <trkpt lon="101.427548" lat="14.155078">
                <ele>15.999023</ele>
                <time>2005-09-24T00:22:09Z</time>
            </trkpt>
            <trkpt lon="101.427486" lat="14.155133">
                <ele>15.037720</ele>
                <time>2005-09-24T00:22:15Z</time>
            </trkpt>
            <trkpt lon="101.427352" lat="14.155137">
                <ele>15.037720</ele>
                <time>2005-09-24T00:22:22Z</time>
            </trkpt>
            <trkpt lon="101.427165" lat="14.155078">
                <ele>15.518433</ele>
                <time>2005-09-24T00:22:29Z</time>
            </trkpt>
            <trkpt lon="101.426876" lat="14.154993">
                <ele>16.960449</ele>
                <time>2005-09-24T00:22:39Z</time>
            </trkpt>
            <trkpt lon="101.426548" lat="14.154893">
                <ele>17.441162</ele>
                <time>2005-09-24T00:22:50Z</time>
            </trkpt>
            <trkpt lon="101.426044" lat="14.154765">
                <ele>18.883057</ele>
                <time>2005-09-24T00:23:06Z</time>
            </trkpt>
            <trkpt lon="101.425873" lat="14.154716">
                <ele>20.324951</ele>
                <time>2005-09-24T00:23:12Z</time>
            </trkpt>
            <trkpt lon="101.425615" lat="14.154648">
                <ele>21.286377</ele>
                <time>2005-09-24T00:23:23Z</time>
            </trkpt>
            <trkpt lon="101.425523" lat="14.154627">
                <ele>23.208984</ele>
                <time>2005-09-24T00:23:30Z</time>
            </trkpt>
            <trkpt lon="101.425536" lat="14.154614">
                <ele>21.766968</ele>
                <time>2005-09-24T00:23:35Z</time>
            </trkpt>
            <trkpt lon="101.425616" lat="14.154508">
                <ele>21.766968</ele>
                <time>2005-09-24T00:23:41Z</time>
            </trkpt>
            <trkpt lon="101.425613" lat="14.154475">
                <ele>21.766968</ele>
                <time>2005-09-24T00:23:47Z</time>
            </trkpt>
            <trkpt lon="101.425610" lat="14.154476">
                <ele>20.805664</ele>
                <time>2005-09-24T00:23:58Z</time>
            </trkpt>
            <trkpt lon="101.425571" lat="14.154530">
                <ele>22.728271</ele>
                <time>2005-09-24T00:26:03Z</time>
            </trkpt>
            <trkpt lon="101.425567" lat="14.154538">
                <ele>22.247559</ele>
                <time>2005-09-24T00:26:06Z</time>
            </trkpt>
            <trkpt lon="101.425494" lat="14.154639">
                <ele>22.247559</ele>
                <time>2005-09-24T00:26:14Z</time>
            </trkpt>
            <trkpt lon="101.425473" lat="14.154656">
                <ele>23.208984</ele>
                <time>2005-09-24T00:26:16Z</time>
            </trkpt>
            <trkpt lon="101.425391" lat="14.154571">
                <ele>23.208984</ele>
                <time>2005-09-24T00:26:22Z</time>
            </trkpt>
            <trkpt lon="101.425363" lat="14.154518">
                <ele>23.208984</ele>
                <time>2005-09-24T00:26:24Z</time>
            </trkpt>
            <trkpt lon="101.425152" lat="14.154289">
                <ele>24.170288</ele>
                <time>2005-09-24T00:26:34Z</time>
            </trkpt>
            <trkpt lon="101.424870" lat="14.154079">
                <ele>25.612305</ele>
                <time>2005-09-24T00:26:45Z</time>
            </trkpt>
            <trkpt lon="101.424769" lat="14.154059">
                <ele>26.573608</ele>
                <time>2005-09-24T00:26:50Z</time>
            </trkpt>
            <trkpt lon="101.424728" lat="14.154206">
                <ele>26.092896</ele>
                <time>2005-09-24T00:26:58Z</time>
            </trkpt>
            <trkpt lon="101.424731" lat="14.154418">
                <ele>24.651001</ele>
                <time>2005-09-24T00:27:06Z</time>
            </trkpt>
            <trkpt lon="101.424684" lat="14.154587">
                <ele>24.170288</ele>
                <time>2005-09-24T00:27:13Z</time>
            </trkpt>
            <trkpt lon="101.424694" lat="14.154602">
                <ele>24.170288</ele>
                <time>2005-09-24T00:27:20Z</time>
            </trkpt>
            <trkpt lon="101.424566" lat="14.154725">
                <ele>23.208984</ele>
                <time>2005-09-24T00:27:27Z</time>
            </trkpt>
            <trkpt lon="101.424300" lat="14.154755">
                <ele>23.208984</ele>
                <time>2005-09-24T00:27:36Z</time>
            </trkpt>
            <trkpt lon="101.423922" lat="14.154772">
                <ele>21.766968</ele>
                <time>2005-09-24T00:27:47Z</time>
            </trkpt>
            <trkpt lon="101.423416" lat="14.154827">
                <ele>20.324951</ele>
                <time>2005-09-24T00:27:59Z</time>
            </trkpt>
            <trkpt lon="101.423047" lat="14.154884">
                <ele>20.324951</ele>
                <time>2005-09-24T00:28:08Z</time>
            </trkpt>
            <trkpt lon="101.422904" lat="14.154901">
                <ele>20.805664</ele>
                <time>2005-09-24T00:28:14Z</time>
            </trkpt>
            <trkpt lon="101.422820" lat="14.154880">
                <ele>21.286377</ele>
                <time>2005-09-24T00:28:20Z</time>
            </trkpt>
            <trkpt lon="101.422675" lat="14.154900">
                <ele>22.728271</ele>
                <time>2005-09-24T00:28:30Z</time>
            </trkpt>
            <trkpt lon="101.422530" lat="14.154954">
                <ele>23.689575</ele>
                <time>2005-09-24T00:28:39Z</time>
            </trkpt>
            <trkpt lon="101.422520" lat="14.154966">
                <ele>23.689575</ele>
                <time>2005-09-24T00:28:40Z</time>
            </trkpt>
            <trkpt lon="101.422342" lat="14.155051">
                <ele>25.131714</ele>
                <time>2005-09-24T00:28:51Z</time>
            </trkpt>
            <trkpt lon="101.422162" lat="14.155103">
                <ele>26.092896</ele>
                <time>2005-09-24T00:29:01Z</time>
            </trkpt>
            <trkpt lon="101.421929" lat="14.155135">
                <ele>28.976929</ele>
                <time>2005-09-24T00:29:14Z</time>
            </trkpt>
            <trkpt lon="101.421860" lat="14.155154">
                <ele>29.938110</ele>
                <time>2005-09-24T00:29:19Z</time>
            </trkpt>
            <trkpt lon="101.421685" lat="14.155221">
                <ele>30.899536</ele>
                <time>2005-09-24T00:29:32Z</time>
            </trkpt>
            <trkpt lon="101.421461" lat="14.155257">
                <ele>32.341553</ele>
                <time>2005-09-24T00:29:44Z</time>
            </trkpt>
            <trkpt lon="101.421298" lat="14.155278">
                <ele>32.822266</ele>
                <time>2005-09-24T00:29:53Z</time>
            </trkpt>
            <trkpt lon="101.421137" lat="14.155282">
                <ele>33.783447</ele>
                <time>2005-09-24T00:30:00Z</time>
            </trkpt>
            <trkpt lon="101.420995" lat="14.155256">
                <ele>34.744873</ele>
                <time>2005-09-24T00:30:07Z</time>
            </trkpt>
            <trkpt lon="101.420840" lat="14.155109">
                <ele>35.706055</ele>
                <time>2005-09-24T00:30:18Z</time>
            </trkpt>
            <trkpt lon="101.420710" lat="14.154959">
                <ele>36.667480</ele>
                <time>2005-09-24T00:30:28Z</time>
            </trkpt>
            <trkpt lon="101.420549" lat="14.154797">
                <ele>37.628662</ele>
                <time>2005-09-24T00:30:41Z</time>
            </trkpt>
            <trkpt lon="101.420394" lat="14.154638">
                <ele>38.590088</ele>
                <time>2005-09-24T00:30:54Z</time>
            </trkpt>
            <trkpt lon="101.420253" lat="14.154433">
                <ele>40.032104</ele>
                <time>2005-09-24T00:31:06Z</time>
            </trkpt>
            <trkpt lon="101.420235" lat="14.154211">
                <ele>40.512817</ele>
                <time>2005-09-24T00:31:17Z</time>
            </trkpt>
            <trkpt lon="101.420162" lat="14.154100">
                <ele>40.993408</ele>
                <time>2005-09-24T00:31:24Z</time>
            </trkpt>
            <trkpt lon="101.420101" lat="14.154017">
                <ele>42.435425</ele>
                <time>2005-09-24T00:31:29Z</time>
            </trkpt>
            <trkpt lon="101.420001" lat="14.153996">
                <ele>41.954712</ele>
                <time>2005-09-24T00:31:37Z</time>
            </trkpt>
            <trkpt lon="101.419945" lat="14.154037">
                <ele>41.954712</ele>
                <time>2005-09-24T00:31:45Z</time>
            </trkpt>
            <trkpt lon="101.419918" lat="14.154049">
                <ele>41.954712</ele>
                <time>2005-09-24T00:31:57Z</time>
            </trkpt>
            <trkpt lon="101.419857" lat="14.154048">
                <ele>42.435425</ele>
                <time>2005-09-24T00:32:23Z</time>
            </trkpt>
            <trkpt lon="101.419818" lat="14.154051">
                <ele>42.916016</ele>
                <time>2005-09-24T00:32:27Z</time>
            </trkpt>
            <trkpt lon="101.419758" lat="14.154050">
                <ele>42.435425</ele>
                <time>2005-09-24T00:32:32Z</time>
            </trkpt>
            <trkpt lon="101.419626" lat="14.154026">
                <ele>42.916016</ele>
                <time>2005-09-24T00:32:43Z</time>
            </trkpt>
            <trkpt lon="101.419544" lat="14.154022">
                <ele>42.435425</ele>
                <time>2005-09-24T00:32:50Z</time>
            </trkpt>
            <trkpt lon="101.419426" lat="14.153914">
                <ele>43.396606</ele>
                <time>2005-09-24T00:33:02Z</time>
            </trkpt>
            <trkpt lon="101.419310" lat="14.153770">
                <ele>43.877319</ele>
                <time>2005-09-24T00:33:13Z</time>
            </trkpt>
            <trkpt lon="101.419240" lat="14.153637">
                <ele>44.358032</ele>
                <time>2005-09-24T00:33:23Z</time>
            </trkpt>
            <trkpt lon="101.419164" lat="14.153451">
                <ele>44.838623</ele>
                <time>2005-09-24T00:33:34Z</time>
            </trkpt>
            <trkpt lon="101.419059" lat="14.153306">
                <ele>45.319214</ele>
                <time>2005-09-24T00:33:43Z</time>
            </trkpt>
            <trkpt lon="101.418929" lat="14.153123">
                <ele>45.319214</ele>
                <time>2005-09-24T00:33:53Z</time>
            </trkpt>
            <trkpt lon="101.418844" lat="14.152936">
                <ele>45.799927</ele>
                <time>2005-09-24T00:34:03Z</time>
            </trkpt>
            <trkpt lon="101.418831" lat="14.152909">
                <ele>45.799927</ele>
                <time>2005-09-24T00:34:05Z</time>
            </trkpt>
            <trkpt lon="101.418767" lat="14.152854">
                <ele>45.799927</ele>
                <time>2005-09-24T00:34:10Z</time>
            </trkpt>
            <trkpt lon="101.418730" lat="14.152692">
                <ele>45.319214</ele>
                <time>2005-09-24T00:34:20Z</time>
            </trkpt>
            <trkpt lon="101.418679" lat="14.152547">
                <ele>44.838623</ele>
                <time>2005-09-24T00:34:29Z</time>
            </trkpt>
            <trkpt lon="101.418676" lat="14.152538">
                <ele>45.319214</ele>
                <time>2005-09-24T00:34:37Z</time>
            </trkpt>
            <trkpt lon="101.418734" lat="14.152618">
                <ele>44.838623</ele>
                <time>2005-09-24T00:34:47Z</time>
            </trkpt>
            <trkpt lon="101.418730" lat="14.152744">
                <ele>45.319214</ele>
                <time>2005-09-24T00:34:55Z</time>
            </trkpt>
            <trkpt lon="101.418572" lat="14.152782">
                <ele>45.319214</ele>
                <time>2005-09-24T00:35:02Z</time>
            </trkpt>
            <trkpt lon="101.418326" lat="14.152814">
                <ele>44.838623</ele>
                <time>2005-09-24T00:35:11Z</time>
            </trkpt>
            <trkpt lon="101.418086" lat="14.152865">
                <ele>44.838623</ele>
                <time>2005-09-24T00:35:20Z</time>
            </trkpt>
            <trkpt lon="101.417810" lat="14.152976">
                <ele>44.358032</ele>
                <time>2005-09-24T00:35:31Z</time>
            </trkpt>
            <trkpt lon="101.417592" lat="14.153071">
                <ele>45.319214</ele>
                <time>2005-09-24T00:35:40Z</time>
            </trkpt>
            <trkpt lon="101.417404" lat="14.153144">
                <ele>44.358032</ele>
                <time>2005-09-24T00:35:48Z</time>
            </trkpt>
            <trkpt lon="101.417242" lat="14.153211">
                <ele>43.877319</ele>
                <time>2005-09-24T00:35:54Z</time>
            </trkpt>
            <trkpt lon="101.417146" lat="14.153202">
                <ele>43.877319</ele>
                <time>2005-09-24T00:35:57Z</time>
            </trkpt>
            <trkpt lon="101.417039" lat="14.153250">
                <ele>43.396606</ele>
                <time>2005-09-24T00:36:01Z</time>
            </trkpt>
            <trkpt lon="101.416813" lat="14.153324">
                <ele>43.877319</ele>
                <time>2005-09-24T00:36:11Z</time>
            </trkpt>
            <trkpt lon="101.416649" lat="14.153423">
                <ele>43.877319</ele>
                <time>2005-09-24T00:36:18Z</time>
            </trkpt>
            <trkpt lon="101.416406" lat="14.153552">
                <ele>43.396606</ele>
                <time>2005-09-24T00:36:27Z</time>
            </trkpt>
            <trkpt lon="101.416148" lat="14.153668">
                <ele>43.396606</ele>
                <time>2005-09-24T00:36:37Z</time>
            </trkpt>
            <trkpt lon="101.415815" lat="14.153802">
                <ele>43.396606</ele>
                <time>2005-09-24T00:36:47Z</time>
            </trkpt>
            <trkpt lon="101.415491" lat="14.153983">
                <ele>43.396606</ele>
                <time>2005-09-24T00:36:57Z</time>
            </trkpt>
            <trkpt lon="101.415157" lat="14.154140">
                <ele>42.916016</ele>
                <time>2005-09-24T00:37:07Z</time>
            </trkpt>
            <trkpt lon="101.415004" lat="14.154221">
                <ele>42.916016</ele>
                <time>2005-09-24T00:37:12Z</time>
            </trkpt>
            <trkpt lon="101.414696" lat="14.154344">
                <ele>43.396606</ele>
                <time>2005-09-24T00:37:23Z</time>
            </trkpt>
            <trkpt lon="101.414554" lat="14.154403">
                <ele>42.916016</ele>
                <time>2005-09-24T00:37:32Z</time>
            </trkpt>
            <trkpt lon="101.414342" lat="14.154457">
                <ele>43.396606</ele>
                <time>2005-09-24T00:37:43Z</time>
            </trkpt>
            <trkpt lon="101.414146" lat="14.154542">
                <ele>43.396606</ele>
                <time>2005-09-24T00:37:54Z</time>
            </trkpt>
            <trkpt lon="101.413899" lat="14.154656">
                <ele>43.396606</ele>
                <time>2005-09-24T00:38:04Z</time>
            </trkpt>
            <trkpt lon="101.413698" lat="14.154737">
                <ele>43.877319</ele>
                <time>2005-09-24T00:38:13Z</time>
            </trkpt>
            <trkpt lon="101.413480" lat="14.154810">
                <ele>44.838623</ele>
                <time>2005-09-24T00:38:23Z</time>
            </trkpt>
            <trkpt lon="101.413398" lat="14.154888">
                <ele>44.358032</ele>
                <time>2005-09-24T00:38:31Z</time>
            </trkpt>
            <trkpt lon="101.413296" lat="14.154961">
                <ele>45.319214</ele>
                <time>2005-09-24T00:38:39Z</time>
            </trkpt>
            <trkpt lon="101.413094" lat="14.155046">
                <ele>45.799927</ele>
                <time>2005-09-24T00:38:51Z</time>
            </trkpt>
            <trkpt lon="101.412899" lat="14.155126">
                <ele>46.761230</ele>
                <time>2005-09-24T00:39:01Z</time>
            </trkpt>
            <trkpt lon="101.412643" lat="14.155226">
                <ele>48.203369</ele>
                <time>2005-09-24T00:39:13Z</time>
            </trkpt>
            <trkpt lon="101.412402" lat="14.155301">
                <ele>49.645264</ele>
                <time>2005-09-24T00:39:24Z</time>
            </trkpt>
            <trkpt lon="101.412188" lat="14.155367">
                <ele>49.645264</ele>
                <time>2005-09-24T00:39:33Z</time>
            </trkpt>
            <trkpt lon="101.411962" lat="14.155423">
                <ele>50.606567</ele>
                <time>2005-09-24T00:39:43Z</time>
            </trkpt>
            <trkpt lon="101.411740" lat="14.155465">
                <ele>51.087158</ele>
                <time>2005-09-24T00:39:53Z</time>
            </trkpt>
            <trkpt lon="101.411574" lat="14.155495">
                <ele>52.048584</ele>
                <time>2005-09-24T00:40:00Z</time>
            </trkpt>
            <trkpt lon="101.411467" lat="14.155516">
                <ele>53.009766</ele>
                <time>2005-09-24T00:40:08Z</time>
            </trkpt>
            <trkpt lon="101.411339" lat="14.155538">
                <ele>53.009766</ele>
                <time>2005-09-24T00:40:17Z</time>
            </trkpt>
            <trkpt lon="101.411085" lat="14.155585">
                <ele>54.451782</ele>
                <time>2005-09-24T00:40:29Z</time>
            </trkpt>
            <trkpt lon="101.410860" lat="14.155620">
                <ele>55.413086</ele>
                <time>2005-09-24T00:40:40Z</time>
            </trkpt>
            <trkpt lon="101.410645" lat="14.155668">
                <ele>55.893799</ele>
                <time>2005-09-24T00:40:51Z</time>
            </trkpt>
            <trkpt lon="101.410532" lat="14.155669">
                <ele>56.855103</ele>
                <time>2005-09-24T00:41:00Z</time>
            </trkpt>
            <trkpt lon="101.410488" lat="14.155684">
                <ele>56.855103</ele>
                <time>2005-09-24T00:41:06Z</time>
            </trkpt>
            <trkpt lon="101.410268" lat="14.155726">
                <ele>58.297119</ele>
                <time>2005-09-24T00:41:18Z</time>
            </trkpt>
            <trkpt lon="101.410083" lat="14.155777">
                <ele>58.777710</ele>
                <time>2005-09-24T00:41:28Z</time>
            </trkpt>
            <trkpt lon="101.410056" lat="14.155780">
                <ele>58.297119</ele>
                <time>2005-09-24T00:41:38Z</time>
            </trkpt>
            <trkpt lon="101.409977" lat="14.155808">
                <ele>57.335815</ele>
                <time>2005-09-24T00:42:41Z</time>
            </trkpt>
            <trkpt lon="101.409966" lat="14.155850">
                <ele>57.816528</ele>
                <time>2005-09-24T00:42:53Z</time>
            </trkpt>
            <trkpt lon="101.409961" lat="14.155706">
                <ele>58.777710</ele>
                <time>2005-09-24T00:46:13Z</time>
            </trkpt>
            <trkpt lon="101.409838" lat="14.155728">
                <ele>58.777710</ele>
                <time>2005-09-24T00:46:21Z</time>
            </trkpt>
            <trkpt lon="101.409694" lat="14.155656">
                <ele>57.816528</ele>
                <time>2005-09-24T00:46:28Z</time>
            </trkpt>
            <trkpt lon="101.409487" lat="14.155502">
                <ele>56.374512</ele>
                <time>2005-09-24T00:46:36Z</time>
            </trkpt>
            <trkpt lon="101.409323" lat="14.155340">
                <ele>55.413086</ele>
                <time>2005-09-24T00:46:45Z</time>
            </trkpt>
            <trkpt lon="101.409274" lat="14.155294">
                <ele>54.451782</ele>
                <time>2005-09-24T00:46:47Z</time>
            </trkpt>
            <trkpt lon="101.409069" lat="14.155290">
                <ele>53.971191</ele>
                <time>2005-09-24T00:46:54Z</time>
            </trkpt>
            <trkpt lon="101.408928" lat="14.155275">
                <ele>53.490479</ele>
                <time>2005-09-24T00:47:00Z</time>
            </trkpt>
            <trkpt lon="101.408695" lat="14.155203">
                <ele>51.087158</ele>
                <time>2005-09-24T00:47:07Z</time>
            </trkpt>
            <trkpt lon="101.408522" lat="14.155166">
                <ele>51.087158</ele>
                <time>2005-09-24T00:47:13Z</time>
            </trkpt>
            <trkpt lon="101.408336" lat="14.155102">
                <ele>51.567871</ele>
                <time>2005-09-24T00:47:20Z</time>
            </trkpt>
            <trkpt lon="101.408010" lat="14.155011">
                <ele>51.087158</ele>
                <time>2005-09-24T00:47:30Z</time>
            </trkpt>
            <trkpt lon="101.407677" lat="14.154921">
                <ele>51.087158</ele>
                <time>2005-09-24T00:47:39Z</time>
            </trkpt>
            <trkpt lon="101.407428" lat="14.154844">
                <ele>51.567871</ele>
                <time>2005-09-24T00:47:46Z</time>
            </trkpt>
            <trkpt lon="101.407039" lat="14.154731">
                <ele>51.567871</ele>
                <time>2005-09-24T00:47:56Z</time>
            </trkpt>
            <trkpt lon="101.406745" lat="14.154641">
                <ele>51.087158</ele>
                <time>2005-09-24T00:48:04Z</time>
            </trkpt>
            <trkpt lon="101.406362" lat="14.154529">
                <ele>51.087158</ele>
                <time>2005-09-24T00:48:14Z</time>
            </trkpt>
            <trkpt lon="101.405936" lat="14.154407">
                <ele>51.087158</ele>
                <time>2005-09-24T00:48:25Z</time>
            </trkpt>
            <trkpt lon="101.405470" lat="14.154272">
                <ele>51.087158</ele>
                <time>2005-09-24T00:48:36Z</time>
            </trkpt>
            <trkpt lon="101.405165" lat="14.154187">
                <ele>51.087158</ele>
                <time>2005-09-24T00:48:44Z</time>
            </trkpt>
            <trkpt lon="101.404836" lat="14.154088">
                <ele>51.087158</ele>
                <time>2005-09-24T00:48:53Z</time>
            </trkpt>
            <trkpt lon="101.404456" lat="14.153971">
                <ele>51.087158</ele>
                <time>2005-09-24T00:49:03Z</time>
            </trkpt>
            <trkpt lon="101.404184" lat="14.153905">
                <ele>51.567871</ele>
                <time>2005-09-24T00:49:11Z</time>
            </trkpt>
            <trkpt lon="101.404073" lat="14.153910">
                <ele>53.009766</ele>
                <time>2005-09-24T00:49:18Z</time>
            </trkpt>
            <trkpt lon="101.404061" lat="14.153919">
                <ele>53.490479</ele>
                <time>2005-09-24T00:49:19Z</time>
            </trkpt>
            <trkpt lon="101.404093" lat="14.153958">
                <ele>53.490479</ele>
                <time>2005-09-24T00:49:24Z</time>
            </trkpt>
            <trkpt lon="101.404123" lat="14.153896">
                <ele>53.009766</ele>
                <time>2005-09-24T00:49:27Z</time>
            </trkpt>
            <trkpt lon="101.404194" lat="14.153582">
                <ele>51.567871</ele>
                <time>2005-09-24T00:49:36Z</time>
            </trkpt>
            <trkpt lon="101.404193" lat="14.153388">
                <ele>52.048584</ele>
                <time>2005-09-24T00:49:41Z</time>
            </trkpt>
            <trkpt lon="101.404259" lat="14.153233">
                <ele>51.567871</ele>
                <time>2005-09-24T00:49:45Z</time>
            </trkpt>
            <trkpt lon="101.404308" lat="14.153094">
                <ele>52.048584</ele>
                <time>2005-09-24T00:49:49Z</time>
            </trkpt>
            <trkpt lon="101.404218" lat="14.153124">
                <ele>52.048584</ele>
                <time>2005-09-24T00:49:54Z</time>
            </trkpt>
            <trkpt lon="101.404100" lat="14.153308">
                <ele>52.529175</ele>
                <time>2005-09-24T00:50:04Z</time>
            </trkpt>
            <trkpt lon="101.404035" lat="14.153329">
                <ele>52.529175</ele>
                <time>2005-09-24T00:50:11Z</time>
            </trkpt>
            <trkpt lon="101.404034" lat="14.153324">
                <ele>53.490479</ele>
                <time>2005-09-24T00:50:19Z</time>
            </trkpt>
            <trkpt lon="101.404032" lat="14.153319">
                <ele>52.048584</ele>
                <time>2005-09-24T00:50:35Z</time>
            </trkpt>
            <trkpt lon="101.404004" lat="14.153318">
                <ele>52.529175</ele>
                <time>2005-09-24T00:50:48Z</time>
            </trkpt>
            <trkpt lon="101.403994" lat="14.153322">
                <ele>53.009766</ele>
                <time>2005-09-24T00:50:58Z</time>
            </trkpt>
            <trkpt lon="101.404001" lat="14.153317">
                <ele>53.490479</ele>
                <time>2005-09-24T00:51:13Z</time>
            </trkpt>
            <trkpt lon="101.403985" lat="14.153327">
                <ele>53.009766</ele>
                <time>2005-09-24T00:51:26Z</time>
            </trkpt>
            <trkpt lon="101.404011" lat="14.153359">
                <ele>53.009766</ele>
                <time>2005-09-24T00:51:54Z</time>
            </trkpt>
            <trkpt lon="101.404023" lat="14.153325">
                <ele>52.529175</ele>
                <time>2005-09-24T00:52:49Z</time>
            </trkpt>
            <trkpt lon="101.404038" lat="14.153315">
                <ele>52.529175</ele>
                <time>2005-09-24T00:52:51Z</time>
            </trkpt>
            <trkpt lon="101.404078" lat="14.153314">
                <ele>52.529175</ele>
                <time>2005-09-24T00:52:54Z</time>
            </trkpt>
            <trkpt lon="101.404135" lat="14.153409">
                <ele>52.529175</ele>
                <time>2005-09-24T00:53:00Z</time>
            </trkpt>
            <trkpt lon="101.404218" lat="14.153511">
                <ele>52.529175</ele>
                <time>2005-09-24T00:53:08Z</time>
            </trkpt>
            <trkpt lon="101.404278" lat="14.153434">
                <ele>52.048584</ele>
                <time>2005-09-24T00:53:14Z</time>
            </trkpt>
            <trkpt lon="101.404358" lat="14.153231">
                <ele>53.490479</ele>
                <time>2005-09-24T00:53:21Z</time>
            </trkpt>
            <trkpt lon="101.404533" lat="14.152797">
                <ele>53.490479</ele>
                <time>2005-09-24T00:53:33Z</time>
            </trkpt>
            <trkpt lon="101.404687" lat="14.152385">
                <ele>53.971191</ele>
                <time>2005-09-24T00:53:42Z</time>
            </trkpt>
            <trkpt lon="101.404900" lat="14.151829">
                <ele>54.932373</ele>
                <time>2005-09-24T00:53:52Z</time>
            </trkpt>
            <trkpt lon="101.405199" lat="14.151030">
                <ele>54.451782</ele>
                <time>2005-09-24T00:54:05Z</time>
            </trkpt>
            <trkpt lon="101.405431" lat="14.150419">
                <ele>54.451782</ele>
                <time>2005-09-24T00:54:14Z</time>
            </trkpt>
            <trkpt lon="101.405775" lat="14.149472">
                <ele>54.451782</ele>
                <time>2005-09-24T00:54:29Z</time>
            </trkpt>
            <trkpt lon="101.406153" lat="14.148472">
                <ele>54.451782</ele>
                <time>2005-09-24T00:54:44Z</time>
            </trkpt>
            <trkpt lon="101.406424" lat="14.147753">
                <ele>54.451782</ele>
                <time>2005-09-24T00:54:55Z</time>
            </trkpt>
            <trkpt lon="101.406581" lat="14.147317">
                <ele>53.971191</ele>
                <time>2005-09-24T00:55:02Z</time>
            </trkpt>
            <trkpt lon="101.406561" lat="14.147098">
                <ele>52.529175</ele>
                <time>2005-09-24T00:55:07Z</time>
            </trkpt>
            <trkpt lon="101.406495" lat="14.146898">
                <ele>55.413086</ele>
                <time>2005-09-24T00:55:12Z</time>
            </trkpt>
            <trkpt lon="101.406408" lat="14.146893">
                <ele>56.374512</ele>
                <time>2005-09-24T00:55:14Z</time>
            </trkpt>
            <trkpt lon="101.405883" lat="14.147027">
                <ele>58.297119</ele>
                <time>2005-09-24T00:55:22Z</time>
            </trkpt>
            <trkpt lon="101.405563" lat="14.147116">
                <ele>59.258423</ele>
                <time>2005-09-24T00:55:28Z</time>
            </trkpt>
            <trkpt lon="101.405148" lat="14.147216">
                <ele>59.258423</ele>
                <time>2005-09-24T00:55:35Z</time>
            </trkpt>
            <trkpt lon="101.404726" lat="14.147289">
                <ele>59.258423</ele>
                <time>2005-09-24T00:55:41Z</time>
            </trkpt>
            <trkpt lon="101.404287" lat="14.147377">
                <ele>58.297119</ele>
                <time>2005-09-24T00:55:47Z</time>
            </trkpt>
            <trkpt lon="101.404108" lat="14.147499">
                <ele>57.816528</ele>
                <time>2005-09-24T00:55:51Z</time>
            </trkpt>
            <trkpt lon="101.403996" lat="14.147699">
                <ele>56.855103</ele>
                <time>2005-09-24T00:55:55Z</time>
            </trkpt>
            <trkpt lon="101.403825" lat="14.147775">
                <ele>56.374512</ele>
                <time>2005-09-24T00:55:59Z</time>
            </trkpt>
            <trkpt lon="101.403501" lat="14.147702">
                <ele>58.297119</ele>
                <time>2005-09-24T00:56:04Z</time>
            </trkpt>
            <trkpt lon="101.402429" lat="14.147355">
                <ele>59.258423</ele>
                <time>2005-09-24T00:56:18Z</time>
            </trkpt>
            <trkpt lon="101.401654" lat="14.147106">
                <ele>61.661743</ele>
                <time>2005-09-24T00:56:28Z</time>
            </trkpt>
            <trkpt lon="101.401327" lat="14.147010">
                <ele>61.181030</ele>
                <time>2005-09-24T00:56:33Z</time>
            </trkpt>
            <trkpt lon="101.401028" lat="14.147076">
                <ele>62.142334</ele>
                <time>2005-09-24T00:56:38Z</time>
            </trkpt>
            <trkpt lon="101.400848" lat="14.147177">
                <ele>62.142334</ele>
                <time>2005-09-24T00:56:41Z</time>
            </trkpt>
            <trkpt lon="101.400496" lat="14.147220">
                <ele>63.103638</ele>
                <time>2005-09-24T00:56:46Z</time>
            </trkpt>
            <trkpt lon="101.399795" lat="14.147113">
                <ele>66.948975</ele>
                <time>2005-09-24T00:56:55Z</time>
            </trkpt>
            <trkpt lon="101.398935" lat="14.146959">
                <ele>69.352295</ele>
                <time>2005-09-24T00:57:06Z</time>
            </trkpt>
            <trkpt lon="101.398029" lat="14.146838">
                <ele>71.274902</ele>
                <time>2005-09-24T00:57:17Z</time>
            </trkpt>
            <trkpt lon="101.397100" lat="14.146844">
                <ele>73.197632</ele>
                <time>2005-09-24T00:57:28Z</time>
            </trkpt>
            <trkpt lon="101.396758" lat="14.146849">
                <ele>75.120239</ele>
                <time>2005-09-24T00:57:32Z</time>
            </trkpt>
            <trkpt lon="101.395687" lat="14.146827">
                <ele>76.562134</ele>
                <time>2005-09-24T00:57:45Z</time>
            </trkpt>
            <trkpt lon="101.395130" lat="14.146737">
                <ele>78.484741</ele>
                <time>2005-09-24T00:57:52Z</time>
            </trkpt>
            <trkpt lon="101.394473" lat="14.146539">
                <ele>80.888184</ele>
                <time>2005-09-24T00:58:01Z</time>
            </trkpt>
            <trkpt lon="101.393657" lat="14.146357">
                <ele>82.810791</ele>
                <time>2005-09-24T00:58:12Z</time>
            </trkpt>
            <trkpt lon="101.393511" lat="14.146343">
                <ele>83.771973</ele>
                <time>2005-09-24T00:58:14Z</time>
            </trkpt>
            <trkpt lon="101.393212" lat="14.146338">
                <ele>85.694580</ele>
                <time>2005-09-24T00:58:18Z</time>
            </trkpt>
            <trkpt lon="101.392669" lat="14.146378">
                <ele>88.098022</ele>
                <time>2005-09-24T00:58:25Z</time>
            </trkpt>
            <trkpt lon="101.391914" lat="14.146418">
                <ele>89.539917</ele>
                <time>2005-09-24T00:58:35Z</time>
            </trkpt>
            <trkpt lon="101.391529" lat="14.146362">
                <ele>91.943237</ele>
                <time>2005-09-24T00:58:40Z</time>
            </trkpt>
            <trkpt lon="101.390712" lat="14.146213">
                <ele>94.827148</ele>
                <time>2005-09-24T00:58:50Z</time>
            </trkpt>
            <trkpt lon="101.389823" lat="14.146124">
                <ele>98.191895</ele>
                <time>2005-09-24T00:59:00Z</time>
            </trkpt>
            <trkpt lon="101.388670" lat="14.146033">
                <ele>101.075684</ele>
                <time>2005-09-24T00:59:12Z</time>
            </trkpt>
            <trkpt lon="101.387523" lat="14.145929">
                <ele>102.517700</ele>
                <time>2005-09-24T00:59:24Z</time>
            </trkpt>
            <trkpt lon="101.387344" lat="14.145925">
                <ele>102.998291</ele>
                <time>2005-09-24T00:59:26Z</time>
            </trkpt>
            <trkpt lon="101.386878" lat="14.146030">
                <ele>105.401733</ele>
                <time>2005-09-24T00:59:31Z</time>
            </trkpt>
            <trkpt lon="101.386689" lat="14.146092">
                <ele>106.363037</ele>
                <time>2005-09-24T00:59:33Z</time>
            </trkpt>
            <trkpt lon="101.385864" lat="14.146314">
                <ele>107.324341</ele>
                <time>2005-09-24T00:59:42Z</time>
            </trkpt>
            <trkpt lon="101.385120" lat="14.146388">
                <ele>110.688843</ele>
                <time>2005-09-24T00:59:50Z</time>
            </trkpt>
            <trkpt lon="101.384134" lat="14.146531">
                <ele>112.130981</ele>
                <time>2005-09-24T01:00:01Z</time>
            </trkpt>
            <trkpt lon="101.383900" lat="14.146594">
                <ele>113.092285</ele>
                <time>2005-09-24T01:00:04Z</time>
            </trkpt>
            <trkpt lon="101.383627" lat="14.146876">
                <ele>115.014893</ele>
                <time>2005-09-24T01:00:09Z</time>
            </trkpt>
            <trkpt lon="101.383400" lat="14.147422">
                <ele>116.456787</ele>
                <time>2005-09-24T01:00:16Z</time>
            </trkpt>
            <trkpt lon="101.382920" lat="14.147839">
                <ele>118.379395</ele>
                <time>2005-09-24T01:00:23Z</time>
            </trkpt>
            <trkpt lon="101.382134" lat="14.148420">
                <ele>120.302124</ele>
                <time>2005-09-24T01:00:33Z</time>
            </trkpt>
            <trkpt lon="101.381454" lat="14.148892">
                <ele>121.263550</ele>
                <time>2005-09-24T01:00:42Z</time>
            </trkpt>
            <trkpt lon="101.381320" lat="14.149006">
                <ele>121.744141</ele>
                <time>2005-09-24T01:00:44Z</time>
            </trkpt>
            <trkpt lon="101.381098" lat="14.149384">
                <ele>122.224731</ele>
                <time>2005-09-24T01:00:49Z</time>
            </trkpt>
            <trkpt lon="101.381080" lat="14.149687">
                <ele>122.224731</ele>
                <time>2005-09-24T01:00:53Z</time>
            </trkpt>
            <trkpt lon="101.381148" lat="14.149835">
                <ele>123.186157</ele>
                <time>2005-09-24T01:00:55Z</time>
            </trkpt>
            <trkpt lon="101.381840" lat="14.150940">
                <ele>124.628052</ele>
                <time>2005-09-24T01:01:09Z</time>
            </trkpt>
            <trkpt lon="101.382007" lat="14.151262">
                <ele>124.147339</ele>
                <time>2005-09-24T01:01:13Z</time>
            </trkpt>
            <trkpt lon="101.382080" lat="14.152098">
                <ele>121.263550</ele>
                <time>2005-09-24T01:01:23Z</time>
            </trkpt>
            <trkpt lon="101.382332" lat="14.152990">
                <ele>120.302124</ele>
                <time>2005-09-24T01:01:35Z</time>
            </trkpt>
            <trkpt lon="101.382621" lat="14.153842">
                <ele>119.340820</ele>
                <time>2005-09-24T01:01:46Z</time>
            </trkpt>
            <trkpt lon="101.382995" lat="14.154715">
                <ele>116.456787</ele>
                <time>2005-09-24T01:01:57Z</time>
            </trkpt>
            <trkpt lon="101.383190" lat="14.155138">
                <ele>114.053589</ele>
                <time>2005-09-24T01:02:02Z</time>
            </trkpt>
            <trkpt lon="101.383534" lat="14.155927">
                <ele>112.130981</ele>
                <time>2005-09-24T01:02:11Z</time>
            </trkpt>
            <trkpt lon="101.383588" lat="14.156109">
                <ele>112.611572</ele>
                <time>2005-09-24T01:02:13Z</time>
            </trkpt>
            <trkpt lon="101.383597" lat="14.156844">
                <ele>113.092285</ele>
                <time>2005-09-24T01:02:21Z</time>
            </trkpt>
            <trkpt lon="101.383469" lat="14.157535">
                <ele>113.092285</ele>
                <time>2005-09-24T01:02:29Z</time>
            </trkpt>
            <trkpt lon="101.383137" lat="14.158178">
                <ele>116.937500</ele>
                <time>2005-09-24T01:02:37Z</time>
            </trkpt>
            <trkpt lon="101.382734" lat="14.158891">
                <ele>118.379395</ele>
                <time>2005-09-24T01:02:46Z</time>
            </trkpt>
            <trkpt lon="101.382276" lat="14.159750">
                <ele>120.782837</ele>
                <time>2005-09-24T01:02:58Z</time>
            </trkpt>
            <trkpt lon="101.382149" lat="14.159993">
                <ele>121.263550</ele>
                <time>2005-09-24T01:03:02Z</time>
            </trkpt>
            <trkpt lon="101.382150" lat="14.160256">
                <ele>122.224731</ele>
                <time>2005-09-24T01:03:07Z</time>
            </trkpt>
            <trkpt lon="101.382251" lat="14.160311">
                <ele>122.224731</ele>
                <time>2005-09-24T01:03:09Z</time>
            </trkpt>
            <trkpt lon="101.382808" lat="14.160346">
                <ele>123.666748</ele>
                <time>2005-09-24T01:03:18Z</time>
            </trkpt>
            <trkpt lon="101.383541" lat="14.160182">
                <ele>123.186157</ele>
                <time>2005-09-24T01:03:29Z</time>
            </trkpt>
            <trkpt lon="101.384231" lat="14.159890">
                <ele>119.340820</ele>
                <time>2005-09-24T01:03:38Z</time>
            </trkpt>
            <trkpt lon="101.384479" lat="14.159774">
                <ele>116.456787</ele>
                <time>2005-09-24T01:03:41Z</time>
            </trkpt>
            <trkpt lon="101.384563" lat="14.159735">
                <ele>115.495605</ele>
                <time>2005-09-24T01:03:42Z</time>
            </trkpt>
            <trkpt lon="101.384810" lat="14.159727">
                <ele>114.534180</ele>
                <time>2005-09-24T01:03:45Z</time>
            </trkpt>
            <trkpt lon="101.384948" lat="14.159815">
                <ele>113.092285</ele>
                <time>2005-09-24T01:03:47Z</time>
            </trkpt>
            <trkpt lon="101.385278" lat="14.160121">
                <ele>110.688843</ele>
                <time>2005-09-24T01:03:52Z</time>
            </trkpt>
            <trkpt lon="101.385641" lat="14.160195">
                <ele>109.727661</ele>
                <time>2005-09-24T01:03:56Z</time>
            </trkpt>
            <trkpt lon="101.386066" lat="14.160152">
                <ele>104.921021</ele>
                <time>2005-09-24T01:04:00Z</time>
            </trkpt>
            <trkpt lon="101.386378" lat="14.160124">
                <ele>101.075684</ele>
                <time>2005-09-24T01:04:03Z</time>
            </trkpt>
            <trkpt lon="101.386475" lat="14.160121">
                <ele>100.595093</ele>
                <time>2005-09-24T01:04:04Z</time>
            </trkpt>
            <trkpt lon="101.387072" lat="14.160296">
                <ele>96.749878</ele>
                <time>2005-09-24T01:04:11Z</time>
            </trkpt>
            <trkpt lon="101.387157" lat="14.160317">
                <ele>96.269287</ele>
                <time>2005-09-24T01:04:12Z</time>
            </trkpt>
            <trkpt lon="101.387541" lat="14.160316">
                <ele>93.865845</ele>
                <time>2005-09-24T01:04:16Z</time>
            </trkpt>
            <trkpt lon="101.388183" lat="14.160274">
                <ele>91.462524</ele>
                <time>2005-09-24T01:04:23Z</time>
            </trkpt>
            <trkpt lon="101.388447" lat="14.160307">
                <ele>90.501343</ele>
                <time>2005-09-24T01:04:26Z</time>
            </trkpt>
            <trkpt lon="101.389391" lat="14.160714">
                <ele>90.981934</ele>
                <time>2005-09-24T01:04:38Z</time>
            </trkpt>
            <trkpt lon="101.389684" lat="14.160843">
                <ele>91.943237</ele>
                <time>2005-09-24T01:04:42Z</time>
            </trkpt>
            <trkpt lon="101.389775" lat="14.161014">
                <ele>91.943237</ele>
                <time>2005-09-24T01:04:45Z</time>
            </trkpt>
            <trkpt lon="101.389734" lat="14.161379">
                <ele>93.865845</ele>
                <time>2005-09-24T01:04:50Z</time>
            </trkpt>
            <trkpt lon="101.389744" lat="14.161584">
                <ele>96.269287</ele>
                <time>2005-09-24T01:04:53Z</time>
            </trkpt>
            <trkpt lon="101.389902" lat="14.161787">
                <ele>97.711182</ele>
                <time>2005-09-24T01:04:57Z</time>
            </trkpt>
            <trkpt lon="101.390270" lat="14.162034">
                <ele>98.672485</ele>
                <time>2005-09-24T01:05:03Z</time>
            </trkpt>
            <trkpt lon="101.390365" lat="14.162234">
                <ele>100.595093</ele>
                <time>2005-09-24T01:05:06Z</time>
            </trkpt>
            <trkpt lon="101.390386" lat="14.162558">
                <ele>102.998291</ele>
                <time>2005-09-24T01:05:10Z</time>
            </trkpt>
            <trkpt lon="101.390380" lat="14.162897">
                <ele>104.921021</ele>
                <time>2005-09-24T01:05:14Z</time>
            </trkpt>
            <trkpt lon="101.390354" lat="14.163324">
                <ele>108.285645</ele>
                <time>2005-09-24T01:05:19Z</time>
            </trkpt>
            <trkpt lon="101.390342" lat="14.163410">
                <ele>108.766235</ele>
                <time>2005-09-24T01:05:20Z</time>
            </trkpt>
            <trkpt lon="101.390207" lat="14.164006">
                <ele>111.650269</ele>
                <time>2005-09-24T01:05:27Z</time>
            </trkpt>
            <trkpt lon="101.390118" lat="14.164251">
                <ele>113.572998</ele>
                <time>2005-09-24T01:05:30Z</time>
            </trkpt>
            <trkpt lon="101.389945" lat="14.164635">
                <ele>116.937500</ele>
                <time>2005-09-24T01:05:35Z</time>
            </trkpt>
            <trkpt lon="101.389774" lat="14.165021">
                <ele>120.302124</ele>
                <time>2005-09-24T01:05:40Z</time>
            </trkpt>
            <trkpt lon="101.389671" lat="14.165250">
                <ele>122.705444</ele>
                <time>2005-09-24T01:05:43Z</time>
            </trkpt>
            <trkpt lon="101.389519" lat="14.165544">
                <ele>125.589355</ele>
                <time>2005-09-24T01:05:47Z</time>
            </trkpt>
            <trkpt lon="101.389338" lat="14.165806">
                <ele>127.992554</ele>
                <time>2005-09-24T01:05:51Z</time>
            </trkpt>
            <trkpt lon="101.389251" lat="14.165928">
                <ele>129.915283</ele>
                <time>2005-09-24T01:05:53Z</time>
            </trkpt>
            <trkpt lon="101.389175" lat="14.166136">
                <ele>131.837891</ele>
                <time>2005-09-24T01:05:56Z</time>
            </trkpt>
            <trkpt lon="101.389179" lat="14.166284">
                <ele>133.279907</ele>
                <time>2005-09-24T01:05:58Z</time>
            </trkpt>
            <trkpt lon="101.389201" lat="14.166435">
                <ele>134.241211</ele>
                <time>2005-09-24T01:06:00Z</time>
            </trkpt>
            <trkpt lon="101.389235" lat="14.166804">
                <ele>137.605835</ele>
                <time>2005-09-24T01:06:05Z</time>
            </trkpt>
            <trkpt lon="101.389187" lat="14.167390">
                <ele>141.451050</ele>
                <time>2005-09-24T01:06:13Z</time>
            </trkpt>
            <trkpt lon="101.389148" lat="14.167682">
                <ele>144.815796</ele>
                <time>2005-09-24T01:06:17Z</time>
            </trkpt>
            <trkpt lon="101.389102" lat="14.167980">
                <ele>146.738403</ele>
                <time>2005-09-24T01:06:21Z</time>
            </trkpt>
            <trkpt lon="101.389034" lat="14.168334">
                <ele>149.622314</ele>
                <time>2005-09-24T01:06:26Z</time>
            </trkpt>
            <trkpt lon="101.388946" lat="14.168611">
                <ele>152.986938</ele>
                <time>2005-09-24T01:06:30Z</time>
            </trkpt>
            <trkpt lon="101.388782" lat="14.169021">
                <ele>156.351562</ele>
                <time>2005-09-24T01:06:36Z</time>
            </trkpt>
            <trkpt lon="101.388756" lat="14.169091">
                <ele>156.351562</ele>
                <time>2005-09-24T01:06:37Z</time>
            </trkpt>
            <trkpt lon="101.388584" lat="14.169520">
                <ele>159.235474</ele>
                <time>2005-09-24T01:06:43Z</time>
            </trkpt>
            <trkpt lon="101.388324" lat="14.170205">
                <ele>162.600098</ele>
                <time>2005-09-24T01:06:52Z</time>
            </trkpt>
            <trkpt lon="101.388098" lat="14.170776">
                <ele>165.484131</ele>
                <time>2005-09-24T01:06:58Z</time>
            </trkpt>
            <trkpt lon="101.387935" lat="14.171190">
                <ele>168.848755</ele>
                <time>2005-09-24T01:07:02Z</time>
            </trkpt>
            <trkpt lon="101.387900" lat="14.171292">
                <ele>170.290649</ele>
                <time>2005-09-24T01:07:03Z</time>
            </trkpt>
            <trkpt lon="101.387862" lat="14.171715">
                <ele>174.616577</ele>
                <time>2005-09-24T01:07:07Z</time>
            </trkpt>
            <trkpt lon="101.387887" lat="14.172026">
                <ele>177.981201</ele>
                <time>2005-09-24T01:07:10Z</time>
            </trkpt>
            <trkpt lon="101.387897" lat="14.172124">
                <ele>178.461914</ele>
                <time>2005-09-24T01:07:11Z</time>
            </trkpt>
            <trkpt lon="101.387905" lat="14.172302">
                <ele>179.423218</ele>
                <time>2005-09-24T01:07:13Z</time>
            </trkpt>
            <trkpt lon="101.387817" lat="14.172531">
                <ele>183.749023</ele>
                <time>2005-09-24T01:07:16Z</time>
            </trkpt>
            <trkpt lon="101.387763" lat="14.172595">
                <ele>184.710571</ele>
                <time>2005-09-24T01:07:17Z</time>
            </trkpt>
            <trkpt lon="101.387536" lat="14.172848">
                <ele>189.036377</ele>
                <time>2005-09-24T01:07:21Z</time>
            </trkpt>
            <trkpt lon="101.387489" lat="14.172915">
                <ele>189.036377</ele>
                <time>2005-09-24T01:07:22Z</time>
            </trkpt>
            <trkpt lon="101.387405" lat="14.173198">
                <ele>192.401123</ele>
                <time>2005-09-24T01:07:26Z</time>
            </trkpt>
            <trkpt lon="101.387403" lat="14.173278">
                <ele>192.881714</ele>
                <time>2005-09-24T01:07:27Z</time>
            </trkpt>
            <trkpt lon="101.387434" lat="14.173666">
                <ele>197.207520</ele>
                <time>2005-09-24T01:07:32Z</time>
            </trkpt>
            <trkpt lon="101.387582" lat="14.173953">
                <ele>201.052856</ele>
                <time>2005-09-24T01:07:36Z</time>
            </trkpt>
            <trkpt lon="101.388065" lat="14.174497">
                <ele>205.378784</ele>
                <time>2005-09-24T01:07:43Z</time>
            </trkpt>
            <trkpt lon="101.388378" lat="14.174839">
                <ele>208.262817</ele>
                <time>2005-09-24T01:07:47Z</time>
            </trkpt>
            <trkpt lon="101.388460" lat="14.174928">
                <ele>208.743408</ele>
                <time>2005-09-24T01:07:48Z</time>
            </trkpt>
            <trkpt lon="101.388788" lat="14.175285">
                <ele>211.146729</ele>
                <time>2005-09-24T01:07:52Z</time>
            </trkpt>
            <trkpt lon="101.389086" lat="14.175643">
                <ele>214.511230</ele>
                <time>2005-09-24T01:07:56Z</time>
            </trkpt>
            <trkpt lon="101.389143" lat="14.175733">
                <ele>215.472656</ele>
                <time>2005-09-24T01:07:57Z</time>
            </trkpt>
            <trkpt lon="101.389229" lat="14.176018">
                <ele>218.837280</ele>
                <time>2005-09-24T01:08:00Z</time>
            </trkpt>
            <trkpt lon="101.389285" lat="14.176378">
                <ele>223.643799</ele>
                <time>2005-09-24T01:08:04Z</time>
            </trkpt>
            <trkpt lon="101.389305" lat="14.176549">
                <ele>227.008545</ele>
                <time>2005-09-24T01:08:06Z</time>
            </trkpt>
            <trkpt lon="101.389314" lat="14.176802">
                <ele>228.931152</ele>
                <time>2005-09-24T01:08:10Z</time>
            </trkpt>
            <trkpt lon="101.389285" lat="14.177001">
                <ele>230.853760</ele>
                <time>2005-09-24T01:08:13Z</time>
            </trkpt>
            <trkpt lon="101.389241" lat="14.177224">
                <ele>234.699097</ele>
                <time>2005-09-24T01:08:16Z</time>
            </trkpt>
            <trkpt lon="101.389172" lat="14.177514">
                <ele>237.582886</ele>
                <time>2005-09-24T01:08:20Z</time>
            </trkpt>
            <trkpt lon="101.389126" lat="14.177724">
                <ele>240.947632</ele>
                <time>2005-09-24T01:08:23Z</time>
            </trkpt>
            <trkpt lon="101.389060" lat="14.178007">
                <ele>244.792847</ele>
                <time>2005-09-24T01:08:27Z</time>
            </trkpt>
            <trkpt lon="101.388997" lat="14.178283">
                <ele>247.676758</ele>
                <time>2005-09-24T01:08:31Z</time>
            </trkpt>
            <trkpt lon="101.388927" lat="14.178553">
                <ele>252.002808</ele>
                <time>2005-09-24T01:08:35Z</time>
            </trkpt>
            <trkpt lon="101.388845" lat="14.178830">
                <ele>255.367310</ele>
                <time>2005-09-24T01:08:39Z</time>
            </trkpt>
            <trkpt lon="101.388743" lat="14.179175">
                <ele>259.212646</ele>
                <time>2005-09-24T01:08:44Z</time>
            </trkpt>
            <trkpt lon="101.388665" lat="14.179439">
                <ele>262.577148</ele>
                <time>2005-09-24T01:08:48Z</time>
            </trkpt>
            <trkpt lon="101.388568" lat="14.179771">
                <ele>265.461304</ele>
                <time>2005-09-24T01:08:53Z</time>
            </trkpt>
            <trkpt lon="101.388509" lat="14.179973">
                <ele>268.825806</ele>
                <time>2005-09-24T01:08:56Z</time>
            </trkpt>
            <trkpt lon="101.388430" lat="14.180249">
                <ele>272.671143</ele>
                <time>2005-09-24T01:09:00Z</time>
            </trkpt>
            <trkpt lon="101.388385" lat="14.180384">
                <ele>273.632446</ele>
                <time>2005-09-24T01:09:02Z</time>
            </trkpt>
            <trkpt lon="101.388212" lat="14.180610">
                <ele>277.477661</ele>
                <time>2005-09-24T01:09:06Z</time>
            </trkpt>
            <trkpt lon="101.388153" lat="14.180654">
                <ele>278.919678</ele>
                <time>2005-09-24T01:09:07Z</time>
            </trkpt>
            <trkpt lon="101.387896" lat="14.180806">
                <ele>283.726196</ele>
                <time>2005-09-24T01:09:11Z</time>
            </trkpt>
            <trkpt lon="101.387639" lat="14.180952">
                <ele>286.129517</ele>
                <time>2005-09-24T01:09:15Z</time>
            </trkpt>
            <trkpt lon="101.387445" lat="14.181067">
                <ele>290.455566</ele>
                <time>2005-09-24T01:09:18Z</time>
            </trkpt>
            <trkpt lon="101.387188" lat="14.181219">
                <ele>294.300781</ele>
                <time>2005-09-24T01:09:22Z</time>
            </trkpt>
            <trkpt lon="101.387001" lat="14.181327">
                <ele>298.146118</ele>
                <time>2005-09-24T01:09:25Z</time>
            </trkpt>
            <trkpt lon="101.386937" lat="14.181364">
                <ele>298.146118</ele>
                <time>2005-09-24T01:09:26Z</time>
            </trkpt>
            <trkpt lon="101.386747" lat="14.181477">
                <ele>301.510620</ele>
                <time>2005-09-24T01:09:29Z</time>
            </trkpt>
            <trkpt lon="101.386626" lat="14.181548">
                <ele>302.471924</ele>
                <time>2005-09-24T01:09:31Z</time>
            </trkpt>
            <trkpt lon="101.386389" lat="14.181698">
                <ele>305.836670</ele>
                <time>2005-09-24T01:09:36Z</time>
            </trkpt>
            <trkpt lon="101.386283" lat="14.181772">
                <ele>306.797852</ele>
                <time>2005-09-24T01:09:39Z</time>
            </trkpt>
            <trkpt lon="101.386227" lat="14.181737">
                <ele>306.317261</ele>
                <time>2005-09-24T01:09:44Z</time>
            </trkpt>
            <trkpt lon="101.386245" lat="14.181748">
                <ele>306.317261</ele>
                <time>2005-09-24T01:09:59Z</time>
            </trkpt>
            <trkpt lon="101.386247" lat="14.181741">
                <ele>306.797852</ele>
                <time>2005-09-24T01:10:01Z</time>
            </trkpt>
            <trkpt lon="101.386296" lat="14.181716">
                <ele>306.317261</ele>
                <time>2005-09-24T01:10:08Z</time>
            </trkpt>
            <trkpt lon="101.386281" lat="14.181711">
                <ele>306.797852</ele>
                <time>2005-09-24T01:11:13Z</time>
            </trkpt>
            <trkpt lon="101.386257" lat="14.181722">
                <ele>303.913940</ele>
                <time>2005-09-24T01:11:23Z</time>
            </trkpt>
            <trkpt lon="101.386256" lat="14.181722">
                <ele>306.797852</ele>
                <time>2005-09-24T01:11:24Z</time>
            </trkpt>
            <trkpt lon="101.386238" lat="14.181750">
                <ele>307.278564</ele>
                <time>2005-09-24T01:11:52Z</time>
            </trkpt>
            <trkpt lon="101.386234" lat="14.181781">
                <ele>307.278564</ele>
                <time>2005-09-24T01:12:03Z</time>
            </trkpt>
            <trkpt lon="101.386232" lat="14.181762">
                <ele>306.797852</ele>
                <time>2005-09-24T01:12:09Z</time>
            </trkpt>
            <trkpt lon="101.386236" lat="14.181738">
                <ele>305.836670</ele>
                <time>2005-09-24T01:12:16Z</time>
            </trkpt>
            <trkpt lon="101.386247" lat="14.181719">
                <ele>308.720459</ele>
                <time>2005-09-24T01:15:43Z</time>
            </trkpt>
            <trkpt lon="101.386247" lat="14.181719">
                <ele>308.720459</ele>
                <time>2005-09-24T01:15:44Z</time>
            </trkpt>
            <trkpt lon="101.386097" lat="14.181757">
                <ele>310.643066</ele>
                <time>2005-09-24T01:15:58Z</time>
            </trkpt>
            <trkpt lon="101.386052" lat="14.181764">
                <ele>310.643066</ele>
                <time>2005-09-24T01:16:06Z</time>
            </trkpt>
            <trkpt lon="101.385983" lat="14.181823">
                <ele>311.123779</ele>
                <time>2005-09-24T01:16:17Z</time>
            </trkpt>
            <trkpt lon="101.385965" lat="14.181931">
                <ele>312.565796</ele>
                <time>2005-09-24T01:16:29Z</time>
            </trkpt>
            <trkpt lon="101.385988" lat="14.181996">
                <ele>314.488403</ele>
                <time>2005-09-24T01:16:39Z</time>
            </trkpt>
            <trkpt lon="101.386080" lat="14.182064">
                <ele>316.411011</ele>
                <time>2005-09-24T01:16:52Z</time>
            </trkpt>
            <trkpt lon="101.386169" lat="14.182074">
                <ele>317.372437</ele>
                <time>2005-09-24T01:17:02Z</time>
            </trkpt>
            <trkpt lon="101.386239" lat="14.182092">
                <ele>318.333618</ele>
                <time>2005-09-24T01:17:10Z</time>
            </trkpt>
            <trkpt lon="101.386374" lat="14.182109">
                <ele>319.775635</ele>
                <time>2005-09-24T01:17:23Z</time>
            </trkpt>
            <trkpt lon="101.386457" lat="14.182091">
                <ele>319.775635</ele>
                <time>2005-09-24T01:17:32Z</time>
            </trkpt>
            <trkpt lon="101.386533" lat="14.182059">
                <ele>320.256348</ele>
                <time>2005-09-24T01:17:41Z</time>
            </trkpt>
            <trkpt lon="101.386637" lat="14.181991">
                <ele>320.256348</ele>
                <time>2005-09-24T01:17:53Z</time>
            </trkpt>
            <trkpt lon="101.386677" lat="14.181967">
                <ele>320.256348</ele>
                <time>2005-09-24T01:18:03Z</time>
            </trkpt>
            <trkpt lon="101.386706" lat="14.181983">
                <ele>320.256348</ele>
                <time>2005-09-24T01:20:36Z</time>
            </trkpt>
            <trkpt lon="101.386754" lat="14.181969">
                <ele>319.295044</ele>
                <time>2005-09-24T01:20:42Z</time>
            </trkpt>
            <trkpt lon="101.386827" lat="14.181916">
                <ele>318.814331</ele>
                <time>2005-09-24T01:20:53Z</time>
            </trkpt>
            <trkpt lon="101.386886" lat="14.181884">
                <ele>315.449829</ele>
                <time>2005-09-24T01:20:59Z</time>
            </trkpt>
            <trkpt lon="101.386967" lat="14.181859">
                <ele>314.007812</ele>
                <time>2005-09-24T01:21:09Z</time>
            </trkpt>
            <trkpt lon="101.387023" lat="14.181851">
                <ele>312.565796</ele>
                <time>2005-09-24T01:21:18Z</time>
            </trkpt>
            <trkpt lon="101.387021" lat="14.181848">
                <ele>312.085205</ele>
                <time>2005-09-24T01:21:27Z</time>
            </trkpt>
            <trkpt lon="101.387051" lat="14.181845">
                <ele>311.123779</ele>
                <time>2005-09-24T01:21:40Z</time>
            </trkpt>
            <trkpt lon="101.387123" lat="14.181846">
                <ele>309.681885</ele>
                <time>2005-09-24T01:21:51Z</time>
            </trkpt>
            <trkpt lon="101.387172" lat="14.181828">
                <ele>308.720459</ele>
                <time>2005-09-24T01:21:58Z</time>
            </trkpt>
            <trkpt lon="101.387194" lat="14.181829">
                <ele>308.720459</ele>
                <time>2005-09-24T01:22:00Z</time>
            </trkpt>
            <trkpt lon="101.387357" lat="14.181821">
                <ele>307.278564</ele>
                <time>2005-09-24T01:22:10Z</time>
            </trkpt>
            <trkpt lon="101.387436" lat="14.181806">
                <ele>306.797852</ele>
                <time>2005-09-24T01:22:18Z</time>
            </trkpt>
            <trkpt lon="101.387491" lat="14.181798">
                <ele>306.797852</ele>
                <time>2005-09-24T01:22:37Z</time>
            </trkpt>
            <trkpt lon="101.387527" lat="14.181788">
                <ele>306.317261</ele>
                <time>2005-09-24T01:22:48Z</time>
            </trkpt>
            <trkpt lon="101.387571" lat="14.181788">
                <ele>306.317261</ele>
                <time>2005-09-24T01:22:52Z</time>
            </trkpt>
            <trkpt lon="101.387604" lat="14.181773">
                <ele>306.317261</ele>
                <time>2005-09-24T01:23:00Z</time>
            </trkpt>
            <trkpt lon="101.387639" lat="14.181768">
                <ele>306.317261</ele>
                <time>2005-09-24T01:23:08Z</time>
            </trkpt>
            <trkpt lon="101.387793" lat="14.181727">
                <ele>304.875244</ele>
                <time>2005-09-24T01:23:16Z</time>
            </trkpt>
            <trkpt lon="101.387963" lat="14.181632">
                <ele>304.394653</ele>
                <time>2005-09-24T01:23:26Z</time>
            </trkpt>
            <trkpt lon="101.388089" lat="14.181543">
                <ele>304.394653</ele>
                <time>2005-09-24T01:23:35Z</time>
            </trkpt>
            <trkpt lon="101.388213" lat="14.181481">
                <ele>302.471924</ele>
                <time>2005-09-24T01:23:44Z</time>
            </trkpt>
            <trkpt lon="101.388381" lat="14.181453">
                <ele>301.029907</ele>
                <time>2005-09-24T01:23:53Z</time>
            </trkpt>
            <trkpt lon="101.388576" lat="14.181453">
                <ele>301.029907</ele>
                <time>2005-09-24T01:24:03Z</time>
            </trkpt>
            <trkpt lon="101.388585" lat="14.181453">
                <ele>301.029907</ele>
                <time>2005-09-24T01:24:09Z</time>
            </trkpt>
            <trkpt lon="101.388659" lat="14.181426">
                <ele>300.549316</ele>
                <time>2005-09-24T01:24:16Z</time>
            </trkpt>
            <trkpt lon="101.388820" lat="14.181305">
                <ele>299.588013</ele>
                <time>2005-09-24T01:24:25Z</time>
            </trkpt>
            <trkpt lon="101.389001" lat="14.181287">
                <ele>298.146118</ele>
                <time>2005-09-24T01:24:35Z</time>
            </trkpt>
            <trkpt lon="101.389159" lat="14.181300">
                <ele>295.742676</ele>
                <time>2005-09-24T01:24:43Z</time>
            </trkpt>
            <trkpt lon="101.389366" lat="14.181318">
                <ele>296.223511</ele>
                <time>2005-09-24T01:24:52Z</time>
            </trkpt>
            <trkpt lon="101.389511" lat="14.181261">
                <ele>295.261963</ele>
                <time>2005-09-24T01:24:59Z</time>
            </trkpt>
            <trkpt lon="101.389704" lat="14.181190">
                <ele>293.339355</ele>
                <time>2005-09-24T01:25:07Z</time>
            </trkpt>
            <trkpt lon="101.389822" lat="14.181186">
                <ele>292.858765</ele>
                <time>2005-09-24T01:25:13Z</time>
            </trkpt>
            <trkpt lon="101.390043" lat="14.181164">
                <ele>292.378174</ele>
                <time>2005-09-24T01:25:22Z</time>
            </trkpt>
            <trkpt lon="101.390176" lat="14.181109">
                <ele>291.416748</ele>
                <time>2005-09-24T01:25:29Z</time>
            </trkpt>
            <trkpt lon="101.390377" lat="14.181031">
                <ele>289.974854</ele>
                <time>2005-09-24T01:25:37Z</time>
            </trkpt>
            <trkpt lon="101.390567" lat="14.180902">
                <ele>287.571411</ele>
                <time>2005-09-24T01:25:46Z</time>
            </trkpt>
            <trkpt lon="101.390721" lat="14.180820">
                <ele>288.532959</ele>
                <time>2005-09-24T01:25:54Z</time>
            </trkpt>
            <trkpt lon="101.390919" lat="14.180681">
                <ele>288.532959</ele>
                <time>2005-09-24T01:26:04Z</time>
            </trkpt>
            <trkpt lon="101.390998" lat="14.180665">
                <ele>288.532959</ele>
                <time>2005-09-24T01:26:11Z</time>
            </trkpt>
            <trkpt lon="101.391010" lat="14.180661">
                <ele>288.532959</ele>
                <time>2005-09-24T01:26:19Z</time>
            </trkpt>
            <trkpt lon="101.391069" lat="14.180634">
                <ele>288.532959</ele>
                <time>2005-09-24T01:26:36Z</time>
            </trkpt>
            <trkpt lon="101.391265" lat="14.180600">
                <ele>285.648804</ele>
                <time>2005-09-24T01:26:47Z</time>
            </trkpt>
            <trkpt lon="101.391432" lat="14.180572">
                <ele>284.687622</ele>
                <time>2005-09-24T01:26:55Z</time>
            </trkpt>
            <trkpt lon="101.391625" lat="14.180468">
                <ele>283.245605</ele>
                <time>2005-09-24T01:27:04Z</time>
            </trkpt>
            <trkpt lon="101.391732" lat="14.180404">
                <ele>283.245605</ele>
                <time>2005-09-24T01:27:11Z</time>
            </trkpt>
            <trkpt lon="101.391770" lat="14.180363">
                <ele>281.803589</ele>
                <time>2005-09-24T01:27:17Z</time>
            </trkpt>
            <trkpt lon="101.391815" lat="14.180347">
                <ele>281.803589</ele>
                <time>2005-09-24T01:30:11Z</time>
            </trkpt>
            <trkpt lon="101.391863" lat="14.180323">
                <ele>280.361694</ele>
                <time>2005-09-24T01:30:19Z</time>
            </trkpt>
            <trkpt lon="101.391928" lat="14.180254">
                <ele>278.438965</ele>
                <time>2005-09-24T01:30:28Z</time>
            </trkpt>
            <trkpt lon="101.391977" lat="14.180196">
                <ele>276.997070</ele>
                <time>2005-09-24T01:30:37Z</time>
            </trkpt>
            <trkpt lon="101.392018" lat="14.180142">
                <ele>276.035645</ele>
                <time>2005-09-24T01:30:44Z</time>
            </trkpt>
            <trkpt lon="101.392057" lat="14.180082">
                <ele>274.113037</ele>
                <time>2005-09-24T01:30:51Z</time>
            </trkpt>
            <trkpt lon="101.392077" lat="14.180062">
                <ele>274.113037</ele>
                <time>2005-09-24T01:30:54Z</time>
            </trkpt>
            <trkpt lon="101.392098" lat="14.180018">
                <ele>274.113037</ele>
                <time>2005-09-24T01:31:01Z</time>
            </trkpt>
            <trkpt lon="101.392099" lat="14.180016">
                <ele>273.632446</ele>
                <time>2005-09-24T01:31:02Z</time>
            </trkpt>
            <trkpt lon="101.392170" lat="14.179931">
                <ele>271.709717</ele>
                <time>2005-09-24T01:31:08Z</time>
            </trkpt>
            <trkpt lon="101.392286" lat="14.179798">
                <ele>269.306519</ele>
                <time>2005-09-24T01:31:21Z</time>
            </trkpt>
            <trkpt lon="101.392320" lat="14.179775">
                <ele>268.825806</ele>
                <time>2005-09-24T01:31:31Z</time>
            </trkpt>
            <trkpt lon="101.392425" lat="14.179658">
                <ele>265.461304</ele>
                <time>2005-09-24T01:31:42Z</time>
            </trkpt>
            <trkpt lon="101.392435" lat="14.179641">
                <ele>265.461304</ele>
                <time>2005-09-24T01:31:43Z</time>
            </trkpt>
            <trkpt lon="101.392460" lat="14.179614">
                <ele>264.019287</ele>
                <time>2005-09-24T01:31:49Z</time>
            </trkpt>
            <trkpt lon="101.392483" lat="14.179530">
                <ele>262.577148</ele>
                <time>2005-09-24T01:32:17Z</time>
            </trkpt>
            <trkpt lon="101.392488" lat="14.179509">
                <ele>263.057861</ele>
                <time>2005-09-24T01:32:18Z</time>
            </trkpt>
            <trkpt lon="101.392538" lat="14.179367">
                <ele>262.096558</ele>
                <time>2005-09-24T01:32:29Z</time>
            </trkpt>
            <trkpt lon="101.392567" lat="14.179263">
                <ele>259.693359</ele>
                <time>2005-09-24T01:32:39Z</time>
            </trkpt>
            <trkpt lon="101.392618" lat="14.179180">
                <ele>256.328735</ele>
                <time>2005-09-24T01:32:46Z</time>
            </trkpt>
            <trkpt lon="101.392728" lat="14.179058">
                <ele>254.406006</ele>
                <time>2005-09-24T01:32:57Z</time>
            </trkpt>
            <trkpt lon="101.392753" lat="14.179034">
                <ele>252.963989</ele>
                <time>2005-09-24T01:33:03Z</time>
            </trkpt>
            <trkpt lon="101.392761" lat="14.179025">
                <ele>252.483398</ele>
                <time>2005-09-24T01:33:04Z</time>
            </trkpt>
            <trkpt lon="101.392773" lat="14.179026">
                <ele>252.483398</ele>
                <time>2005-09-24T01:33:13Z</time>
            </trkpt>
            <trkpt lon="101.392803" lat="14.179001">
                <ele>252.002808</ele>
                <time>2005-09-24T01:33:21Z</time>
            </trkpt>
            <trkpt lon="101.392809" lat="14.178971">
                <ele>250.080200</ele>
                <time>2005-09-24T01:33:24Z</time>
            </trkpt>
            <trkpt lon="101.392842" lat="14.178906">
                <ele>249.599487</ele>
                <time>2005-09-24T01:33:34Z</time>
            </trkpt>
            <trkpt lon="101.392889" lat="14.178802">
                <ele>248.157593</ele>
                <time>2005-09-24T01:33:39Z</time>
            </trkpt>
            <trkpt lon="101.392922" lat="14.178718">
                <ele>246.715454</ele>
                <time>2005-09-24T01:33:43Z</time>
            </trkpt>
            <trkpt lon="101.392945" lat="14.178665">
                <ele>246.234863</ele>
                <time>2005-09-24T01:33:47Z</time>
            </trkpt>
            <trkpt lon="101.392964" lat="14.178538">
                <ele>243.831543</ele>
                <time>2005-09-24T01:33:57Z</time>
            </trkpt>
            <trkpt lon="101.393008" lat="14.178377">
                <ele>243.350830</ele>
                <time>2005-09-24T01:34:05Z</time>
            </trkpt>
            <trkpt lon="101.393028" lat="14.178288">
                <ele>242.870239</ele>
                <time>2005-09-24T01:34:19Z</time>
            </trkpt>
            <trkpt lon="101.393160" lat="14.178132">
                <ele>241.908936</ele>
                <time>2005-09-24T01:34:29Z</time>
            </trkpt>
            <trkpt lon="101.393393" lat="14.177982">
                <ele>241.428223</ele>
                <time>2005-09-24T01:34:40Z</time>
            </trkpt>
            <trkpt lon="101.393598" lat="14.177830">
                <ele>238.544312</ele>
                <time>2005-09-24T01:34:50Z</time>
            </trkpt>
            <trkpt lon="101.393773" lat="14.177747">
                <ele>237.582886</ele>
                <time>2005-09-24T01:34:59Z</time>
            </trkpt>
            <trkpt lon="101.393850" lat="14.177613">
                <ele>237.102295</ele>
                <time>2005-09-24T01:35:06Z</time>
            </trkpt>
            <trkpt lon="101.393821" lat="14.177471">
                <ele>236.621704</ele>
                <time>2005-09-24T01:35:13Z</time>
            </trkpt>
            <trkpt lon="101.393774" lat="14.177399">
                <ele>236.140991</ele>
                <time>2005-09-24T01:35:21Z</time>
            </trkpt>
            <trkpt lon="101.393725" lat="14.177259">
                <ele>234.699097</ele>
                <time>2005-09-24T01:35:28Z</time>
            </trkpt>
            <trkpt lon="101.393736" lat="14.177159">
                <ele>233.737671</ele>
                <time>2005-09-24T01:35:35Z</time>
            </trkpt>
            <trkpt lon="101.393736" lat="14.176962">
                <ele>231.814941</ele>
                <time>2005-09-24T01:35:45Z</time>
            </trkpt>
            <trkpt lon="101.393708" lat="14.176722">
                <ele>228.931152</ele>
                <time>2005-09-24T01:35:55Z</time>
            </trkpt>
            <trkpt lon="101.393689" lat="14.176591">
                <ele>227.489136</ele>
                <time>2005-09-24T01:36:02Z</time>
            </trkpt>
            <trkpt lon="101.393680" lat="14.176562">
                <ele>227.489136</ele>
                <time>2005-09-24T01:36:09Z</time>
            </trkpt>
            <trkpt lon="101.393684" lat="14.176474">
                <ele>227.008545</ele>
                <time>2005-09-24T01:36:15Z</time>
            </trkpt>
            <trkpt lon="101.393618" lat="14.176304">
                <ele>225.566528</ele>
                <time>2005-09-24T01:36:24Z</time>
            </trkpt>
            <trkpt lon="101.393557" lat="14.176146">
                <ele>222.201782</ele>
                <time>2005-09-24T01:36:32Z</time>
            </trkpt>
            <trkpt lon="101.393551" lat="14.176125">
                <ele>222.201782</ele>
                <time>2005-09-24T01:36:33Z</time>
            </trkpt>
            <trkpt lon="101.393535" lat="14.176074">
                <ele>221.240601</ele>
                <time>2005-09-24T01:36:39Z</time>
            </trkpt>
            <trkpt lon="101.393506" lat="14.175993">
                <ele>220.759888</ele>
                <time>2005-09-24T01:36:55Z</time>
            </trkpt>
            <trkpt lon="101.393462" lat="14.175947">
                <ele>221.240601</ele>
                <time>2005-09-24T01:37:06Z</time>
            </trkpt>
            <trkpt lon="101.393454" lat="14.175951">
                <ele>219.317993</ele>
                <time>2005-09-24T01:37:13Z</time>
            </trkpt>
            <trkpt lon="101.393442" lat="14.175894">
                <ele>219.317993</ele>
                <time>2005-09-24T01:39:54Z</time>
            </trkpt>
            <trkpt lon="101.393357" lat="14.175908">
                <ele>218.837280</ele>
                <time>2005-09-24T01:40:06Z</time>
            </trkpt>
            <trkpt lon="101.393307" lat="14.175859">
                <ele>218.356567</ele>
                <time>2005-09-24T01:40:14Z</time>
            </trkpt>
            <trkpt lon="101.393282" lat="14.175844">
                <ele>217.395386</ele>
                <time>2005-09-24T01:40:21Z</time>
            </trkpt>
            <trkpt lon="101.393258" lat="14.175776">
                <ele>217.395386</ele>
                <time>2005-09-24T01:40:31Z</time>
            </trkpt>
            <trkpt lon="101.393257" lat="14.175746">
                <ele>215.953247</ele>
                <time>2005-09-24T01:40:37Z</time>
            </trkpt>
            <trkpt lon="101.393297" lat="14.175607">
                <ele>214.991943</ele>
                <time>2005-09-24T01:40:50Z</time>
            </trkpt>
            <trkpt lon="101.393305" lat="14.175556">
                <ele>213.550049</ele>
                <time>2005-09-24T01:40:54Z</time>
            </trkpt>
            <trkpt lon="101.393359" lat="14.175358">
                <ele>212.108032</ele>
                <time>2005-09-24T01:41:05Z</time>
            </trkpt>
            <trkpt lon="101.393382" lat="14.175300">
                <ele>211.627441</ele>
                <time>2005-09-24T01:41:09Z</time>
            </trkpt>
            <trkpt lon="101.393360" lat="14.175129">
                <ele>211.146729</ele>
                <time>2005-09-24T01:41:20Z</time>
            </trkpt>
            <trkpt lon="101.393335" lat="14.174908">
                <ele>208.743408</ele>
                <time>2005-09-24T01:41:31Z</time>
            </trkpt>
            <trkpt lon="101.393369" lat="14.174710">
                <ele>205.378784</ele>
                <time>2005-09-24T01:41:40Z</time>
            </trkpt>
            <trkpt lon="101.393383" lat="14.174644">
                <ele>203.456177</ele>
                <time>2005-09-24T01:41:43Z</time>
            </trkpt>
            <trkpt lon="101.393406" lat="14.174525">
                <ele>202.494873</ele>
                <time>2005-09-24T01:41:51Z</time>
            </trkpt>
            <trkpt lon="101.393421" lat="14.174396">
                <ele>202.014282</ele>
                <time>2005-09-24T01:42:08Z</time>
            </trkpt>
            <trkpt lon="101.393390" lat="14.174322">
                <ele>201.533569</ele>
                <time>2005-09-24T01:42:14Z</time>
            </trkpt>
            <trkpt lon="101.393357" lat="14.174244">
                <ele>200.091675</ele>
                <time>2005-09-24T01:42:22Z</time>
            </trkpt>
            <trkpt lon="101.393273" lat="14.174124">
                <ele>199.130127</ele>
                <time>2005-09-24T01:42:30Z</time>
            </trkpt>
            <trkpt lon="101.393198" lat="14.174052">
                <ele>199.610840</ele>
                <time>2005-09-24T01:42:39Z</time>
            </trkpt>
            <trkpt lon="101.393176" lat="14.174051">
                <ele>199.610840</ele>
                <time>2005-09-24T01:42:52Z</time>
            </trkpt>
            <trkpt lon="101.393118" lat="14.174006">
                <ele>198.649536</ele>
                <time>2005-09-24T01:43:04Z</time>
            </trkpt>
            <trkpt lon="101.392980" lat="14.173952">
                <ele>198.649536</ele>
                <time>2005-09-24T01:43:12Z</time>
            </trkpt>
            <trkpt lon="101.392825" lat="14.173920">
                <ele>198.649536</ele>
                <time>2005-09-24T01:43:20Z</time>
            </trkpt>
            <trkpt lon="101.392817" lat="14.173910">
                <ele>198.168945</ele>
                <time>2005-09-24T01:43:21Z</time>
            </trkpt>
            <trkpt lon="101.392806" lat="14.173738">
                <ele>196.726929</ele>
                <time>2005-09-24T01:43:32Z</time>
            </trkpt>
            <trkpt lon="101.392811" lat="14.173714">
                <ele>196.246338</ele>
                <time>2005-09-24T01:43:48Z</time>
            </trkpt>
            <trkpt lon="101.392799" lat="14.173589">
                <ele>192.881714</ele>
                <time>2005-09-24T01:44:14Z</time>
            </trkpt>
            <trkpt lon="101.392773" lat="14.173495">
                <ele>192.401123</ele>
                <time>2005-09-24T01:44:21Z</time>
            </trkpt>
            <trkpt lon="101.392767" lat="14.173479">
                <ele>192.401123</ele>
                <time>2005-09-24T01:44:26Z</time>
            </trkpt>
            <trkpt lon="101.392772" lat="14.173367">
                <ele>191.439575</ele>
                <time>2005-09-24T01:44:30Z</time>
            </trkpt>
            <trkpt lon="101.392786" lat="14.173197">
                <ele>189.516968</ele>
                <time>2005-09-24T01:44:38Z</time>
            </trkpt>
            <trkpt lon="101.392787" lat="14.173181">
                <ele>189.516968</ele>
                <time>2005-09-24T01:44:44Z</time>
            </trkpt>
            <trkpt lon="101.392801" lat="14.173065">
                <ele>189.036377</ele>
                <time>2005-09-24T01:45:01Z</time>
            </trkpt>
            <trkpt lon="101.392812" lat="14.173014">
                <ele>188.075073</ele>
                <time>2005-09-24T01:45:09Z</time>
            </trkpt>
            <trkpt lon="101.392806" lat="14.172976">
                <ele>187.594360</ele>
                <time>2005-09-24T01:45:20Z</time>
            </trkpt>
            <trkpt lon="101.392817" lat="14.172882">
                <ele>185.671753</ele>
                <time>2005-09-24T01:45:28Z</time>
            </trkpt>
            <trkpt lon="101.392815" lat="14.172868">
                <ele>185.671753</ele>
                <time>2005-09-24T01:45:33Z</time>
            </trkpt>
            <trkpt lon="101.392803" lat="14.172801">
                <ele>185.671753</ele>
                <time>2005-09-24T01:45:48Z</time>
            </trkpt>
            <trkpt lon="101.392811" lat="14.172735">
                <ele>185.671753</ele>
                <time>2005-09-24T01:45:57Z</time>
            </trkpt>
            <trkpt lon="101.392819" lat="14.172708">
                <ele>185.191162</ele>
                <time>2005-09-24T01:46:02Z</time>
            </trkpt>
            <trkpt lon="101.392871" lat="14.172567">
                <ele>186.152466</ele>
                <time>2005-09-24T01:46:12Z</time>
            </trkpt>
            <trkpt lon="101.392946" lat="14.172488">
                <ele>187.594360</ele>
                <time>2005-09-24T01:46:22Z</time>
            </trkpt>
            <trkpt lon="101.392972" lat="14.172438">
                <ele>186.633179</ele>
                <time>2005-09-24T01:46:30Z</time>
            </trkpt>
            <trkpt lon="101.393012" lat="14.172359">
                <ele>187.113770</ele>
                <time>2005-09-24T01:46:41Z</time>
            </trkpt>
            <trkpt lon="101.393031" lat="14.172284">
                <ele>186.633179</ele>
                <time>2005-09-24T01:46:51Z</time>
            </trkpt>
            <trkpt lon="101.393044" lat="14.172177">
                <ele>184.710571</ele>
                <time>2005-09-24T01:47:08Z</time>
            </trkpt>
            <trkpt lon="101.393103" lat="14.172089">
                <ele>184.229858</ele>
                <time>2005-09-24T01:47:16Z</time>
            </trkpt>
            <trkpt lon="101.393112" lat="14.172046">
                <ele>182.787842</ele>
                <time>2005-09-24T01:47:25Z</time>
            </trkpt>
            <trkpt lon="101.393148" lat="14.171910">
                <ele>181.826416</ele>
                <time>2005-09-24T01:47:33Z</time>
            </trkpt>
            <trkpt lon="101.393191" lat="14.171855">
                <ele>181.345825</ele>
                <time>2005-09-24T01:47:39Z</time>
            </trkpt>
            <trkpt lon="101.393217" lat="14.171816">
                <ele>180.384521</ele>
                <time>2005-09-24T01:47:47Z</time>
            </trkpt>
            <trkpt lon="101.393223" lat="14.171776">
                <ele>178.942627</ele>
                <time>2005-09-24T01:47:50Z</time>
            </trkpt>
            <trkpt lon="101.393220" lat="14.171760">
                <ele>178.461914</ele>
                <time>2005-09-24T01:47:56Z</time>
            </trkpt>
            <trkpt lon="101.393208" lat="14.171745">
                <ele>177.500610</ele>
                <time>2005-09-24T01:48:06Z</time>
            </trkpt>
            <trkpt lon="101.393237" lat="14.171693">
                <ele>177.500610</ele>
                <time>2005-09-24T01:48:25Z</time>
            </trkpt>
            <trkpt lon="101.393278" lat="14.171642">
                <ele>177.020020</ele>
                <time>2005-09-24T01:48:49Z</time>
            </trkpt>
            <trkpt lon="101.393289" lat="14.171567">
                <ele>177.020020</ele>
                <time>2005-09-24T01:49:25Z</time>
            </trkpt>
            <trkpt lon="101.393294" lat="14.171548">
                <ele>176.058594</ele>
                <time>2005-09-24T01:49:28Z</time>
            </trkpt>
            <trkpt lon="101.393274" lat="14.171463">
                <ele>174.616577</ele>
                <time>2005-09-24T01:49:38Z</time>
            </trkpt>
            <trkpt lon="101.393252" lat="14.171423">
                <ele>177.020020</ele>
                <time>2005-09-24T01:49:44Z</time>
            </trkpt>
            <trkpt lon="101.393201" lat="14.171372">
                <ele>177.020020</ele>
                <time>2005-09-24T01:49:50Z</time>
            </trkpt>
            <trkpt lon="101.393183" lat="14.171257">
                <ele>177.500610</ele>
                <time>2005-09-24T01:50:02Z</time>
            </trkpt>
            <trkpt lon="101.393220" lat="14.171159">
                <ele>178.461914</ele>
                <time>2005-09-24T01:50:15Z</time>
            </trkpt>
            <trkpt lon="101.393236" lat="14.171142">
                <ele>178.942627</ele>
                <time>2005-09-24T01:50:18Z</time>
            </trkpt>
            <trkpt lon="101.393330" lat="14.170992">
                <ele>177.981201</ele>
                <time>2005-09-24T01:50:29Z</time>
            </trkpt>
            <trkpt lon="101.393338" lat="14.170981">
                <ele>177.981201</ele>
                <time>2005-09-24T01:50:30Z</time>
            </trkpt>
            <trkpt lon="101.393386" lat="14.170855">
                <ele>176.058594</ele>
                <time>2005-09-24T01:50:39Z</time>
            </trkpt>
            <trkpt lon="101.393383" lat="14.170769">
                <ele>176.539307</ele>
                <time>2005-09-24T01:50:48Z</time>
            </trkpt>
            <trkpt lon="101.393387" lat="14.170763">
                <ele>174.616577</ele>
                <time>2005-09-24T01:50:51Z</time>
            </trkpt>
            <trkpt lon="101.393391" lat="14.170756">
                <ele>175.097290</ele>
                <time>2005-09-24T01:50:59Z</time>
            </trkpt>
            <trkpt lon="101.393492" lat="14.170654">
                <ele>174.135864</ele>
                <time>2005-09-24T01:51:07Z</time>
            </trkpt>
            <trkpt lon="101.393502" lat="14.170605">
                <ele>173.655273</ele>
                <time>2005-09-24T01:51:10Z</time>
            </trkpt>
            <trkpt lon="101.393470" lat="14.170443">
                <ele>171.252075</ele>
                <time>2005-09-24T01:51:18Z</time>
            </trkpt>
            <trkpt lon="101.393438" lat="14.170313">
                <ele>170.771362</ele>
                <time>2005-09-24T01:51:27Z</time>
            </trkpt>
            <trkpt lon="101.393445" lat="14.170271">
                <ele>169.329468</ele>
                <time>2005-09-24T01:51:42Z</time>
            </trkpt>
            <trkpt lon="101.393493" lat="14.170043">
                <ele>166.445312</ele>
                <time>2005-09-24T01:51:56Z</time>
            </trkpt>
            <trkpt lon="101.393549" lat="14.169909">
                <ele>166.445312</ele>
                <time>2005-09-24T01:52:14Z</time>
            </trkpt>
            <trkpt lon="101.393670" lat="14.169750">
                <ele>165.003418</ele>
                <time>2005-09-24T01:52:24Z</time>
            </trkpt>
            <trkpt lon="101.393760" lat="14.169616">
                <ele>163.561523</ele>
                <time>2005-09-24T01:52:33Z</time>
            </trkpt>
            <trkpt lon="101.393787" lat="14.169570">
                <ele>163.561523</ele>
                <time>2005-09-24T01:52:46Z</time>
            </trkpt>
            <trkpt lon="101.393832" lat="14.169454">
                <ele>161.158203</ele>
                <time>2005-09-24T01:52:54Z</time>
            </trkpt>
            <trkpt lon="101.393833" lat="14.169455">
                <ele>161.158203</ele>
                <time>2005-09-24T01:53:02Z</time>
            </trkpt>
            <trkpt lon="101.393863" lat="14.169358">
                <ele>160.196899</ele>
                <time>2005-09-24T01:53:13Z</time>
            </trkpt>
            <trkpt lon="101.393873" lat="14.169339">
                <ele>158.754761</ele>
                <time>2005-09-24T01:53:28Z</time>
            </trkpt>
            <trkpt lon="101.393922" lat="14.169207">
                <ele>158.274170</ele>
                <time>2005-09-24T01:53:38Z</time>
            </trkpt>
            <trkpt lon="101.393961" lat="14.169116">
                <ele>155.390259</ele>
                <time>2005-09-24T01:53:47Z</time>
            </trkpt>
            <trkpt lon="101.394039" lat="14.168919">
                <ele>153.467651</ele>
                <time>2005-09-24T01:53:57Z</time>
            </trkpt>
            <trkpt lon="101.394074" lat="14.168750">
                <ele>151.544922</ele>
                <time>2005-09-24T01:54:06Z</time>
            </trkpt>
            <trkpt lon="101.394128" lat="14.168621">
                <ele>151.064209</ele>
                <time>2005-09-24T01:54:22Z</time>
            </trkpt>
            <trkpt lon="101.394171" lat="14.168501">
                <ele>148.180420</ele>
                <time>2005-09-24T01:54:34Z</time>
            </trkpt>
            <trkpt lon="101.394204" lat="14.168377">
                <ele>147.699707</ele>
                <time>2005-09-24T01:54:42Z</time>
            </trkpt>
            <trkpt lon="101.394247" lat="14.168187">
                <ele>145.296387</ele>
                <time>2005-09-24T01:54:49Z</time>
            </trkpt>
            <trkpt lon="101.394270" lat="14.168068">
                <ele>144.815796</ele>
                <time>2005-09-24T01:54:55Z</time>
            </trkpt>
            <trkpt lon="101.394286" lat="14.168037">
                <ele>144.815796</ele>
                <time>2005-09-24T01:55:03Z</time>
            </trkpt>
            <trkpt lon="101.394446" lat="14.167771">
                <ele>144.335205</ele>
                <time>2005-09-24T01:55:12Z</time>
            </trkpt>
            <trkpt lon="101.394580" lat="14.167498">
                <ele>141.451050</ele>
                <time>2005-09-24T01:55:22Z</time>
            </trkpt>
            <trkpt lon="101.394573" lat="14.167489">
                <ele>141.451050</ele>
                <time>2005-09-24T01:55:26Z</time>
            </trkpt>
            <trkpt lon="101.394634" lat="14.167382">
                <ele>139.528442</ele>
                <time>2005-09-24T01:55:33Z</time>
            </trkpt>
            <trkpt lon="101.394773" lat="14.167201">
                <ele>137.605835</ele>
                <time>2005-09-24T01:55:42Z</time>
            </trkpt>
            <trkpt lon="101.394825" lat="14.167135">
                <ele>136.644653</ele>
                <time>2005-09-24T01:55:47Z</time>
            </trkpt>
            <trkpt lon="101.394884" lat="14.167078">
                <ele>136.644653</ele>
                <time>2005-09-24T01:56:09Z</time>
            </trkpt>
            <trkpt lon="101.394887" lat="14.166978">
                <ele>135.683105</ele>
                <time>2005-09-24T01:56:15Z</time>
            </trkpt>
            <trkpt lon="101.394911" lat="14.166904">
                <ele>134.721924</ele>
                <time>2005-09-24T01:56:24Z</time>
            </trkpt>
            <trkpt lon="101.394925" lat="14.166881">
                <ele>133.760498</ele>
                <time>2005-09-24T01:56:26Z</time>
            </trkpt>
            <trkpt lon="101.394952" lat="14.166812">
                <ele>133.279907</ele>
                <time>2005-09-24T01:56:33Z</time>
            </trkpt>
            <trkpt lon="101.394938" lat="14.166673">
                <ele>131.837891</ele>
                <time>2005-09-24T01:56:42Z</time>
            </trkpt>
            <trkpt lon="101.394916" lat="14.166571">
                <ele>130.395996</ele>
                <time>2005-09-24T01:56:54Z</time>
            </trkpt>
            <trkpt lon="101.394894" lat="14.166334">
                <ele>127.992554</ele>
                <time>2005-09-24T01:57:04Z</time>
            </trkpt>
            <trkpt lon="101.394900" lat="14.166145">
                <ele>126.550659</ele>
                <time>2005-09-24T01:57:12Z</time>
            </trkpt>
            <trkpt lon="101.394912" lat="14.166109">
                <ele>127.031372</ele>
                <time>2005-09-24T01:57:19Z</time>
            </trkpt>
            <trkpt lon="101.394912" lat="14.166108">
                <ele>127.511963</ele>
                <time>2005-09-24T01:57:20Z</time>
            </trkpt>
            <trkpt lon="101.395003" lat="14.165987">
                <ele>125.108765</ele>
                <time>2005-09-24T01:57:27Z</time>
            </trkpt>
            <trkpt lon="101.395132" lat="14.165879">
                <ele>122.705444</ele>
                <time>2005-09-24T01:57:35Z</time>
            </trkpt>
            <trkpt lon="101.395231" lat="14.165760">
                <ele>121.744141</ele>
                <time>2005-09-24T01:57:43Z</time>
            </trkpt>
            <trkpt lon="101.395270" lat="14.165667">
                <ele>121.263550</ele>
                <time>2005-09-24T01:57:52Z</time>
            </trkpt>
            <trkpt lon="101.395332" lat="14.165509">
                <ele>121.263550</ele>
                <time>2005-09-24T01:58:01Z</time>
            </trkpt>
            <trkpt lon="101.395369" lat="14.165469">
                <ele>120.302124</ele>
                <time>2005-09-24T01:58:08Z</time>
            </trkpt>
            <trkpt lon="101.395458" lat="14.165279">
                <ele>116.937500</ele>
                <time>2005-09-24T01:58:16Z</time>
            </trkpt>
            <trkpt lon="101.395542" lat="14.165101">
                <ele>115.976196</ele>
                <time>2005-09-24T01:58:24Z</time>
            </trkpt>
            <trkpt lon="101.395547" lat="14.165062">
                <ele>115.495605</ele>
                <time>2005-09-24T01:58:30Z</time>
            </trkpt>
            <trkpt lon="101.395544" lat="14.164997">
                <ele>115.014893</ele>
                <time>2005-09-24T01:58:34Z</time>
            </trkpt>
            <trkpt lon="101.395487" lat="14.164816">
                <ele>114.534180</ele>
                <time>2005-09-24T01:58:41Z</time>
            </trkpt>
            <trkpt lon="101.395500" lat="14.164674">
                <ele>112.611572</ele>
                <time>2005-09-24T01:58:47Z</time>
            </trkpt>
            <trkpt lon="101.395560" lat="14.164436">
                <ele>112.130981</ele>
                <time>2005-09-24T01:58:58Z</time>
            </trkpt>
            <trkpt lon="101.395583" lat="14.164385">
                <ele>111.650269</ele>
                <time>2005-09-24T01:59:33Z</time>
            </trkpt>
            <trkpt lon="101.395608" lat="14.164408">
                <ele>112.130981</ele>
                <time>2005-09-24T01:59:51Z</time>
            </trkpt>
            <trkpt lon="101.395604" lat="14.164425">
                <ele>112.130981</ele>
                <time>2005-09-24T02:00:08Z</time>
            </trkpt>
            <trkpt lon="101.395587" lat="14.164248">
                <ele>111.169556</ele>
                <time>2005-09-24T02:02:23Z</time>
            </trkpt>
            <trkpt lon="101.395586" lat="14.164228">
                <ele>111.650269</ele>
                <time>2005-09-24T02:02:25Z</time>
            </trkpt>
            <trkpt lon="101.395581" lat="14.164192">
                <ele>110.208252</ele>
                <time>2005-09-24T02:02:28Z</time>
            </trkpt>
            <trkpt lon="101.395602" lat="14.164031">
                <ele>108.285645</ele>
                <time>2005-09-24T02:02:38Z</time>
            </trkpt>
            <trkpt lon="101.395750" lat="14.163883">
                <ele>107.324341</ele>
                <time>2005-09-24T02:02:49Z</time>
            </trkpt>
            <trkpt lon="101.395886" lat="14.163745">
                <ele>106.363037</ele>
                <time>2005-09-24T02:02:58Z</time>
            </trkpt>
            <trkpt lon="101.395995" lat="14.163639">
                <ele>106.363037</ele>
                <time>2005-09-24T02:03:06Z</time>
            </trkpt>
            <trkpt lon="101.396021" lat="14.163600">
                <ele>104.921021</ele>
                <time>2005-09-24T02:03:16Z</time>
            </trkpt>
            <trkpt lon="101.396117" lat="14.163528">
                <ele>104.440430</ele>
                <time>2005-09-24T02:03:24Z</time>
            </trkpt>
            <trkpt lon="101.396155" lat="14.163545">
                <ele>104.440430</ele>
                <time>2005-09-24T02:03:31Z</time>
            </trkpt>
            <trkpt lon="101.396239" lat="14.163470">
                <ele>102.998291</ele>
                <time>2005-09-24T02:03:52Z</time>
            </trkpt>
            <trkpt lon="101.396418" lat="14.163360">
                <ele>102.517700</ele>
                <time>2005-09-24T02:04:03Z</time>
            </trkpt>
            <trkpt lon="101.396504" lat="14.163322">
                <ele>102.517700</ele>
                <time>2005-09-24T02:04:12Z</time>
            </trkpt>
            <trkpt lon="101.396606" lat="14.163244">
                <ele>101.556396</ele>
                <time>2005-09-24T02:04:54Z</time>
            </trkpt>
            <trkpt lon="101.396746" lat="14.163127">
                <ele>101.075684</ele>
                <time>2005-09-24T02:05:04Z</time>
            </trkpt>
            <trkpt lon="101.396929" lat="14.163009">
                <ele>101.075684</ele>
                <time>2005-09-24T02:05:14Z</time>
            </trkpt>
            <trkpt lon="101.397111" lat="14.162956">
                <ele>101.075684</ele>
                <time>2005-09-24T02:05:23Z</time>
            </trkpt>
            <trkpt lon="101.397230" lat="14.162972">
                <ele>101.075684</ele>
                <time>2005-09-24T02:05:28Z</time>
            </trkpt>
            <trkpt lon="101.397433" lat="14.162834">
                <ele>99.153076</ele>
                <time>2005-09-24T02:05:39Z</time>
            </trkpt>
            <trkpt lon="101.397635" lat="14.162733">
                <ele>99.153076</ele>
                <time>2005-09-24T02:05:50Z</time>
            </trkpt>
            <trkpt lon="101.397651" lat="14.162733">
                <ele>98.672485</ele>
                <time>2005-09-24T02:05:59Z</time>
            </trkpt>
            <trkpt lon="101.397705" lat="14.162685">
                <ele>97.711182</ele>
                <time>2005-09-24T02:06:08Z</time>
            </trkpt>
            <trkpt lon="101.397765" lat="14.162524">
                <ele>96.749878</ele>
                <time>2005-09-24T02:06:15Z</time>
            </trkpt>
            <trkpt lon="101.397794" lat="14.162473">
                <ele>96.269287</ele>
                <time>2005-09-24T02:06:21Z</time>
            </trkpt>
            <trkpt lon="101.397806" lat="14.162463">
                <ele>96.269287</ele>
                <time>2005-09-24T02:06:22Z</time>
            </trkpt>
            <trkpt lon="101.397874" lat="14.162414">
                <ele>95.307739</ele>
                <time>2005-09-24T02:06:27Z</time>
            </trkpt>
            <trkpt lon="101.397990" lat="14.162338">
                <ele>95.307739</ele>
                <time>2005-09-24T02:06:37Z</time>
            </trkpt>
            <trkpt lon="101.398133" lat="14.162184">
                <ele>95.307739</ele>
                <time>2005-09-24T02:06:50Z</time>
            </trkpt>
            <trkpt lon="101.398251" lat="14.162078">
                <ele>94.827148</ele>
                <time>2005-09-24T02:06:58Z</time>
            </trkpt>
            <trkpt lon="101.398312" lat="14.162033">
                <ele>94.827148</ele>
                <time>2005-09-24T02:07:08Z</time>
            </trkpt>
            <trkpt lon="101.398441" lat="14.161916">
                <ele>93.865845</ele>
                <time>2005-09-24T02:07:16Z</time>
            </trkpt>
            <trkpt lon="101.398579" lat="14.161850">
                <ele>93.865845</ele>
                <time>2005-09-24T02:07:24Z</time>
            </trkpt>
            <trkpt lon="101.398706" lat="14.161774">
                <ele>90.981934</ele>
                <time>2005-09-24T02:07:49Z</time>
            </trkpt>
            <trkpt lon="101.398820" lat="14.161661">
                <ele>89.539917</ele>
                <time>2005-09-24T02:07:57Z</time>
            </trkpt>
            <trkpt lon="101.398916" lat="14.161563">
                <ele>89.059326</ele>
                <time>2005-09-24T02:08:06Z</time>
            </trkpt>
            <trkpt lon="101.398956" lat="14.161430">
                <ele>88.578735</ele>
                <time>2005-09-24T02:08:14Z</time>
            </trkpt>
            <trkpt lon="101.398971" lat="14.161213">
                <ele>86.656006</ele>
                <time>2005-09-24T02:08:24Z</time>
            </trkpt>
            <trkpt lon="101.399030" lat="14.160984">
                <ele>84.733398</ele>
                <time>2005-09-24T02:08:33Z</time>
            </trkpt>
            <trkpt lon="101.399047" lat="14.160933">
                <ele>84.252686</ele>
                <time>2005-09-24T02:08:35Z</time>
            </trkpt>
            <trkpt lon="101.399119" lat="14.160713">
                <ele>83.771973</ele>
                <time>2005-09-24T02:08:45Z</time>
            </trkpt>
            <trkpt lon="101.399133" lat="14.160689">
                <ele>83.771973</ele>
                <time>2005-09-24T02:08:49Z</time>
            </trkpt>
            <trkpt lon="101.399161" lat="14.160684">
                <ele>81.849365</ele>
                <time>2005-09-24T02:09:00Z</time>
            </trkpt>
            <trkpt lon="101.399164" lat="14.160680">
                <ele>81.368774</ele>
                <time>2005-09-24T02:09:05Z</time>
            </trkpt>
            <trkpt lon="101.399168" lat="14.160665">
                <ele>82.330078</ele>
                <time>2005-09-24T02:09:46Z</time>
            </trkpt>
            <trkpt lon="101.399166" lat="14.160659">
                <ele>82.330078</ele>
                <time>2005-09-24T02:09:52Z</time>
            </trkpt>
            <trkpt lon="101.399204" lat="14.160579">
                <ele>81.368774</ele>
                <time>2005-09-24T02:09:57Z</time>
            </trkpt>
            <trkpt lon="101.399253" lat="14.160530">
                <ele>80.407471</ele>
                <time>2005-09-24T02:10:00Z</time>
            </trkpt>
            <trkpt lon="101.399328" lat="14.160464">
                <ele>79.926636</ele>
                <time>2005-09-24T02:10:04Z</time>
            </trkpt>
            <trkpt lon="101.399451" lat="14.160281">
                <ele>76.562134</ele>
                <time>2005-09-24T02:10:10Z</time>
            </trkpt>
            <trkpt lon="101.399644" lat="14.160135">
                <ele>76.081421</ele>
                <time>2005-09-24T02:10:17Z</time>
            </trkpt>
            <trkpt lon="101.399850" lat="14.160005">
                <ele>75.120239</ele>
                <time>2005-09-24T02:10:25Z</time>
            </trkpt>
            <trkpt lon="101.400017" lat="14.159907">
                <ele>73.678223</ele>
                <time>2005-09-24T02:10:33Z</time>
            </trkpt>
            <trkpt lon="101.400275" lat="14.159746">
                <ele>72.716919</ele>
                <time>2005-09-24T02:10:45Z</time>
            </trkpt>
            <trkpt lon="101.400392" lat="14.159679">
                <ele>70.313477</ele>
                <time>2005-09-24T02:10:51Z</time>
            </trkpt>
            <trkpt lon="101.400486" lat="14.159648">
                <ele>68.390869</ele>
                <time>2005-09-24T02:10:54Z</time>
            </trkpt>
            <trkpt lon="101.400659" lat="14.159533">
                <ele>68.390869</ele>
                <time>2005-09-24T02:11:03Z</time>
            </trkpt>
            <trkpt lon="101.400803" lat="14.159467">
                <ele>68.390869</ele>
                <time>2005-09-24T02:11:11Z</time>
            </trkpt>
            <trkpt lon="101.401064" lat="14.159448">
                <ele>71.274902</ele>
                <time>2005-09-24T02:11:25Z</time>
            </trkpt>
            <trkpt lon="101.401171" lat="14.159348">
                <ele>70.313477</ele>
                <time>2005-09-24T02:11:33Z</time>
            </trkpt>
            <trkpt lon="101.401219" lat="14.159304">
                <ele>70.313477</ele>
                <time>2005-09-24T02:11:36Z</time>
            </trkpt>
            <trkpt lon="101.401218" lat="14.159196">
                <ele>69.352295</ele>
                <time>2005-09-24T02:11:41Z</time>
            </trkpt>
            <trkpt lon="101.401207" lat="14.159130">
                <ele>68.871582</ele>
                <time>2005-09-24T02:11:44Z</time>
            </trkpt>
            <trkpt lon="101.401259" lat="14.158881">
                <ele>66.948975</ele>
                <time>2005-09-24T02:11:54Z</time>
            </trkpt>
            <trkpt lon="101.401432" lat="14.158558">
                <ele>65.026367</ele>
                <time>2005-09-24T02:12:05Z</time>
            </trkpt>
            <trkpt lon="101.401662" lat="14.158317">
                <ele>63.584351</ele>
                <time>2005-09-24T02:12:16Z</time>
            </trkpt>
            <trkpt lon="101.401718" lat="14.158263">
                <ele>63.584351</ele>
                <time>2005-09-24T02:12:19Z</time>
            </trkpt>
            <trkpt lon="101.401965" lat="14.158142">
                <ele>63.584351</ele>
                <time>2005-09-24T02:12:31Z</time>
            </trkpt>
            <trkpt lon="101.402324" lat="14.158096">
                <ele>64.065063</ele>
                <time>2005-09-24T02:12:45Z</time>
            </trkpt>
            <trkpt lon="101.402396" lat="14.158085">
                <ele>64.065063</ele>
                <time>2005-09-24T02:12:48Z</time>
            </trkpt>
            <trkpt lon="101.402527" lat="14.158087">
                <ele>64.065063</ele>
                <time>2005-09-24T02:12:52Z</time>
            </trkpt>
            <trkpt lon="101.402733" lat="14.158000">
                <ele>65.507080</ele>
                <time>2005-09-24T02:13:00Z</time>
            </trkpt>
            <trkpt lon="101.402936" lat="14.157861">
                <ele>66.468262</ele>
                <time>2005-09-24T02:13:11Z</time>
            </trkpt>
            <trkpt lon="101.403071" lat="14.157686">
                <ele>66.468262</ele>
                <time>2005-09-24T02:13:21Z</time>
            </trkpt>
            <trkpt lon="101.403190" lat="14.157562">
                <ele>67.429688</ele>
                <time>2005-09-24T02:13:31Z</time>
            </trkpt>
            <trkpt lon="101.403367" lat="14.157481">
                <ele>67.429688</ele>
                <time>2005-09-24T02:13:43Z</time>
            </trkpt>
            <trkpt lon="101.403478" lat="14.157428">
                <ele>67.910278</ele>
                <time>2005-09-24T02:13:49Z</time>
            </trkpt>
            <trkpt lon="101.403524" lat="14.157325">
                <ele>67.910278</ele>
                <time>2005-09-24T02:13:57Z</time>
            </trkpt>
            <trkpt lon="101.403516" lat="14.157301">
                <ele>67.429688</ele>
                <time>2005-09-24T02:14:08Z</time>
            </trkpt>
            <trkpt lon="101.403477" lat="14.157243">
                <ele>67.910278</ele>
                <time>2005-09-24T02:14:18Z</time>
            </trkpt>
            <trkpt lon="101.403465" lat="14.157221">
                <ele>67.910278</ele>
                <time>2005-09-24T02:14:20Z</time>
            </trkpt>
            <trkpt lon="101.403421" lat="14.157112">
                <ele>67.429688</ele>
                <time>2005-09-24T02:14:30Z</time>
            </trkpt>
            <trkpt lon="101.403455" lat="14.156841">
                <ele>66.948975</ele>
                <time>2005-09-24T02:14:41Z</time>
            </trkpt>
            <trkpt lon="101.403496" lat="14.156533">
                <ele>66.948975</ele>
                <time>2005-09-24T02:14:52Z</time>
            </trkpt>
            <trkpt lon="101.403513" lat="14.156237">
                <ele>66.468262</ele>
                <time>2005-09-24T02:15:02Z</time>
            </trkpt>
            <trkpt lon="101.403537" lat="14.155872">
                <ele>65.507080</ele>
                <time>2005-09-24T02:15:15Z</time>
            </trkpt>
            <trkpt lon="101.403566" lat="14.155594">
                <ele>65.507080</ele>
                <time>2005-09-24T02:15:23Z</time>
            </trkpt>
            <trkpt lon="101.403671" lat="14.155222">
                <ele>64.065063</ele>
                <time>2005-09-24T02:15:33Z</time>
            </trkpt>
            <trkpt lon="101.403782" lat="14.154911">
                <ele>62.622925</ele>
                <time>2005-09-24T02:15:40Z</time>
            </trkpt>
            <trkpt lon="101.403910" lat="14.154537">
                <ele>61.661743</ele>
                <time>2005-09-24T02:15:49Z</time>
            </trkpt>
            <trkpt lon="101.403988" lat="14.154293">
                <ele>62.142334</ele>
                <time>2005-09-24T02:15:57Z</time>
            </trkpt>
            <trkpt lon="101.404070" lat="14.154103">
                <ele>61.661743</ele>
                <time>2005-09-24T02:16:04Z</time>
            </trkpt>
            <trkpt lon="101.404076" lat="14.153977">
                <ele>61.661743</ele>
                <time>2005-09-24T02:16:12Z</time>
            </trkpt>
            <trkpt lon="101.404065" lat="14.153969">
                <ele>62.142334</ele>
                <time>2005-09-24T02:16:24Z</time>
            </trkpt>
            <trkpt lon="101.403932" lat="14.153883">
                <ele>61.661743</ele>
                <time>2005-09-24T02:16:32Z</time>
            </trkpt>
            <trkpt lon="101.403923" lat="14.153863">
                <ele>62.622925</ele>
                <time>2005-09-24T02:16:33Z</time>
            </trkpt>
            <trkpt lon="101.404056" lat="14.153775">
                <ele>61.661743</ele>
                <time>2005-09-24T02:16:39Z</time>
            </trkpt>
            <trkpt lon="101.404184" lat="14.153706">
                <ele>59.258423</ele>
                <time>2005-09-24T02:16:43Z</time>
            </trkpt>
            <trkpt lon="101.404135" lat="14.153525">
                <ele>60.219727</ele>
                <time>2005-09-24T02:16:48Z</time>
            </trkpt>
            <trkpt lon="101.404123" lat="14.153497">
                <ele>60.219727</ele>
                <time>2005-09-24T02:16:49Z</time>
            </trkpt>
            <trkpt lon="101.404056" lat="14.153370">
                <ele>61.181030</ele>
                <time>2005-09-24T02:16:57Z</time>
            </trkpt>
            <trkpt lon="101.404015" lat="14.153357">
                <ele>60.700317</ele>
                <time>2005-09-24T02:17:03Z</time>
            </trkpt>
            <trkpt lon="101.404008" lat="14.153359">
                <ele>60.219727</ele>
                <time>2005-09-24T02:17:16Z</time>
            </trkpt>
            <trkpt lon="101.403995" lat="14.153342">
                <ele>57.335815</ele>
                <time>2005-09-24T02:20:37Z</time>
            </trkpt>
            <trkpt lon="101.403991" lat="14.153335">
                <ele>56.855103</ele>
                <time>2005-09-24T02:23:15Z</time>
            </trkpt>
            <trkpt lon="101.404007" lat="14.153333">
                <ele>56.855103</ele>
                <time>2005-09-24T02:23:34Z</time>
            </trkpt>
            <trkpt lon="101.404013" lat="14.153338">
                <ele>56.855103</ele>
                <time>2005-09-24T02:23:41Z</time>
            </trkpt>
            <trkpt lon="101.404061" lat="14.153452">
                <ele>56.374512</ele>
                <time>2005-09-24T02:23:48Z</time>
            </trkpt>
            <trkpt lon="101.404196" lat="14.153587">
                <ele>56.374512</ele>
                <time>2005-09-24T02:23:56Z</time>
            </trkpt>
            <trkpt lon="101.404184" lat="14.153693">
                <ele>56.855103</ele>
                <time>2005-09-24T02:24:01Z</time>
            </trkpt>
            <trkpt lon="101.404193" lat="14.153855">
                <ele>57.335815</ele>
                <time>2005-09-24T02:24:10Z</time>
            </trkpt>
            <trkpt lon="101.404303" lat="14.153953">
                <ele>56.374512</ele>
                <time>2005-09-24T02:24:16Z</time>
            </trkpt>
            <trkpt lon="101.404522" lat="14.154019">
                <ele>55.893799</ele>
                <time>2005-09-24T02:24:24Z</time>
            </trkpt>
            <trkpt lon="101.404825" lat="14.154112">
                <ele>56.374512</ele>
                <time>2005-09-24T02:24:33Z</time>
            </trkpt>
            <trkpt lon="101.405100" lat="14.154189">
                <ele>56.855103</ele>
                <time>2005-09-24T02:24:41Z</time>
            </trkpt>
            <trkpt lon="101.405387" lat="14.154279">
                <ele>55.893799</ele>
                <time>2005-09-24T02:24:49Z</time>
            </trkpt>
            <trkpt lon="101.405784" lat="14.154398">
                <ele>55.893799</ele>
                <time>2005-09-24T02:24:59Z</time>
            </trkpt>
            <trkpt lon="101.406244" lat="14.154531">
                <ele>56.374512</ele>
                <time>2005-09-24T02:25:09Z</time>
            </trkpt>
            <trkpt lon="101.406740" lat="14.154680">
                <ele>55.413086</ele>
                <time>2005-09-24T02:25:20Z</time>
            </trkpt>
            <trkpt lon="101.407184" lat="14.154811">
                <ele>56.855103</ele>
                <time>2005-09-24T02:25:30Z</time>
            </trkpt>
            <trkpt lon="101.407597" lat="14.154932">
                <ele>55.893799</ele>
                <time>2005-09-24T02:25:40Z</time>
            </trkpt>
            <trkpt lon="101.408056" lat="14.155068">
                <ele>55.893799</ele>
                <time>2005-09-24T02:25:50Z</time>
            </trkpt>
            <trkpt lon="101.408553" lat="14.155210">
                <ele>56.855103</ele>
                <time>2005-09-24T02:26:02Z</time>
            </trkpt>
            <trkpt lon="101.408899" lat="14.155294">
                <ele>57.335815</ele>
                <time>2005-09-24T02:26:12Z</time>
            </trkpt>
            <trkpt lon="101.409049" lat="14.155307">
                <ele>58.777710</ele>
                <time>2005-09-24T02:26:19Z</time>
            </trkpt>
            <trkpt lon="101.409205" lat="14.155292">
                <ele>59.739136</ele>
                <time>2005-09-24T02:26:27Z</time>
            </trkpt>
            <trkpt lon="101.409346" lat="14.155336">
                <ele>60.219727</ele>
                <time>2005-09-24T02:26:37Z</time>
            </trkpt>
            <trkpt lon="101.409457" lat="14.155506">
                <ele>62.142334</ele>
                <time>2005-09-24T02:26:50Z</time>
            </trkpt>
            <trkpt lon="101.409616" lat="14.155680">
                <ele>61.661743</ele>
                <time>2005-09-24T02:27:00Z</time>
            </trkpt>
            <trkpt lon="101.409754" lat="14.155808">
                <ele>62.142334</ele>
                <time>2005-09-24T02:27:08Z</time>
            </trkpt>
            <trkpt lon="101.409822" lat="14.155827">
                <ele>62.142334</ele>
                <time>2005-09-24T02:27:15Z</time>
            </trkpt>
            <trkpt lon="101.409858" lat="14.155866">
                <ele>62.622925</ele>
                <time>2005-09-24T02:27:19Z</time>
            </trkpt>
            <trkpt lon="101.409965" lat="14.156005">
                <ele>63.103638</ele>
                <time>2005-09-24T02:27:29Z</time>
            </trkpt>
            <trkpt lon="101.410103" lat="14.156128">
                <ele>63.584351</ele>
                <time>2005-09-24T02:27:40Z</time>
            </trkpt>
            <trkpt lon="101.410139" lat="14.156168">
                <ele>63.584351</ele>
                <time>2005-09-24T02:27:43Z</time>
            </trkpt>
            <trkpt lon="101.410345" lat="14.156350">
                <ele>64.065063</ele>
                <time>2005-09-24T02:27:52Z</time>
            </trkpt>
            <trkpt lon="101.410496" lat="14.156497">
                <ele>64.545654</ele>
                <time>2005-09-24T02:28:01Z</time>
            </trkpt>
            <trkpt lon="101.410643" lat="14.156662">
                <ele>65.507080</ele>
                <time>2005-09-24T02:28:12Z</time>
            </trkpt>
            <trkpt lon="101.410777" lat="14.156771">
                <ele>65.507080</ele>
                <time>2005-09-24T02:28:20Z</time>
            </trkpt>
            <trkpt lon="101.410960" lat="14.156956">
                <ele>65.507080</ele>
                <time>2005-09-24T02:28:30Z</time>
            </trkpt>
            <trkpt lon="101.411167" lat="14.157169">
                <ele>64.065063</ele>
                <time>2005-09-24T02:28:39Z</time>
            </trkpt>
            <trkpt lon="101.411435" lat="14.157405">
                <ele>64.065063</ele>
                <time>2005-09-24T02:28:49Z</time>
            </trkpt>
            <trkpt lon="101.411798" lat="14.157705">
                <ele>61.661743</ele>
                <time>2005-09-24T02:29:02Z</time>
            </trkpt>
            <trkpt lon="101.412133" lat="14.157887">
                <ele>60.700317</ele>
                <time>2005-09-24T02:29:13Z</time>
            </trkpt>
            <trkpt lon="101.412481" lat="14.158045">
                <ele>59.258423</ele>
                <time>2005-09-24T02:29:24Z</time>
            </trkpt>
            <trkpt lon="101.412728" lat="14.158143">
                <ele>59.739136</ele>
                <time>2005-09-24T02:29:33Z</time>
            </trkpt>
            <trkpt lon="101.412918" lat="14.158224">
                <ele>57.816528</ele>
                <time>2005-09-24T02:29:43Z</time>
            </trkpt>
            <trkpt lon="101.413153" lat="14.158314">
                <ele>57.335815</ele>
                <time>2005-09-24T02:29:52Z</time>
            </trkpt>
            <trkpt lon="101.413450" lat="14.158445">
                <ele>56.374512</ele>
                <time>2005-09-24T02:30:03Z</time>
            </trkpt>
            <trkpt lon="101.413824" lat="14.158572">
                <ele>55.893799</ele>
                <time>2005-09-24T02:30:16Z</time>
            </trkpt>
            <trkpt lon="101.414142" lat="14.158686">
                <ele>55.413086</ele>
                <time>2005-09-24T02:30:28Z</time>
            </trkpt>
            <trkpt lon="101.414385" lat="14.158786">
                <ele>54.932373</ele>
                <time>2005-09-24T02:30:38Z</time>
            </trkpt>
            <trkpt lon="101.414585" lat="14.158852">
                <ele>54.451782</ele>
                <time>2005-09-24T02:30:47Z</time>
            </trkpt>
            <trkpt lon="101.414839" lat="14.158916">
                <ele>53.490479</ele>
                <time>2005-09-24T02:30:58Z</time>
            </trkpt>
            <trkpt lon="101.415000" lat="14.159033">
                <ele>51.567871</ele>
                <time>2005-09-24T02:31:09Z</time>
            </trkpt>
            <trkpt lon="101.415043" lat="14.159106">
                <ele>50.606567</ele>
                <time>2005-09-24T02:31:18Z</time>
            </trkpt>
            <trkpt lon="101.415067" lat="14.159135">
                <ele>51.567871</ele>
                <time>2005-09-24T02:31:32Z</time>
            </trkpt>
            <trkpt lon="101.415131" lat="14.159188">
                <ele>51.087158</ele>
                <time>2005-09-24T02:31:38Z</time>
            </trkpt>
            <trkpt lon="101.415238" lat="14.159259">
                <ele>49.645264</ele>
                <time>2005-09-24T02:31:46Z</time>
            </trkpt>
            <trkpt lon="101.415338" lat="14.159322">
                <ele>47.722534</ele>
                <time>2005-09-24T02:31:56Z</time>
            </trkpt>
            <trkpt lon="101.415390" lat="14.159367">
                <ele>46.280640</ele>
                <time>2005-09-24T02:32:07Z</time>
            </trkpt>
            <trkpt lon="101.415495" lat="14.159451">
                <ele>44.358032</ele>
                <time>2005-09-24T02:32:14Z</time>
            </trkpt>
            <trkpt lon="101.415524" lat="14.159486">
                <ele>43.877319</ele>
                <time>2005-09-24T02:32:20Z</time>
            </trkpt>
            <trkpt lon="101.415543" lat="14.159499">
                <ele>44.358032</ele>
                <time>2005-09-24T02:32:30Z</time>
            </trkpt>
            <trkpt lon="101.415589" lat="14.159566">
                <ele>42.435425</ele>
                <time>2005-09-24T02:32:38Z</time>
            </trkpt>
            <trkpt lon="101.415680" lat="14.159696">
                <ele>40.993408</ele>
                <time>2005-09-24T02:32:48Z</time>
            </trkpt>
            <trkpt lon="101.415799" lat="14.159839">
                <ele>39.070679</ele>
                <time>2005-09-24T02:32:57Z</time>
            </trkpt>
            <trkpt lon="101.416016" lat="14.160068">
                <ele>38.590088</ele>
                <time>2005-09-24T02:33:09Z</time>
            </trkpt>
            <trkpt lon="101.416119" lat="14.160179">
                <ele>39.070679</ele>
                <time>2005-09-24T02:33:15Z</time>
            </trkpt>
            <trkpt lon="101.416338" lat="14.160408">
                <ele>37.628662</ele>
                <time>2005-09-24T02:33:26Z</time>
            </trkpt>
            <trkpt lon="101.416495" lat="14.160555">
                <ele>37.628662</ele>
                <time>2005-09-24T02:33:33Z</time>
            </trkpt>
            <trkpt lon="101.416752" lat="14.160798">
                <ele>37.628662</ele>
                <time>2005-09-24T02:33:45Z</time>
            </trkpt>
            <trkpt lon="101.416972" lat="14.161012">
                <ele>38.109375</ele>
                <time>2005-09-24T02:33:55Z</time>
            </trkpt>
            <trkpt lon="101.417233" lat="14.161257">
                <ele>39.070679</ele>
                <time>2005-09-24T02:34:07Z</time>
            </trkpt>
            <trkpt lon="101.417402" lat="14.161451">
                <ele>38.109375</ele>
                <time>2005-09-24T02:34:16Z</time>
            </trkpt>
            <trkpt lon="101.417581" lat="14.161676">
                <ele>36.667480</ele>
                <time>2005-09-24T02:34:27Z</time>
            </trkpt>
            <trkpt lon="101.417668" lat="14.161777">
                <ele>35.706055</ele>
                <time>2005-09-24T02:34:36Z</time>
            </trkpt>
            <trkpt lon="101.417734" lat="14.161849">
                <ele>35.225464</ele>
                <time>2005-09-24T02:34:44Z</time>
            </trkpt>
            <trkpt lon="101.417743" lat="14.161863">
                <ele>35.225464</ele>
                <time>2005-09-24T02:34:46Z</time>
            </trkpt>
            <trkpt lon="101.417754" lat="14.161888">
                <ele>35.225464</ele>
                <time>2005-09-24T02:34:49Z</time>
            </trkpt>
            <trkpt lon="101.417810" lat="14.161960">
                <ele>34.264160</ele>
                <time>2005-09-24T02:34:57Z</time>
            </trkpt>
            <trkpt lon="101.417835" lat="14.162048">
                <ele>34.264160</ele>
                <time>2005-09-24T02:35:06Z</time>
            </trkpt>
            <trkpt lon="101.417856" lat="14.162060">
                <ele>33.783447</ele>
                <time>2005-09-24T02:35:13Z</time>
            </trkpt>
            <trkpt lon="101.417897" lat="14.162125">
                <ele>33.302856</ele>
                <time>2005-09-24T02:35:19Z</time>
            </trkpt>
            <trkpt lon="101.417978" lat="14.162251">
                <ele>32.341553</ele>
                <time>2005-09-24T02:35:25Z</time>
            </trkpt>
            <trkpt lon="101.418048" lat="14.162371">
                <ele>32.822266</ele>
                <time>2005-09-24T02:35:32Z</time>
            </trkpt>
            <trkpt lon="101.418196" lat="14.162540">
                <ele>31.860718</ele>
                <time>2005-09-24T02:35:42Z</time>
            </trkpt>
            <trkpt lon="101.418310" lat="14.162685">
                <ele>30.899536</ele>
                <time>2005-09-24T02:35:51Z</time>
            </trkpt>
            <trkpt lon="101.418419" lat="14.162873">
                <ele>29.457520</ele>
                <time>2005-09-24T02:36:00Z</time>
            </trkpt>
            <trkpt lon="101.418541" lat="14.163059">
                <ele>29.938110</ele>
                <time>2005-09-24T02:36:09Z</time>
            </trkpt>
            <trkpt lon="101.418549" lat="14.163066">
                <ele>29.938110</ele>
                <time>2005-09-24T02:36:16Z</time>
            </trkpt>
            <trkpt lon="101.418534" lat="14.163098">
                <ele>30.418823</ele>
                <time>2005-09-24T02:36:37Z</time>
            </trkpt>
            <trkpt lon="101.418540" lat="14.163117">
                <ele>30.899536</ele>
                <time>2005-09-24T02:36:55Z</time>
            </trkpt>
            <trkpt lon="101.418543" lat="14.163155">
                <ele>30.418823</ele>
                <time>2005-09-24T02:36:57Z</time>
            </trkpt>
            <trkpt lon="101.418552" lat="14.163226">
                <ele>29.938110</ele>
                <time>2005-09-24T02:37:02Z</time>
            </trkpt>
            <trkpt lon="101.418543" lat="14.163297">
                <ele>29.938110</ele>
                <time>2005-09-24T02:37:06Z</time>
            </trkpt>
            <trkpt lon="101.418522" lat="14.163590">
                <ele>29.938110</ele>
                <time>2005-09-24T02:37:18Z</time>
            </trkpt>
            <trkpt lon="101.418511" lat="14.163962">
                <ele>28.976929</ele>
                <time>2005-09-24T02:37:30Z</time>
            </trkpt>
            <trkpt lon="101.418491" lat="14.164253">
                <ele>28.976929</ele>
                <time>2005-09-24T02:37:40Z</time>
            </trkpt>
            <trkpt lon="101.418468" lat="14.164521">
                <ele>28.496216</ele>
                <time>2005-09-24T02:37:49Z</time>
            </trkpt>
            <trkpt lon="101.418445" lat="14.164743">
                <ele>28.976929</ele>
                <time>2005-09-24T02:37:56Z</time>
            </trkpt>
            <trkpt lon="101.418428" lat="14.165010">
                <ele>27.534912</ele>
                <time>2005-09-24T02:38:04Z</time>
            </trkpt>
            <trkpt lon="101.418403" lat="14.165284">
                <ele>27.054321</ele>
                <time>2005-09-24T02:38:13Z</time>
            </trkpt>
            <trkpt lon="101.418385" lat="14.165555">
                <ele>25.612305</ele>
                <time>2005-09-24T02:38:21Z</time>
            </trkpt>
            <trkpt lon="101.418352" lat="14.166021">
                <ele>25.612305</ele>
                <time>2005-09-24T02:38:35Z</time>
            </trkpt>
            <trkpt lon="101.418327" lat="14.166472">
                <ele>25.131714</ele>
                <time>2005-09-24T02:38:49Z</time>
            </trkpt>
            <trkpt lon="101.418320" lat="14.166792">
                <ele>24.170288</ele>
                <time>2005-09-24T02:38:59Z</time>
            </trkpt>
            <trkpt lon="101.418276" lat="14.167137">
                <ele>24.170288</ele>
                <time>2005-09-24T02:39:10Z</time>
            </trkpt>
            <trkpt lon="101.418203" lat="14.167505">
                <ele>23.208984</ele>
                <time>2005-09-24T02:39:22Z</time>
            </trkpt>
            <trkpt lon="101.418195" lat="14.167574">
                <ele>23.689575</ele>
                <time>2005-09-24T02:39:28Z</time>
            </trkpt>
            <trkpt lon="101.418188" lat="14.167607">
                <ele>23.689575</ele>
                <time>2005-09-24T02:39:55Z</time>
            </trkpt>
            <trkpt lon="101.418188" lat="14.167620">
                <ele>23.689575</ele>
                <time>2005-09-24T02:40:10Z</time>
            </trkpt>
            <trkpt lon="101.418175" lat="14.167574">
                <ele>23.689575</ele>
                <time>2005-09-24T02:40:59Z</time>
            </trkpt>
            <trkpt lon="101.418159" lat="14.167591">
                <ele>23.689575</ele>
                <time>2005-09-24T02:42:03Z</time>
            </trkpt>
            <trkpt lon="101.418164" lat="14.167604">
                <ele>23.208984</ele>
                <time>2005-09-24T02:42:32Z</time>
            </trkpt>
            <trkpt lon="101.418144" lat="14.167630">
                <ele>23.208984</ele>
                <time>2005-09-24T02:42:42Z</time>
            </trkpt>
            <trkpt lon="101.418143" lat="14.167626">
                <ele>22.247559</ele>
                <time>2005-09-24T02:42:50Z</time>
            </trkpt>
            <trkpt lon="101.418169" lat="14.167640">
                <ele>24.170288</ele>
                <time>2005-09-24T02:46:44Z</time>
            </trkpt>
            <trkpt lon="101.418163" lat="14.167639">
                <ele>24.170288</ele>
                <time>2005-09-24T02:46:45Z</time>
            </trkpt>
            <trkpt lon="101.418000" lat="14.167613">
                <ele>23.689575</ele>
                <time>2005-09-24T02:46:54Z</time>
            </trkpt>
            <trkpt lon="101.417810" lat="14.167684">
                <ele>23.689575</ele>
                <time>2005-09-24T02:47:02Z</time>
            </trkpt>
            <trkpt lon="101.417525" lat="14.167886">
                <ele>24.651001</ele>
                <time>2005-09-24T02:47:14Z</time>
            </trkpt>
            <trkpt lon="101.417279" lat="14.168070">
                <ele>24.170288</ele>
                <time>2005-09-24T02:47:25Z</time>
            </trkpt>
            <trkpt lon="101.417051" lat="14.168260">
                <ele>23.208984</ele>
                <time>2005-09-24T02:47:34Z</time>
            </trkpt>
            <trkpt lon="101.416835" lat="14.168409">
                <ele>23.689575</ele>
                <time>2005-09-24T02:47:43Z</time>
            </trkpt>
            <trkpt lon="101.416758" lat="14.168456">
                <ele>24.170288</ele>
                <time>2005-09-24T02:47:49Z</time>
            </trkpt>
            <trkpt lon="101.416680" lat="14.168474">
                <ele>24.651001</ele>
                <time>2005-09-24T02:48:11Z</time>
            </trkpt>
            <trkpt lon="101.416455" lat="14.168596">
                <ele>25.131714</ele>
                <time>2005-09-24T02:48:19Z</time>
            </trkpt>
            <trkpt lon="101.416123" lat="14.168809">
                <ele>24.651001</ele>
                <time>2005-09-24T02:48:30Z</time>
            </trkpt>
            <trkpt lon="101.415945" lat="14.168964">
                <ele>24.651001</ele>
                <time>2005-09-24T02:48:38Z</time>
            </trkpt>
            <trkpt lon="101.415744" lat="14.169068">
                <ele>25.131714</ele>
                <time>2005-09-24T02:48:48Z</time>
            </trkpt>
            <trkpt lon="101.415641" lat="14.169149">
                <ele>26.092896</ele>
                <time>2005-09-24T02:48:58Z</time>
            </trkpt>
            <trkpt lon="101.415607" lat="14.169169">
                <ele>25.612305</ele>
                <time>2005-09-24T02:49:15Z</time>
            </trkpt>
            <trkpt lon="101.415565" lat="14.169162">
                <ele>25.131714</ele>
                <time>2005-09-24T02:49:22Z</time>
            </trkpt>
            <trkpt lon="101.415551" lat="14.169161">
                <ele>25.131714</ele>
                <time>2005-09-24T02:49:31Z</time>
            </trkpt>
            <trkpt lon="101.415549" lat="14.169150">
                <ele>24.651001</ele>
                <time>2005-09-24T02:49:45Z</time>
            </trkpt>
            <trkpt lon="101.415495" lat="14.169157">
                <ele>23.689575</ele>
                <time>2005-09-24T02:49:53Z</time>
            </trkpt>
            <trkpt lon="101.415449" lat="14.169175">
                <ele>24.651001</ele>
                <time>2005-09-24T02:50:02Z</time>
            </trkpt>
            <trkpt lon="101.415423" lat="14.169203">
                <ele>23.689575</ele>
                <time>2005-09-24T02:50:08Z</time>
            </trkpt>
            <trkpt lon="101.415399" lat="14.169219">
                <ele>23.689575</ele>
                <time>2005-09-24T02:50:17Z</time>
            </trkpt>
            <trkpt lon="101.415332" lat="14.169223">
                <ele>24.651001</ele>
                <time>2005-09-24T02:50:23Z</time>
            </trkpt>
            <trkpt lon="101.415323" lat="14.169224">
                <ele>24.651001</ele>
                <time>2005-09-24T02:50:24Z</time>
            </trkpt>
            <trkpt lon="101.415303" lat="14.169227">
                <ele>26.092896</ele>
                <time>2005-09-24T02:50:33Z</time>
            </trkpt>
            <trkpt lon="101.415245" lat="14.169212">
                <ele>27.054321</ele>
                <time>2005-09-24T02:50:41Z</time>
            </trkpt>
            <trkpt lon="101.415160" lat="14.169201">
                <ele>26.092896</ele>
                <time>2005-09-24T02:50:50Z</time>
            </trkpt>
            <trkpt lon="101.415105" lat="14.169146">
                <ele>27.054321</ele>
                <time>2005-09-24T02:50:58Z</time>
            </trkpt>
            <trkpt lon="101.415042" lat="14.169118">
                <ele>26.573608</ele>
                <time>2005-09-24T02:51:04Z</time>
            </trkpt>
            <trkpt lon="101.414945" lat="14.169078">
                <ele>27.534912</ele>
                <time>2005-09-24T02:51:13Z</time>
            </trkpt>
            <trkpt lon="101.414871" lat="14.169090">
                <ele>26.573608</ele>
                <time>2005-09-24T02:51:21Z</time>
            </trkpt>
            <trkpt lon="101.414817" lat="14.169107">
                <ele>27.534912</ele>
                <time>2005-09-24T02:51:28Z</time>
            </trkpt>
            <trkpt lon="101.414782" lat="14.169131">
                <ele>26.573608</ele>
                <time>2005-09-24T02:51:37Z</time>
            </trkpt>
            <trkpt lon="101.414767" lat="14.169145">
                <ele>26.573608</ele>
                <time>2005-09-24T02:51:44Z</time>
            </trkpt>
            <trkpt lon="101.414751" lat="14.169175">
                <ele>26.573608</ele>
                <time>2005-09-24T02:51:51Z</time>
            </trkpt>
            <trkpt lon="101.414743" lat="14.169234">
                <ele>26.092896</ele>
                <time>2005-09-24T02:51:59Z</time>
            </trkpt>
            <trkpt lon="101.414689" lat="14.169275">
                <ele>25.612305</ele>
                <time>2005-09-24T02:52:07Z</time>
            </trkpt>
            <trkpt lon="101.414683" lat="14.169281">
                <ele>25.612305</ele>
                <time>2005-09-24T02:52:08Z</time>
            </trkpt>
            <trkpt lon="101.414611" lat="14.169328">
                <ele>25.612305</ele>
                <time>2005-09-24T02:52:19Z</time>
            </trkpt>
            <trkpt lon="101.414591" lat="14.169360">
                <ele>25.131714</ele>
                <time>2005-09-24T02:52:28Z</time>
            </trkpt>
            <trkpt lon="101.414549" lat="14.169392">
                <ele>28.496216</ele>
                <time>2005-09-24T02:52:33Z</time>
            </trkpt>
            <trkpt lon="101.414540" lat="14.169395">
                <ele>24.170288</ele>
                <time>2005-09-24T02:52:34Z</time>
            </trkpt>
            <trkpt lon="101.414519" lat="14.169405">
                <ele>25.612305</ele>
                <time>2005-09-24T02:52:36Z</time>
            </trkpt>
            <trkpt lon="101.414474" lat="14.169472">
                <ele>26.573608</ele>
                <time>2005-09-24T02:52:46Z</time>
            </trkpt>
            <trkpt lon="101.414460" lat="14.169510">
                <ele>27.054321</ele>
                <time>2005-09-24T02:52:53Z</time>
            </trkpt>
            <trkpt lon="101.414411" lat="14.169566">
                <ele>26.573608</ele>
                <time>2005-09-24T02:53:03Z</time>
            </trkpt>
            <trkpt lon="101.414431" lat="14.169586">
                <ele>27.054321</ele>
                <time>2005-09-24T02:53:07Z</time>
            </trkpt>
            <trkpt lon="101.414557" lat="14.169728">
                <ele>26.092896</ele>
                <time>2005-09-24T02:53:18Z</time>
            </trkpt>
            <trkpt lon="101.414756" lat="14.169957">
                <ele>25.612305</ele>
                <time>2005-09-24T02:53:30Z</time>
            </trkpt>
            <trkpt lon="101.414778" lat="14.169997">
                <ele>25.612305</ele>
                <time>2005-09-24T02:53:36Z</time>
            </trkpt>
            <trkpt lon="101.414777" lat="14.170045">
                <ele>25.612305</ele>
                <time>2005-09-24T02:54:03Z</time>
            </trkpt>
            <trkpt lon="101.414751" lat="14.170078">
                <ele>26.092896</ele>
                <time>2005-09-24T02:54:09Z</time>
            </trkpt>
            <trkpt lon="101.414747" lat="14.170134">
                <ele>26.092896</ele>
                <time>2005-09-24T02:54:17Z</time>
            </trkpt>
            <trkpt lon="101.414720" lat="14.170151">
                <ele>26.573608</ele>
                <time>2005-09-24T02:54:29Z</time>
            </trkpt>
            <trkpt lon="101.414698" lat="14.170175">
                <ele>27.054321</ele>
                <time>2005-09-24T02:54:34Z</time>
            </trkpt>
            <trkpt lon="101.414607" lat="14.170205">
                <ele>26.573608</ele>
                <time>2005-09-24T02:54:44Z</time>
            </trkpt>
            <trkpt lon="101.414538" lat="14.170226">
                <ele>25.131714</ele>
                <time>2005-09-24T02:54:54Z</time>
            </trkpt>
            <trkpt lon="101.414523" lat="14.170244">
                <ele>24.651001</ele>
                <time>2005-09-24T02:55:10Z</time>
            </trkpt>
            <trkpt lon="101.414518" lat="14.170261">
                <ele>23.689575</ele>
                <time>2005-09-24T02:55:34Z</time>
            </trkpt>
            <trkpt lon="101.414524" lat="14.170322">
                <ele>22.247559</ele>
                <time>2005-09-24T02:55:50Z</time>
            </trkpt>
            <trkpt lon="101.414525" lat="14.170326">
                <ele>24.170288</ele>
                <time>2005-09-24T02:56:04Z</time>
            </trkpt>
            <trkpt lon="101.414474" lat="14.170323">
                <ele>24.170288</ele>
                <time>2005-09-24T02:56:26Z</time>
            </trkpt>
            <trkpt lon="101.414387" lat="14.170377">
                <ele>24.170288</ele>
                <time>2005-09-24T02:56:37Z</time>
            </trkpt>
            <trkpt lon="101.414303" lat="14.170410">
                <ele>25.131714</ele>
                <time>2005-09-24T02:56:50Z</time>
            </trkpt>
            <trkpt lon="101.414257" lat="14.170435">
                <ele>25.131714</ele>
                <time>2005-09-24T02:57:01Z</time>
            </trkpt>
            <trkpt lon="101.414232" lat="14.170487">
                <ele>25.612305</ele>
                <time>2005-09-24T02:57:13Z</time>
            </trkpt>
            <trkpt lon="101.414203" lat="14.170523">
                <ele>26.092896</ele>
                <time>2005-09-24T02:57:21Z</time>
            </trkpt>
            <trkpt lon="101.414194" lat="14.170548">
                <ele>25.612305</ele>
                <time>2005-09-24T02:57:27Z</time>
            </trkpt>
            <trkpt lon="101.414131" lat="14.170593">
                <ele>25.612305</ele>
                <time>2005-09-24T02:57:36Z</time>
            </trkpt>
            <trkpt lon="101.414094" lat="14.170616">
                <ele>26.573608</ele>
                <time>2005-09-24T02:57:44Z</time>
            </trkpt>
            <trkpt lon="101.414021" lat="14.170656">
                <ele>26.092896</ele>
                <time>2005-09-24T02:57:49Z</time>
            </trkpt>
            <trkpt lon="101.413838" lat="14.170759">
                <ele>26.573608</ele>
                <time>2005-09-24T02:57:59Z</time>
            </trkpt>
            <trkpt lon="101.413627" lat="14.170872">
                <ele>26.573608</ele>
                <time>2005-09-24T02:58:08Z</time>
            </trkpt>
            <trkpt lon="101.413433" lat="14.170948">
                <ele>25.131714</ele>
                <time>2005-09-24T02:58:17Z</time>
            </trkpt>
            <trkpt lon="101.413310" lat="14.171007">
                <ele>24.170288</ele>
                <time>2005-09-24T02:58:21Z</time>
            </trkpt>
            <trkpt lon="101.413078" lat="14.171170">
                <ele>24.651001</ele>
                <time>2005-09-24T02:58:30Z</time>
            </trkpt>
            <trkpt lon="101.412822" lat="14.171268">
                <ele>26.092896</ele>
                <time>2005-09-24T02:58:42Z</time>
            </trkpt>
            <trkpt lon="101.412557" lat="14.171315">
                <ele>26.573608</ele>
                <time>2005-09-24T02:58:53Z</time>
            </trkpt>
            <trkpt lon="101.412326" lat="14.171357">
                <ele>27.054321</ele>
                <time>2005-09-24T02:59:02Z</time>
            </trkpt>
            <trkpt lon="101.412113" lat="14.171405">
                <ele>27.054321</ele>
                <time>2005-09-24T02:59:13Z</time>
            </trkpt>
            <trkpt lon="101.411968" lat="14.171522">
                <ele>27.534912</ele>
                <time>2005-09-24T02:59:23Z</time>
            </trkpt>
            <trkpt lon="101.411938" lat="14.171751">
                <ele>27.054321</ele>
                <time>2005-09-24T02:59:35Z</time>
            </trkpt>
            <trkpt lon="101.411855" lat="14.171992">
                <ele>25.131714</ele>
                <time>2005-09-24T02:59:45Z</time>
            </trkpt>
            <trkpt lon="101.411701" lat="14.172124">
                <ele>25.131714</ele>
                <time>2005-09-24T02:59:53Z</time>
            </trkpt>
            <trkpt lon="101.411620" lat="14.172309">
                <ele>24.651001</ele>
                <time>2005-09-24T03:00:00Z</time>
            </trkpt>
            <trkpt lon="101.411621" lat="14.172516">
                <ele>26.092896</ele>
                <time>2005-09-24T03:00:09Z</time>
            </trkpt>
            <trkpt lon="101.411596" lat="14.172541">
                <ele>26.092896</ele>
                <time>2005-09-24T03:00:13Z</time>
            </trkpt>
            <trkpt lon="101.411502" lat="14.172570">
                <ele>26.573608</ele>
                <time>2005-09-24T03:00:19Z</time>
            </trkpt>
            <trkpt lon="101.411258" lat="14.172637">
                <ele>27.054321</ele>
                <time>2005-09-24T03:00:30Z</time>
            </trkpt>
            <trkpt lon="101.411029" lat="14.172702">
                <ele>27.534912</ele>
                <time>2005-09-24T03:00:40Z</time>
            </trkpt>
            <trkpt lon="101.410835" lat="14.172748">
                <ele>27.534912</ele>
                <time>2005-09-24T03:00:49Z</time>
            </trkpt>
            <trkpt lon="101.410661" lat="14.172819">
                <ele>28.015503</ele>
                <time>2005-09-24T03:00:57Z</time>
            </trkpt>
            <trkpt lon="101.410395" lat="14.172896">
                <ele>27.534912</ele>
                <time>2005-09-24T03:01:09Z</time>
            </trkpt>
            <trkpt lon="101.410253" lat="14.172956">
                <ele>27.054321</ele>
                <time>2005-09-24T03:01:18Z</time>
            </trkpt>
            <trkpt lon="101.410240" lat="14.172959">
                <ele>26.573608</ele>
                <time>2005-09-24T03:01:23Z</time>
            </trkpt>
            <trkpt lon="101.410233" lat="14.172966">
                <ele>27.534912</ele>
                <time>2005-09-24T03:01:24Z</time>
            </trkpt>
            <trkpt lon="101.410158" lat="14.173030">
                <ele>27.534912</ele>
                <time>2005-09-24T03:01:36Z</time>
            </trkpt>
            <trkpt lon="101.410095" lat="14.173085">
                <ele>26.573608</ele>
                <time>2005-09-24T03:01:48Z</time>
            </trkpt>
            <trkpt lon="101.410056" lat="14.173095">
                <ele>26.092896</ele>
                <time>2005-09-24T03:01:54Z</time>
            </trkpt>
            <trkpt lon="101.409971" lat="14.173142">
                <ele>26.092896</ele>
                <time>2005-09-24T03:02:04Z</time>
            </trkpt>
            <trkpt lon="101.409924" lat="14.173160">
                <ele>25.131714</ele>
                <time>2005-09-24T03:02:12Z</time>
            </trkpt>
            <trkpt lon="101.409892" lat="14.173172">
                <ele>25.131714</ele>
                <time>2005-09-24T03:02:20Z</time>
            </trkpt>
            <trkpt lon="101.409842" lat="14.173205">
                <ele>23.689575</ele>
                <time>2005-09-24T03:02:31Z</time>
            </trkpt>
            <trkpt lon="101.409833" lat="14.173228">
                <ele>20.805664</ele>
                <time>2005-09-24T03:02:40Z</time>
            </trkpt>
            <trkpt lon="101.409833" lat="14.173229">
                <ele>28.015503</ele>
                <time>2005-09-24T03:02:41Z</time>
            </trkpt>
            <trkpt lon="101.409833" lat="14.173230">
                <ele>24.170288</ele>
                <time>2005-09-24T03:02:42Z</time>
            </trkpt>
            <trkpt lon="101.409805" lat="14.173268">
                <ele>24.170288</ele>
                <time>2005-09-24T03:02:49Z</time>
            </trkpt>
            <trkpt lon="101.409773" lat="14.173279">
                <ele>24.170288</ele>
                <time>2005-09-24T03:02:55Z</time>
            </trkpt>
            <trkpt lon="101.409747" lat="14.173288">
                <ele>24.170288</ele>
                <time>2005-09-24T03:03:03Z</time>
            </trkpt>
            <trkpt lon="101.409742" lat="14.173340">
                <ele>26.092896</ele>
                <time>2005-09-24T03:03:23Z</time>
            </trkpt>
            <trkpt lon="101.409753" lat="14.173400">
                <ele>25.612305</ele>
                <time>2005-09-24T03:03:33Z</time>
            </trkpt>
            <trkpt lon="101.409745" lat="14.173417">
                <ele>26.092896</ele>
                <time>2005-09-24T03:03:45Z</time>
            </trkpt>
            <trkpt lon="101.409723" lat="14.173450">
                <ele>25.612305</ele>
                <time>2005-09-24T03:03:56Z</time>
            </trkpt>
            <trkpt lon="101.409756" lat="14.173495">
                <ele>26.092896</ele>
                <time>2005-09-24T03:04:04Z</time>
            </trkpt>
            <trkpt lon="101.409808" lat="14.173566">
                <ele>25.612305</ele>
                <time>2005-09-24T03:04:16Z</time>
            </trkpt>
            <trkpt lon="101.409838" lat="14.173591">
                <ele>26.573608</ele>
                <time>2005-09-24T03:04:20Z</time>
            </trkpt>
            <trkpt lon="101.410000" lat="14.173757">
                <ele>27.054321</ele>
                <time>2005-09-24T03:04:32Z</time>
            </trkpt>
            <trkpt lon="101.410202" lat="14.173965">
                <ele>26.092896</ele>
                <time>2005-09-24T03:04:44Z</time>
            </trkpt>
            <trkpt lon="101.410323" lat="14.174154">
                <ele>25.131714</ele>
                <time>2005-09-24T03:04:53Z</time>
            </trkpt>
            <trkpt lon="101.410494" lat="14.174318">
                <ele>25.131714</ele>
                <time>2005-09-24T03:05:04Z</time>
            </trkpt>
            <trkpt lon="101.410697" lat="14.174580">
                <ele>23.208984</ele>
                <time>2005-09-24T03:05:17Z</time>
            </trkpt>
            <trkpt lon="101.410848" lat="14.174746">
                <ele>24.170288</ele>
                <time>2005-09-24T03:05:24Z</time>
            </trkpt>
            <trkpt lon="101.410934" lat="14.174994">
                <ele>25.131714</ele>
                <time>2005-09-24T03:05:35Z</time>
            </trkpt>
            <trkpt lon="101.410945" lat="14.175168">
                <ele>25.131714</ele>
                <time>2005-09-24T03:05:44Z</time>
            </trkpt>
            <trkpt lon="101.410975" lat="14.175384">
                <ele>24.651001</ele>
                <time>2005-09-24T03:05:54Z</time>
            </trkpt>
            <trkpt lon="101.411064" lat="14.175622">
                <ele>25.612305</ele>
                <time>2005-09-24T03:06:02Z</time>
            </trkpt>
            <trkpt lon="101.411289" lat="14.175879">
                <ele>26.092896</ele>
                <time>2005-09-24T03:06:12Z</time>
            </trkpt>
            <trkpt lon="101.411397" lat="14.175960">
                <ele>26.573608</ele>
                <time>2005-09-24T03:06:19Z</time>
            </trkpt>
            <trkpt lon="101.411405" lat="14.175980">
                <ele>26.573608</ele>
                <time>2005-09-24T03:06:27Z</time>
            </trkpt>
            <trkpt lon="101.411390" lat="14.175969">
                <ele>26.092896</ele>
                <time>2005-09-24T03:09:13Z</time>
            </trkpt>
            <trkpt lon="101.411220" lat="14.175787">
                <ele>25.131714</ele>
                <time>2005-09-24T03:09:25Z</time>
            </trkpt>
            <trkpt lon="101.410983" lat="14.175484">
                <ele>24.651001</ele>
                <time>2005-09-24T03:09:37Z</time>
            </trkpt>
            <trkpt lon="101.410977" lat="14.175453">
                <ele>24.170288</ele>
                <time>2005-09-24T03:09:41Z</time>
            </trkpt>
            <trkpt lon="101.410975" lat="14.175438">
                <ele>24.170288</ele>
                <time>2005-09-24T03:09:57Z</time>
            </trkpt>
            <trkpt lon="101.410950" lat="14.175426">
                <ele>24.170288</ele>
                <time>2005-09-24T03:10:02Z</time>
            </trkpt>
            <trkpt lon="101.410757" lat="14.175446">
                <ele>22.728271</ele>
                <time>2005-09-24T03:10:10Z</time>
            </trkpt>
            <trkpt lon="101.410458" lat="14.175506">
                <ele>23.208984</ele>
                <time>2005-09-24T03:10:19Z</time>
            </trkpt>
            <trkpt lon="101.410194" lat="14.175597">
                <ele>23.208984</ele>
                <time>2005-09-24T03:10:28Z</time>
            </trkpt>
            <trkpt lon="101.409862" lat="14.175755">
                <ele>24.651001</ele>
                <time>2005-09-24T03:10:39Z</time>
            </trkpt>
            <trkpt lon="101.409642" lat="14.175835">
                <ele>24.651001</ele>
                <time>2005-09-24T03:10:46Z</time>
            </trkpt>
            <trkpt lon="101.409408" lat="14.175989">
                <ele>25.131714</ele>
                <time>2005-09-24T03:10:55Z</time>
            </trkpt>
            <trkpt lon="101.409233" lat="14.176134">
                <ele>25.612305</ele>
                <time>2005-09-24T03:11:02Z</time>
            </trkpt>
            <trkpt lon="101.409112" lat="14.176321">
                <ele>25.612305</ele>
                <time>2005-09-24T03:11:09Z</time>
            </trkpt>
            <trkpt lon="101.409028" lat="14.176538">
                <ele>26.573608</ele>
                <time>2005-09-24T03:11:17Z</time>
            </trkpt>
            <trkpt lon="101.408861" lat="14.176715">
                <ele>25.612305</ele>
                <time>2005-09-24T03:11:25Z</time>
            </trkpt>
            <trkpt lon="101.408705" lat="14.176924">
                <ele>25.612305</ele>
                <time>2005-09-24T03:11:32Z</time>
            </trkpt>
            <trkpt lon="101.408486" lat="14.177219">
                <ele>26.092896</ele>
                <time>2005-09-24T03:11:41Z</time>
            </trkpt>
            <trkpt lon="101.408240" lat="14.177544">
                <ele>27.054321</ele>
                <time>2005-09-24T03:11:52Z</time>
            </trkpt>
            <trkpt lon="101.408083" lat="14.177765">
                <ele>27.534912</ele>
                <time>2005-09-24T03:12:00Z</time>
            </trkpt>
            <trkpt lon="101.407896" lat="14.178037">
                <ele>26.573608</ele>
                <time>2005-09-24T03:12:10Z</time>
            </trkpt>
            <trkpt lon="101.407748" lat="14.178149">
                <ele>27.534912</ele>
                <time>2005-09-24T03:12:16Z</time>
            </trkpt>
            <trkpt lon="101.407577" lat="14.178235">
                <ele>28.496216</ele>
                <time>2005-09-24T03:12:24Z</time>
            </trkpt>
            <trkpt lon="101.407362" lat="14.178163">
                <ele>28.496216</ele>
                <time>2005-09-24T03:12:33Z</time>
            </trkpt>
            <trkpt lon="101.407331" lat="14.178153">
                <ele>29.457520</ele>
                <time>2005-09-24T03:12:34Z</time>
            </trkpt>
            <trkpt lon="101.407120" lat="14.178213">
                <ele>29.457520</ele>
                <time>2005-09-24T03:12:41Z</time>
            </trkpt>
            <trkpt lon="101.406916" lat="14.178374">
                <ele>28.496216</ele>
                <time>2005-09-24T03:12:51Z</time>
            </trkpt>
            <trkpt lon="101.406741" lat="14.178540">
                <ele>28.976929</ele>
                <time>2005-09-24T03:12:59Z</time>
            </trkpt>
            <trkpt lon="101.406535" lat="14.178680">
                <ele>28.976929</ele>
                <time>2005-09-24T03:13:06Z</time>
            </trkpt>
            <trkpt lon="101.406320" lat="14.178864">
                <ele>29.457520</ele>
                <time>2005-09-24T03:13:14Z</time>
            </trkpt>
            <trkpt lon="101.406196" lat="14.179079">
                <ele>29.457520</ele>
                <time>2005-09-24T03:13:21Z</time>
            </trkpt>
            <trkpt lon="101.406075" lat="14.179353">
                <ele>29.457520</ele>
                <time>2005-09-24T03:13:30Z</time>
            </trkpt>
            <trkpt lon="101.405936" lat="14.179582">
                <ele>30.418823</ele>
                <time>2005-09-24T03:13:38Z</time>
            </trkpt>
            <trkpt lon="101.405698" lat="14.179649">
                <ele>29.938110</ele>
                <time>2005-09-24T03:13:45Z</time>
            </trkpt>
            <trkpt lon="101.405469" lat="14.179701">
                <ele>30.418823</ele>
                <time>2005-09-24T03:13:52Z</time>
            </trkpt>
            <trkpt lon="101.405257" lat="14.179811">
                <ele>30.418823</ele>
                <time>2005-09-24T03:14:01Z</time>
            </trkpt>
            <trkpt lon="101.405128" lat="14.179876">
                <ele>30.418823</ele>
                <time>2005-09-24T03:14:08Z</time>
            </trkpt>
            <trkpt lon="101.405002" lat="14.179913">
                <ele>29.938110</ele>
                <time>2005-09-24T03:14:15Z</time>
            </trkpt>
            <trkpt lon="101.404833" lat="14.180043">
                <ele>29.938110</ele>
                <time>2005-09-24T03:14:24Z</time>
            </trkpt>
            <trkpt lon="101.404794" lat="14.180054">
                <ele>30.418823</ele>
                <time>2005-09-24T03:14:26Z</time>
            </trkpt>
            <trkpt lon="101.404780" lat="14.180079">
                <ele>31.380127</ele>
                <time>2005-09-24T03:14:29Z</time>
            </trkpt>
            <trkpt lon="101.404831" lat="14.180046">
                <ele>30.418823</ele>
                <time>2005-09-24T03:14:33Z</time>
            </trkpt>
            <trkpt lon="101.405102" lat="14.179869">
                <ele>30.418823</ele>
                <time>2005-09-24T03:14:44Z</time>
            </trkpt>
            <trkpt lon="101.405184" lat="14.179836">
                <ele>30.418823</ele>
                <time>2005-09-24T03:14:47Z</time>
            </trkpt>
            <trkpt lon="101.405283" lat="14.179912">
                <ele>29.938110</ele>
                <time>2005-09-24T03:14:51Z</time>
            </trkpt>
            <trkpt lon="101.405498" lat="14.180185">
                <ele>28.976929</ele>
                <time>2005-09-24T03:15:00Z</time>
            </trkpt>
            <trkpt lon="101.405824" lat="14.180564">
                <ele>28.976929</ele>
                <time>2005-09-24T03:15:12Z</time>
            </trkpt>
            <trkpt lon="101.405941" lat="14.180844">
                <ele>28.976929</ele>
                <time>2005-09-24T03:15:21Z</time>
            </trkpt>
            <trkpt lon="101.405860" lat="14.180974">
                <ele>28.976929</ele>
                <time>2005-09-24T03:15:26Z</time>
            </trkpt>
            <trkpt lon="101.405545" lat="14.181162">
                <ele>28.496216</ele>
                <time>2005-09-24T03:15:35Z</time>
            </trkpt>
            <trkpt lon="101.405145" lat="14.181330">
                <ele>28.976929</ele>
                <time>2005-09-24T03:15:45Z</time>
            </trkpt>
            <trkpt lon="101.404711" lat="14.181483">
                <ele>28.496216</ele>
                <time>2005-09-24T03:15:55Z</time>
            </trkpt>
            <trkpt lon="101.404322" lat="14.181617">
                <ele>28.015503</ele>
                <time>2005-09-24T03:16:04Z</time>
            </trkpt>
            <trkpt lon="101.404027" lat="14.181714">
                <ele>29.938110</ele>
                <time>2005-09-24T03:16:12Z</time>
            </trkpt>
            <trkpt lon="101.403755" lat="14.181741">
                <ele>30.418823</ele>
                <time>2005-09-24T03:16:20Z</time>
            </trkpt>
            <trkpt lon="101.403525" lat="14.181650">
                <ele>30.418823</ele>
                <time>2005-09-24T03:16:27Z</time>
            </trkpt>
            <trkpt lon="101.403268" lat="14.181624">
                <ele>30.899536</ele>
                <time>2005-09-24T03:16:36Z</time>
            </trkpt>
            <trkpt lon="101.403032" lat="14.181713">
                <ele>30.418823</ele>
                <time>2005-09-24T03:16:43Z</time>
            </trkpt>
            <trkpt lon="101.402777" lat="14.181786">
                <ele>29.938110</ele>
                <time>2005-09-24T03:16:50Z</time>
            </trkpt>
            <trkpt lon="101.402387" lat="14.181912">
                <ele>30.418823</ele>
                <time>2005-09-24T03:17:01Z</time>
            </trkpt>
            <trkpt lon="101.402076" lat="14.182013">
                <ele>30.899536</ele>
                <time>2005-09-24T03:17:09Z</time>
            </trkpt>
            <trkpt lon="101.401872" lat="14.182073">
                <ele>29.938110</ele>
                <time>2005-09-24T03:17:14Z</time>
            </trkpt>
            <trkpt lon="101.401389" lat="14.182245">
                <ele>29.938110</ele>
                <time>2005-09-24T03:17:26Z</time>
            </trkpt>
            <trkpt lon="101.401077" lat="14.182372">
                <ele>30.899536</ele>
                <time>2005-09-24T03:17:35Z</time>
            </trkpt>
            <trkpt lon="101.401028" lat="14.182402">
                <ele>31.860718</ele>
                <time>2005-09-24T03:17:40Z</time>
            </trkpt>
            <trkpt lon="101.401020" lat="14.182422">
                <ele>31.860718</ele>
                <time>2005-09-24T03:17:44Z</time>
            </trkpt>
            <trkpt lon="101.401048" lat="14.182581">
                <ele>30.899536</ele>
                <time>2005-09-24T03:17:52Z</time>
            </trkpt>
            <trkpt lon="101.401127" lat="14.182946">
                <ele>29.938110</ele>
                <time>2005-09-24T03:18:02Z</time>
            </trkpt>
            <trkpt lon="101.401163" lat="14.183244">
                <ele>30.899536</ele>
                <time>2005-09-24T03:18:10Z</time>
            </trkpt>
            <trkpt lon="101.401170" lat="14.183304">
                <ele>30.418823</ele>
                <time>2005-09-24T03:18:12Z</time>
            </trkpt>
            <trkpt lon="101.401053" lat="14.183396">
                <ele>31.380127</ele>
                <time>2005-09-24T03:18:17Z</time>
            </trkpt>
            <trkpt lon="101.400758" lat="14.183492">
                <ele>30.418823</ele>
                <time>2005-09-24T03:18:27Z</time>
            </trkpt>
            <trkpt lon="101.400716" lat="14.183538">
                <ele>30.418823</ele>
                <time>2005-09-24T03:18:29Z</time>
            </trkpt>
            <trkpt lon="101.400709" lat="14.183576">
                <ele>31.380127</ele>
                <time>2005-09-24T03:18:35Z</time>
            </trkpt>
            <trkpt lon="101.400714" lat="14.183694">
                <ele>30.418823</ele>
                <time>2005-09-24T03:19:08Z</time>
            </trkpt>
            <trkpt lon="101.400793" lat="14.183936">
                <ele>30.418823</ele>
                <time>2005-09-24T03:19:16Z</time>
            </trkpt>
            <trkpt lon="101.400927" lat="14.184243">
                <ele>30.418823</ele>
                <time>2005-09-24T03:19:26Z</time>
            </trkpt>
            <trkpt lon="101.401059" lat="14.184666">
                <ele>30.418823</ele>
                <time>2005-09-24T03:19:39Z</time>
            </trkpt>
            <trkpt lon="101.401104" lat="14.184835">
                <ele>30.418823</ele>
                <time>2005-09-24T03:19:48Z</time>
            </trkpt>
            <trkpt lon="101.401074" lat="14.184848">
                <ele>30.418823</ele>
                <time>2005-09-24T03:20:36Z</time>
            </trkpt>
            <trkpt lon="101.401022" lat="14.184826">
                <ele>30.899536</ele>
                <time>2005-09-24T03:20:54Z</time>
            </trkpt>
            <trkpt lon="101.400944" lat="14.184865">
                <ele>29.938110</ele>
                <time>2005-09-24T03:20:59Z</time>
            </trkpt>
            <trkpt lon="101.400731" lat="14.184917">
                <ele>29.938110</ele>
                <time>2005-09-24T03:21:08Z</time>
            </trkpt>
            <trkpt lon="101.400567" lat="14.184991">
                <ele>29.457520</ele>
                <time>2005-09-24T03:21:14Z</time>
            </trkpt>
            <trkpt lon="101.400448" lat="14.185133">
                <ele>28.976929</ele>
                <time>2005-09-24T03:21:21Z</time>
            </trkpt>
            <trkpt lon="101.400350" lat="14.185253">
                <ele>29.457520</ele>
                <time>2005-09-24T03:21:28Z</time>
            </trkpt>
            <trkpt lon="101.400212" lat="14.185359">
                <ele>29.938110</ele>
                <time>2005-09-24T03:21:36Z</time>
            </trkpt>
            <trkpt lon="101.400002" lat="14.185426">
                <ele>29.938110</ele>
                <time>2005-09-24T03:21:44Z</time>
            </trkpt>
            <trkpt lon="101.399830" lat="14.185510">
                <ele>29.457520</ele>
                <time>2005-09-24T03:21:50Z</time>
            </trkpt>
            <trkpt lon="101.399605" lat="14.185583">
                <ele>29.457520</ele>
                <time>2005-09-24T03:21:58Z</time>
            </trkpt>
            <trkpt lon="101.399491" lat="14.185580">
                <ele>29.457520</ele>
                <time>2005-09-24T03:22:02Z</time>
            </trkpt>
            <trkpt lon="101.399247" lat="14.185411">
                <ele>28.496216</ele>
                <time>2005-09-24T03:22:13Z</time>
            </trkpt>
            <trkpt lon="101.399229" lat="14.185396">
                <ele>28.496216</ele>
                <time>2005-09-24T03:22:14Z</time>
            </trkpt>
            <trkpt lon="101.399038" lat="14.185416">
                <ele>28.496216</ele>
                <time>2005-09-24T03:22:20Z</time>
            </trkpt>
            <trkpt lon="101.398796" lat="14.185479">
                <ele>28.976929</ele>
                <time>2005-09-24T03:22:28Z</time>
            </trkpt>
            <trkpt lon="101.398451" lat="14.185577">
                <ele>28.976929</ele>
                <time>2005-09-24T03:22:39Z</time>
            </trkpt>
            <trkpt lon="101.398160" lat="14.185710">
                <ele>28.976929</ele>
                <time>2005-09-24T03:22:49Z</time>
            </trkpt>
            <trkpt lon="101.397931" lat="14.185814">
                <ele>28.976929</ele>
                <time>2005-09-24T03:22:57Z</time>
            </trkpt>
            <trkpt lon="101.397716" lat="14.185940">
                <ele>29.457520</ele>
                <time>2005-09-24T03:23:06Z</time>
            </trkpt>
            <trkpt lon="101.397513" lat="14.186044">
                <ele>28.015503</ele>
                <time>2005-09-24T03:23:15Z</time>
            </trkpt>
            <trkpt lon="101.397298" lat="14.186195">
                <ele>28.015503</ele>
                <time>2005-09-24T03:23:22Z</time>
            </trkpt>
            <trkpt lon="101.397035" lat="14.186390">
                <ele>29.938110</ele>
                <time>2005-09-24T03:23:32Z</time>
            </trkpt>
            <trkpt lon="101.396807" lat="14.186545">
                <ele>29.938110</ele>
                <time>2005-09-24T03:23:41Z</time>
            </trkpt>
            <trkpt lon="101.396600" lat="14.186717">
                <ele>29.457520</ele>
                <time>2005-09-24T03:23:49Z</time>
            </trkpt>
            <trkpt lon="101.396325" lat="14.186966">
                <ele>29.457520</ele>
                <time>2005-09-24T03:24:00Z</time>
            </trkpt>
            <trkpt lon="101.396073" lat="14.187193">
                <ele>30.899536</ele>
                <time>2005-09-24T03:24:10Z</time>
            </trkpt>
            <trkpt lon="101.395876" lat="14.187379">
                <ele>29.457520</ele>
                <time>2005-09-24T03:24:18Z</time>
            </trkpt>
            <trkpt lon="101.395740" lat="14.187519">
                <ele>29.457520</ele>
                <time>2005-09-24T03:24:25Z</time>
            </trkpt>
            <trkpt lon="101.395660" lat="14.187594">
                <ele>29.938110</ele>
                <time>2005-09-24T03:24:32Z</time>
            </trkpt>
            <trkpt lon="101.395664" lat="14.187612">
                <ele>29.457520</ele>
                <time>2005-09-24T03:24:41Z</time>
            </trkpt>
            <trkpt lon="101.395683" lat="14.187586">
                <ele>29.457520</ele>
                <time>2005-09-24T03:25:35Z</time>
            </trkpt>
            <trkpt lon="101.395645" lat="14.187435">
                <ele>29.938110</ele>
                <time>2005-09-24T03:25:44Z</time>
            </trkpt>
            <trkpt lon="101.395668" lat="14.187214">
                <ele>30.418823</ele>
                <time>2005-09-24T03:25:52Z</time>
            </trkpt>
            <trkpt lon="101.395662" lat="14.186809">
                <ele>30.418823</ele>
                <time>2005-09-24T03:26:07Z</time>
            </trkpt>
            <trkpt lon="101.395616" lat="14.186715">
                <ele>28.015503</ele>
                <time>2005-09-24T03:26:13Z</time>
            </trkpt>
            <trkpt lon="101.395629" lat="14.186712">
                <ele>31.380127</ele>
                <time>2005-09-24T03:26:15Z</time>
            </trkpt>
            <trkpt lon="101.395667" lat="14.186674">
                <ele>31.860718</ele>
                <time>2005-09-24T03:26:20Z</time>
            </trkpt>
            <trkpt lon="101.395677" lat="14.186598">
                <ele>31.380127</ele>
                <time>2005-09-24T03:26:27Z</time>
            </trkpt>
            <trkpt lon="101.395586" lat="14.186449">
                <ele>31.860718</ele>
                <time>2005-09-24T03:26:39Z</time>
            </trkpt>
            <trkpt lon="101.395552" lat="14.186419">
                <ele>33.302856</ele>
                <time>2005-09-24T03:26:53Z</time>
            </trkpt>
            <trkpt lon="101.395502" lat="14.186373">
                <ele>32.822266</ele>
                <time>2005-09-24T03:27:23Z</time>
            </trkpt>
            <trkpt lon="101.395489" lat="14.186346">
                <ele>35.706055</ele>
                <time>2005-09-24T03:29:02Z</time>
            </trkpt>
            <trkpt lon="101.395465" lat="14.186374">
                <ele>36.186768</ele>
                <time>2005-09-24T03:29:37Z</time>
            </trkpt>
            <trkpt lon="101.395509" lat="14.186405">
                <ele>35.706055</ele>
                <time>2005-09-24T03:30:02Z</time>
            </trkpt>
            <trkpt lon="101.395544" lat="14.186459">
                <ele>36.186768</ele>
                <time>2005-09-24T03:30:13Z</time>
            </trkpt>
            <trkpt lon="101.395583" lat="14.186756">
                <ele>33.783447</ele>
                <time>2005-09-24T03:30:33Z</time>
            </trkpt>
            <trkpt lon="101.395688" lat="14.186857">
                <ele>33.783447</ele>
                <time>2005-09-24T03:30:36Z</time>
            </trkpt>
            <trkpt lon="101.395678" lat="14.186915">
                <ele>33.302856</ele>
                <time>2005-09-24T03:30:37Z</time>
            </trkpt>
            <trkpt lon="101.395669" lat="14.187305">
                <ele>33.783447</ele>
                <time>2005-09-24T03:30:47Z</time>
            </trkpt>
            <trkpt lon="101.395698" lat="14.187652">
                <ele>33.302856</ele>
                <time>2005-09-24T03:30:55Z</time>
            </trkpt>
            <trkpt lon="101.395702" lat="14.187720">
                <ele>33.302856</ele>
                <time>2005-09-24T03:30:59Z</time>
            </trkpt>
            <trkpt lon="101.395702" lat="14.187725">
                <ele>24.651001</ele>
                <time>2005-09-24T03:31:00Z</time>
            </trkpt>
            <trkpt lon="101.395711" lat="14.187756">
                <ele>28.496216</ele>
                <time>2005-09-24T03:31:01Z</time>
            </trkpt>
            <trkpt lon="101.395715" lat="14.187760">
                <ele>44.358032</ele>
                <time>2005-09-24T03:31:02Z</time>
            </trkpt>
            <trkpt lon="101.395717" lat="14.187770">
                <ele>34.264160</ele>
                <time>2005-09-24T03:31:03Z</time>
            </trkpt>
            <trkpt lon="101.395719" lat="14.187792">
                <ele>33.302856</ele>
                <time>2005-09-24T03:31:05Z</time>
            </trkpt>
            <trkpt lon="101.395728" lat="14.187910">
                <ele>32.341553</ele>
                <time>2005-09-24T03:31:10Z</time>
            </trkpt>
            <trkpt lon="101.395761" lat="14.188298">
                <ele>31.380127</ele>
                <time>2005-09-24T03:31:19Z</time>
            </trkpt>
            <trkpt lon="101.395770" lat="14.188344">
                <ele>30.899536</ele>
                <time>2005-09-24T03:31:20Z</time>
            </trkpt>
            <trkpt lon="101.395803" lat="14.188697">
                <ele>29.938110</ele>
                <time>2005-09-24T03:31:28Z</time>
            </trkpt>
            <trkpt lon="101.395752" lat="14.188902">
                <ele>29.938110</ele>
                <time>2005-09-24T03:31:33Z</time>
            </trkpt>
            <trkpt lon="101.395614" lat="14.189088">
                <ele>28.976929</ele>
                <time>2005-09-24T03:31:38Z</time>
            </trkpt>
            <trkpt lon="101.395583" lat="14.189121">
                <ele>29.457520</ele>
                <time>2005-09-24T03:31:39Z</time>
            </trkpt>
            <trkpt lon="101.395298" lat="14.189299">
                <ele>29.938110</ele>
                <time>2005-09-24T03:31:47Z</time>
            </trkpt>
            <trkpt lon="101.395176" lat="14.189477">
                <ele>29.938110</ele>
                <time>2005-09-24T03:31:53Z</time>
            </trkpt>
            <trkpt lon="101.395109" lat="14.189859">
                <ele>28.976929</ele>
                <time>2005-09-24T03:32:03Z</time>
            </trkpt>
            <trkpt lon="101.395053" lat="14.190066">
                <ele>28.496216</ele>
                <time>2005-09-24T03:32:08Z</time>
            </trkpt>
            <trkpt lon="101.394887" lat="14.190515">
                <ele>28.976929</ele>
                <time>2005-09-24T03:32:20Z</time>
            </trkpt>
            <trkpt lon="101.394769" lat="14.190718">
                <ele>29.457520</ele>
                <time>2005-09-24T03:32:29Z</time>
            </trkpt>
            <trkpt lon="101.394624" lat="14.190705">
                <ele>29.457520</ele>
                <time>2005-09-24T03:32:34Z</time>
            </trkpt>
            <trkpt lon="101.394178" lat="14.190801">
                <ele>29.457520</ele>
                <time>2005-09-24T03:32:46Z</time>
            </trkpt>
            <trkpt lon="101.393906" lat="14.190889">
                <ele>29.938110</ele>
                <time>2005-09-24T03:32:54Z</time>
            </trkpt>
            <trkpt lon="101.393826" lat="14.190910">
                <ele>29.457520</ele>
                <time>2005-09-24T03:32:56Z</time>
            </trkpt>
            <trkpt lon="101.393535" lat="14.191006">
                <ele>29.938110</ele>
                <time>2005-09-24T03:33:04Z</time>
            </trkpt>
            <trkpt lon="101.393391" lat="14.191042">
                <ele>29.938110</ele>
                <time>2005-09-24T03:33:08Z</time>
            </trkpt>
            <trkpt lon="101.393156" lat="14.191099">
                <ele>30.418823</ele>
                <time>2005-09-24T03:33:14Z</time>
            </trkpt>
            <trkpt lon="101.393079" lat="14.190978">
                <ele>29.938110</ele>
                <time>2005-09-24T03:33:19Z</time>
            </trkpt>
            <trkpt lon="101.393075" lat="14.190948">
                <ele>30.899536</ele>
                <time>2005-09-24T03:33:20Z</time>
            </trkpt>
            <trkpt lon="101.392998" lat="14.190723">
                <ele>30.418823</ele>
                <time>2005-09-24T03:33:28Z</time>
            </trkpt>
            <trkpt lon="101.392969" lat="14.190583">
                <ele>30.418823</ele>
                <time>2005-09-24T03:33:35Z</time>
            </trkpt>
            <trkpt lon="101.392862" lat="14.190401">
                <ele>30.418823</ele>
                <time>2005-09-24T03:33:43Z</time>
            </trkpt>
            <trkpt lon="101.392802" lat="14.190298">
                <ele>30.899536</ele>
                <time>2005-09-24T03:33:49Z</time>
            </trkpt>
            <trkpt lon="101.392718" lat="14.190122">
                <ele>30.418823</ele>
                <time>2005-09-24T03:33:58Z</time>
            </trkpt>
            <trkpt lon="101.392606" lat="14.189927">
                <ele>30.899536</ele>
                <time>2005-09-24T03:34:06Z</time>
            </trkpt>
            <trkpt lon="101.392544" lat="14.189853">
                <ele>30.899536</ele>
                <time>2005-09-24T03:34:11Z</time>
            </trkpt>
            <trkpt lon="101.392478" lat="14.189693">
                <ele>31.860718</ele>
                <time>2005-09-24T03:34:19Z</time>
            </trkpt>
            <trkpt lon="101.392390" lat="14.189582">
                <ele>31.860718</ele>
                <time>2005-09-24T03:34:26Z</time>
            </trkpt>
            <trkpt lon="101.392316" lat="14.189385">
                <ele>31.860718</ele>
                <time>2005-09-24T03:34:33Z</time>
            </trkpt>
            <trkpt lon="101.392359" lat="14.189317">
                <ele>31.860718</ele>
                <time>2005-09-24T03:34:37Z</time>
            </trkpt>
            <trkpt lon="101.392448" lat="14.189262">
                <ele>18.402344</ele>
                <time>2005-09-24T03:34:41Z</time>
            </trkpt>
            <trkpt lon="101.392480" lat="14.189248">
                <ele>46.280640</ele>
                <time>2005-09-24T03:34:42Z</time>
            </trkpt>
            <trkpt lon="101.392499" lat="14.189232">
                <ele>33.302856</ele>
                <time>2005-09-24T03:34:43Z</time>
            </trkpt>
            <trkpt lon="101.392534" lat="14.189195">
                <ele>31.860718</ele>
                <time>2005-09-24T03:34:45Z</time>
            </trkpt>
            <trkpt lon="101.392607" lat="14.189136">
                <ele>32.822266</ele>
                <time>2005-09-24T03:34:52Z</time>
            </trkpt>
            <trkpt lon="101.392619" lat="14.189113">
                <ele>33.302856</ele>
                <time>2005-09-24T03:34:59Z</time>
            </trkpt>
            <trkpt lon="101.392578" lat="14.189164">
                <ele>34.744873</ele>
                <time>2005-09-24T03:37:31Z</time>
            </trkpt>
            <trkpt lon="101.392579" lat="14.189135">
                <ele>35.706055</ele>
                <time>2005-09-24T03:37:50Z</time>
            </trkpt>
            <trkpt lon="101.392482" lat="14.189117">
                <ele>34.744873</ele>
                <time>2005-09-24T03:37:58Z</time>
            </trkpt>
            <trkpt lon="101.392309" lat="14.189119">
                <ele>34.744873</ele>
                <time>2005-09-24T03:38:07Z</time>
            </trkpt>
            <trkpt lon="101.392181" lat="14.189058">
                <ele>35.225464</ele>
                <time>2005-09-24T03:38:14Z</time>
            </trkpt>
            <trkpt lon="101.392077" lat="14.188919">
                <ele>36.186768</ele>
                <time>2005-09-24T03:38:22Z</time>
            </trkpt>
            <trkpt lon="101.391945" lat="14.188682">
                <ele>36.667480</ele>
                <time>2005-09-24T03:38:33Z</time>
            </trkpt>
            <trkpt lon="101.391848" lat="14.188547">
                <ele>36.667480</ele>
                <time>2005-09-24T03:38:42Z</time>
            </trkpt>
            <trkpt lon="101.391725" lat="14.188443">
                <ele>37.148071</ele>
                <time>2005-09-24T03:38:50Z</time>
            </trkpt>
            <trkpt lon="101.391578" lat="14.188343">
                <ele>37.148071</ele>
                <time>2005-09-24T03:38:59Z</time>
            </trkpt>
            <trkpt lon="101.391535" lat="14.188310">
                <ele>38.590088</ele>
                <time>2005-09-24T03:39:02Z</time>
            </trkpt>
            <trkpt lon="101.391598" lat="14.188331">
                <ele>37.148071</ele>
                <time>2005-09-24T03:39:08Z</time>
            </trkpt>
            <trkpt lon="101.391761" lat="14.188467">
                <ele>36.186768</ele>
                <time>2005-09-24T03:39:17Z</time>
            </trkpt>
            <trkpt lon="101.391830" lat="14.188513">
                <ele>36.186768</ele>
                <time>2005-09-24T03:39:20Z</time>
            </trkpt>
            <trkpt lon="101.391780" lat="14.188520">
                <ele>35.706055</ele>
                <time>2005-09-24T03:39:25Z</time>
            </trkpt>
            <trkpt lon="101.391732" lat="14.188475">
                <ele>36.186768</ele>
                <time>2005-09-24T03:39:28Z</time>
            </trkpt>
            <trkpt lon="101.391557" lat="14.188326">
                <ele>36.667480</ele>
                <time>2005-09-24T03:39:37Z</time>
            </trkpt>
            <trkpt lon="101.391432" lat="14.188207">
                <ele>37.148071</ele>
                <time>2005-09-24T03:39:44Z</time>
            </trkpt>
            <trkpt lon="101.391287" lat="14.188057">
                <ele>38.590088</ele>
                <time>2005-09-24T03:39:54Z</time>
            </trkpt>
            <trkpt lon="101.391155" lat="14.188015">
                <ele>37.628662</ele>
                <time>2005-09-24T03:40:00Z</time>
            </trkpt>
            <trkpt lon="101.391077" lat="14.187998">
                <ele>38.109375</ele>
                <time>2005-09-24T03:40:03Z</time>
            </trkpt>
            <trkpt lon="101.390717" lat="14.188213">
                <ele>37.148071</ele>
                <time>2005-09-24T03:40:14Z</time>
            </trkpt>
            <trkpt lon="101.390433" lat="14.188320">
                <ele>37.628662</ele>
                <time>2005-09-24T03:40:23Z</time>
            </trkpt>
            <trkpt lon="101.390328" lat="14.188351">
                <ele>37.628662</ele>
                <time>2005-09-24T03:40:27Z</time>
            </trkpt>
            <trkpt lon="101.390258" lat="14.188514">
                <ele>37.148071</ele>
                <time>2005-09-24T03:40:32Z</time>
            </trkpt>
            <trkpt lon="101.390294" lat="14.188733">
                <ele>36.186768</ele>
                <time>2005-09-24T03:40:37Z</time>
            </trkpt>
            <trkpt lon="101.390319" lat="14.189190">
                <ele>36.186768</ele>
                <time>2005-09-24T03:40:47Z</time>
            </trkpt>
            <trkpt lon="101.390357" lat="14.189657">
                <ele>33.783447</ele>
                <time>2005-09-24T03:40:57Z</time>
            </trkpt>
            <trkpt lon="101.390398" lat="14.190132">
                <ele>33.302856</ele>
                <time>2005-09-24T03:41:06Z</time>
            </trkpt>
            <trkpt lon="101.390408" lat="14.190316">
                <ele>32.822266</ele>
                <time>2005-09-24T03:41:09Z</time>
            </trkpt>
            <trkpt lon="101.390389" lat="14.190604">
                <ele>32.822266</ele>
                <time>2005-09-24T03:41:14Z</time>
            </trkpt>
            <trkpt lon="101.390405" lat="14.190721">
                <ele>32.822266</ele>
                <time>2005-09-24T03:41:16Z</time>
            </trkpt>
            <trkpt lon="101.390602" lat="14.191245">
                <ele>30.899536</ele>
                <time>2005-09-24T03:41:26Z</time>
            </trkpt>
            <trkpt lon="101.390618" lat="14.191294">
                <ele>31.380127</ele>
                <time>2005-09-24T03:41:27Z</time>
            </trkpt>
            <trkpt lon="101.390565" lat="14.191518">
                <ele>30.418823</ele>
                <time>2005-09-24T03:41:33Z</time>
            </trkpt>
            <trkpt lon="101.390414" lat="14.191554">
                <ele>30.418823</ele>
                <time>2005-09-24T03:41:36Z</time>
            </trkpt>
            <trkpt lon="101.389949" lat="14.191736">
                <ele>31.380127</ele>
                <time>2005-09-24T03:41:46Z</time>
            </trkpt>
            <trkpt lon="101.389905" lat="14.191756">
                <ele>30.899536</ele>
                <time>2005-09-24T03:41:47Z</time>
            </trkpt>
            <trkpt lon="101.389723" lat="14.191801">
                <ele>31.860718</ele>
                <time>2005-09-24T03:41:51Z</time>
            </trkpt>
            <trkpt lon="101.389648" lat="14.191934">
                <ele>31.380127</ele>
                <time>2005-09-24T03:41:55Z</time>
            </trkpt>
            <trkpt lon="101.389639" lat="14.192045">
                <ele>30.899536</ele>
                <time>2005-09-24T03:41:58Z</time>
            </trkpt>
            <trkpt lon="101.389451" lat="14.192181">
                <ele>29.457520</ele>
                <time>2005-09-24T03:42:03Z</time>
            </trkpt>
            <trkpt lon="101.389307" lat="14.192223">
                <ele>30.899536</ele>
                <time>2005-09-24T03:42:06Z</time>
            </trkpt>
            <trkpt lon="101.388821" lat="14.192180">
                <ele>29.457520</ele>
                <time>2005-09-24T03:42:15Z</time>
            </trkpt>
            <trkpt lon="101.388718" lat="14.192180">
                <ele>28.976929</ele>
                <time>2005-09-24T03:42:17Z</time>
            </trkpt>
            <trkpt lon="101.388529" lat="14.192209">
                <ele>30.899536</ele>
                <time>2005-09-24T03:42:21Z</time>
            </trkpt>
            <trkpt lon="101.388169" lat="14.192459">
                <ele>27.534912</ele>
                <time>2005-09-24T03:42:29Z</time>
            </trkpt>
            <trkpt lon="101.387872" lat="14.192806">
                <ele>27.054321</ele>
                <time>2005-09-24T03:42:36Z</time>
            </trkpt>
            <trkpt lon="101.387588" lat="14.192931">
                <ele>26.092896</ele>
                <time>2005-09-24T03:42:41Z</time>
            </trkpt>
            <trkpt lon="101.387472" lat="14.192926">
                <ele>28.496216</ele>
                <time>2005-09-24T03:42:43Z</time>
            </trkpt>
            <trkpt lon="101.386819" lat="14.192862">
                <ele>27.054321</ele>
                <time>2005-09-24T03:42:54Z</time>
            </trkpt>
            <trkpt lon="101.386643" lat="14.192863">
                <ele>26.573608</ele>
                <time>2005-09-24T03:42:57Z</time>
            </trkpt>
            <trkpt lon="101.386134" lat="14.192867">
                <ele>26.573608</ele>
                <time>2005-09-24T03:43:06Z</time>
            </trkpt>
            <trkpt lon="101.385886" lat="14.192763">
                <ele>27.534912</ele>
                <time>2005-09-24T03:43:11Z</time>
            </trkpt>
            <trkpt lon="101.385705" lat="14.192660">
                <ele>28.496216</ele>
                <time>2005-09-24T03:43:16Z</time>
            </trkpt>
            <trkpt lon="101.385329" lat="14.192555">
                <ele>28.976929</ele>
                <time>2005-09-24T03:43:25Z</time>
            </trkpt>
            <trkpt lon="101.384846" lat="14.192451">
                <ele>28.976929</ele>
                <time>2005-09-24T03:43:35Z</time>
            </trkpt>
            <trkpt lon="101.384647" lat="14.192415">
                <ele>29.457520</ele>
                <time>2005-09-24T03:43:39Z</time>
            </trkpt>
            <trkpt lon="101.384369" lat="14.192491">
                <ele>28.976929</ele>
                <time>2005-09-24T03:43:45Z</time>
            </trkpt>
            <trkpt lon="101.383954" lat="14.192721">
                <ele>28.496216</ele>
                <time>2005-09-24T03:43:57Z</time>
            </trkpt>
            <trkpt lon="101.383738" lat="14.192681">
                <ele>29.457520</ele>
                <time>2005-09-24T03:44:03Z</time>
            </trkpt>
            <trkpt lon="101.383471" lat="14.192430">
                <ele>28.976929</ele>
                <time>2005-09-24T03:44:11Z</time>
            </trkpt>
            <trkpt lon="101.383392" lat="14.192368">
                <ele>28.976929</ele>
                <time>2005-09-24T03:44:13Z</time>
            </trkpt>
            <trkpt lon="101.383165" lat="14.192255">
                <ele>29.457520</ele>
                <time>2005-09-24T03:44:18Z</time>
            </trkpt>
            <trkpt lon="101.382854" lat="14.192329">
                <ele>28.976929</ele>
                <time>2005-09-24T03:44:25Z</time>
            </trkpt>
            <trkpt lon="101.382446" lat="14.192544">
                <ele>28.976929</ele>
                <time>2005-09-24T03:44:34Z</time>
            </trkpt>
            <trkpt lon="101.382033" lat="14.192741">
                <ele>27.054321</ele>
                <time>2005-09-24T03:44:42Z</time>
            </trkpt>
            <trkpt lon="101.381717" lat="14.192899">
                <ele>28.496216</ele>
                <time>2005-09-24T03:44:50Z</time>
            </trkpt>
            <trkpt lon="101.381683" lat="14.192923">
                <ele>28.976929</ele>
                <time>2005-09-24T03:44:55Z</time>
            </trkpt>
            <trkpt lon="101.381684" lat="14.192928">
                <ele>28.496216</ele>
                <time>2005-09-24T03:45:15Z</time>
            </trkpt>
            <trkpt lon="101.381642" lat="14.192963">
                <ele>28.496216</ele>
                <time>2005-09-24T03:46:49Z</time>
            </trkpt>
            <trkpt lon="101.381643" lat="14.193011">
                <ele>28.496216</ele>
                <time>2005-09-24T03:46:53Z</time>
            </trkpt>
            <trkpt lon="101.381637" lat="14.193047">
                <ele>28.015503</ele>
                <time>2005-09-24T03:46:55Z</time>
            </trkpt>
            <trkpt lon="101.381683" lat="14.193131">
                <ele>28.015503</ele>
                <time>2005-09-24T03:46:59Z</time>
            </trkpt>
            <trkpt lon="101.381952" lat="14.193395">
                <ele>28.015503</ele>
                <time>2005-09-24T03:47:10Z</time>
            </trkpt>
            <trkpt lon="101.382295" lat="14.193735">
                <ele>26.573608</ele>
                <time>2005-09-24T03:47:21Z</time>
            </trkpt>
            <trkpt lon="101.382824" lat="14.194265">
                <ele>27.054321</ele>
                <time>2005-09-24T03:47:36Z</time>
            </trkpt>
            <trkpt lon="101.383274" lat="14.194711">
                <ele>28.015503</ele>
                <time>2005-09-24T03:47:49Z</time>
            </trkpt>
            <trkpt lon="101.383659" lat="14.195108">
                <ele>26.573608</ele>
                <time>2005-09-24T03:48:00Z</time>
            </trkpt>
            <trkpt lon="101.384125" lat="14.195561">
                <ele>26.092896</ele>
                <time>2005-09-24T03:48:12Z</time>
            </trkpt>
            <trkpt lon="101.384357" lat="14.195798">
                <ele>25.612305</ele>
                <time>2005-09-24T03:48:18Z</time>
            </trkpt>
            <trkpt lon="101.384749" lat="14.196187">
                <ele>26.092896</ele>
                <time>2005-09-24T03:48:28Z</time>
            </trkpt>
            <trkpt lon="101.385181" lat="14.196627">
                <ele>25.612305</ele>
                <time>2005-09-24T03:48:39Z</time>
            </trkpt>
            <trkpt lon="101.385725" lat="14.197170">
                <ele>25.131714</ele>
                <time>2005-09-24T03:48:53Z</time>
            </trkpt>
            <trkpt lon="101.385837" lat="14.197286">
                <ele>25.612305</ele>
                <time>2005-09-24T03:48:56Z</time>
            </trkpt>
            <trkpt lon="101.385987" lat="14.197419">
                <ele>26.092896</ele>
                <time>2005-09-24T03:49:00Z</time>
            </trkpt>
            <trkpt lon="101.386250" lat="14.197700">
                <ele>26.092896</ele>
                <time>2005-09-24T03:49:08Z</time>
            </trkpt>
            <trkpt lon="101.386633" lat="14.198087">
                <ele>25.612305</ele>
                <time>2005-09-24T03:49:18Z</time>
            </trkpt>
            <trkpt lon="101.386987" lat="14.198438">
                <ele>25.612305</ele>
                <time>2005-09-24T03:49:27Z</time>
            </trkpt>
            <trkpt lon="101.387480" lat="14.198929">
                <ele>27.054321</ele>
                <time>2005-09-24T03:49:40Z</time>
            </trkpt>
            <trkpt lon="101.387844" lat="14.199274">
                <ele>26.573608</ele>
                <time>2005-09-24T03:49:50Z</time>
            </trkpt>
            <trkpt lon="101.388339" lat="14.199775">
                <ele>27.534912</ele>
                <time>2005-09-24T03:50:04Z</time>
            </trkpt>
            <trkpt lon="101.388777" lat="14.200225">
                <ele>26.573608</ele>
                <time>2005-09-24T03:50:15Z</time>
            </trkpt>
            <trkpt lon="101.389439" lat="14.200897">
                <ele>27.054321</ele>
                <time>2005-09-24T03:50:31Z</time>
            </trkpt>
            <trkpt lon="101.389958" lat="14.201416">
                <ele>27.534912</ele>
                <time>2005-09-24T03:50:43Z</time>
            </trkpt>
            <trkpt lon="101.390370" lat="14.201829">
                <ele>26.573608</ele>
                <time>2005-09-24T03:50:53Z</time>
            </trkpt>
            <trkpt lon="101.390848" lat="14.202318">
                <ele>27.534912</ele>
                <time>2005-09-24T03:51:04Z</time>
            </trkpt>
            <trkpt lon="101.391534" lat="14.203006">
                <ele>26.092896</ele>
                <time>2005-09-24T03:51:19Z</time>
            </trkpt>
            <trkpt lon="101.392036" lat="14.203511">
                <ele>25.131714</ele>
                <time>2005-09-24T03:51:30Z</time>
            </trkpt>
            <trkpt lon="101.392554" lat="14.204039">
                <ele>26.573608</ele>
                <time>2005-09-24T03:51:42Z</time>
            </trkpt>
            <trkpt lon="101.393258" lat="14.204751">
                <ele>27.534912</ele>
                <time>2005-09-24T03:51:59Z</time>
            </trkpt>
            <trkpt lon="101.393769" lat="14.205262">
                <ele>28.015503</ele>
                <time>2005-09-24T03:52:11Z</time>
            </trkpt>
            <trkpt lon="101.394174" lat="14.205680">
                <ele>28.976929</ele>
                <time>2005-09-24T03:52:21Z</time>
            </trkpt>
            <trkpt lon="101.394540" lat="14.206057">
                <ele>28.496216</ele>
                <time>2005-09-24T03:52:31Z</time>
            </trkpt>
            <trkpt lon="101.394711" lat="14.206216">
                <ele>29.457520</ele>
                <time>2005-09-24T03:52:37Z</time>
            </trkpt>
            <trkpt lon="101.395071" lat="14.206575">
                <ele>29.457520</ele>
                <time>2005-09-24T03:52:48Z</time>
            </trkpt>
            <trkpt lon="101.395426" lat="14.206939">
                <ele>30.418823</ele>
                <time>2005-09-24T03:52:58Z</time>
            </trkpt>
            <trkpt lon="101.395768" lat="14.207281">
                <ele>32.341553</ele>
                <time>2005-09-24T03:53:09Z</time>
            </trkpt>
            <trkpt lon="101.396044" lat="14.207560">
                <ele>33.302856</ele>
                <time>2005-09-24T03:53:20Z</time>
            </trkpt>
            <trkpt lon="101.396371" lat="14.207875">
                <ele>35.706055</ele>
                <time>2005-09-24T03:53:33Z</time>
            </trkpt>
            <trkpt lon="101.396734" lat="14.208244">
                <ele>36.667480</ele>
                <time>2005-09-24T03:53:46Z</time>
            </trkpt>
            <trkpt lon="101.397005" lat="14.208516">
                <ele>37.628662</ele>
                <time>2005-09-24T03:53:56Z</time>
            </trkpt>
            <trkpt lon="101.397343" lat="14.208854">
                <ele>37.148071</ele>
                <time>2005-09-24T03:54:07Z</time>
            </trkpt>
            <trkpt lon="101.397728" lat="14.209241">
                <ele>36.186768</ele>
                <time>2005-09-24T03:54:18Z</time>
            </trkpt>
            <trkpt lon="101.398204" lat="14.209718">
                <ele>33.302856</ele>
                <time>2005-09-24T03:54:30Z</time>
            </trkpt>
            <trkpt lon="101.398646" lat="14.210159">
                <ele>32.822266</ele>
                <time>2005-09-24T03:54:40Z</time>
            </trkpt>
            <trkpt lon="101.399153" lat="14.210669">
                <ele>34.264160</ele>
                <time>2005-09-24T03:54:53Z</time>
            </trkpt>
            <trkpt lon="101.399560" lat="14.211090">
                <ele>33.783447</ele>
                <time>2005-09-24T03:55:07Z</time>
            </trkpt>
            <trkpt lon="101.399967" lat="14.211475">
                <ele>35.225464</ele>
                <time>2005-09-24T03:55:19Z</time>
            </trkpt>
            <trkpt lon="101.400543" lat="14.212047">
                <ele>35.706055</ele>
                <time>2005-09-24T03:55:35Z</time>
            </trkpt>
            <trkpt lon="101.400921" lat="14.212431">
                <ele>33.302856</ele>
                <time>2005-09-24T03:55:44Z</time>
            </trkpt>
            <trkpt lon="101.401261" lat="14.212776">
                <ele>31.380127</ele>
                <time>2005-09-24T03:55:51Z</time>
            </trkpt>
            <trkpt lon="101.401743" lat="14.213264">
                <ele>31.380127</ele>
                <time>2005-09-24T03:56:01Z</time>
            </trkpt>
            <trkpt lon="101.402302" lat="14.213829">
                <ele>33.783447</ele>
                <time>2005-09-24T03:56:14Z</time>
            </trkpt>
            <trkpt lon="101.402835" lat="14.214360">
                <ele>32.822266</ele>
                <time>2005-09-24T03:56:27Z</time>
            </trkpt>
            <trkpt lon="101.403301" lat="14.214811">
                <ele>34.264160</ele>
                <time>2005-09-24T03:56:39Z</time>
            </trkpt>
            <trkpt lon="101.403788" lat="14.215315">
                <ele>36.667480</ele>
                <time>2005-09-24T03:56:53Z</time>
            </trkpt>
            <trkpt lon="101.404250" lat="14.215788">
                <ele>38.109375</ele>
                <time>2005-09-24T03:57:08Z</time>
            </trkpt>
            <trkpt lon="101.404650" lat="14.216243">
                <ele>38.109375</ele>
                <time>2005-09-24T03:57:22Z</time>
            </trkpt>
            <trkpt lon="101.404985" lat="14.216741">
                <ele>38.109375</ele>
                <time>2005-09-24T03:57:34Z</time>
            </trkpt>
            <trkpt lon="101.405311" lat="14.217339">
                <ele>37.628662</ele>
                <time>2005-09-24T03:57:47Z</time>
            </trkpt>
            <trkpt lon="101.405395" lat="14.217481">
                <ele>38.109375</ele>
                <time>2005-09-24T03:57:50Z</time>
            </trkpt>
            <trkpt lon="101.405549" lat="14.218012">
                <ele>39.551270</ele>
                <time>2005-09-24T03:58:02Z</time>
            </trkpt>
            <trkpt lon="101.405632" lat="14.218235">
                <ele>40.993408</ele>
                <time>2005-09-24T03:58:10Z</time>
            </trkpt>
            <trkpt lon="101.405722" lat="14.218348">
                <ele>40.512817</ele>
                <time>2005-09-24T03:58:16Z</time>
            </trkpt>
            <trkpt lon="101.405741" lat="14.218360">
                <ele>41.473999</ele>
                <time>2005-09-24T03:58:17Z</time>
            </trkpt>
            <trkpt lon="101.405893" lat="14.218300">
                <ele>41.473999</ele>
                <time>2005-09-24T03:58:25Z</time>
            </trkpt>
            <trkpt lon="101.405934" lat="14.218161">
                <ele>41.473999</ele>
                <time>2005-09-24T03:58:31Z</time>
            </trkpt>
            <trkpt lon="101.405932" lat="14.217894">
                <ele>40.993408</ele>
                <time>2005-09-24T03:58:39Z</time>
            </trkpt>
            <trkpt lon="101.406044" lat="14.217660">
                <ele>40.512817</ele>
                <time>2005-09-24T03:58:46Z</time>
            </trkpt>
            <trkpt lon="101.406091" lat="14.217605">
                <ele>40.993408</ele>
                <time>2005-09-24T03:58:48Z</time>
            </trkpt>
            <trkpt lon="101.406344" lat="14.217513">
                <ele>40.512817</ele>
                <time>2005-09-24T03:58:55Z</time>
            </trkpt>
            <trkpt lon="101.406813" lat="14.217349">
                <ele>40.032104</ele>
                <time>2005-09-24T03:59:07Z</time>
            </trkpt>
            <trkpt lon="101.407147" lat="14.217267">
                <ele>40.032104</ele>
                <time>2005-09-24T03:59:15Z</time>
            </trkpt>
            <trkpt lon="101.407300" lat="14.217156">
                <ele>40.032104</ele>
                <time>2005-09-24T03:59:20Z</time>
            </trkpt>
            <trkpt lon="101.407289" lat="14.217005">
                <ele>40.032104</ele>
                <time>2005-09-24T03:59:24Z</time>
            </trkpt>
            <trkpt lon="101.407241" lat="14.216944">
                <ele>40.032104</ele>
                <time>2005-09-24T03:59:26Z</time>
            </trkpt>
            <trkpt lon="101.407015" lat="14.216799">
                <ele>40.032104</ele>
                <time>2005-09-24T03:59:32Z</time>
            </trkpt>
            <trkpt lon="101.406788" lat="14.216745">
                <ele>40.032104</ele>
                <time>2005-09-24T03:59:37Z</time>
            </trkpt>
            <trkpt lon="101.406544" lat="14.216823">
                <ele>39.551270</ele>
                <time>2005-09-24T03:59:44Z</time>
            </trkpt>
            <trkpt lon="101.406521" lat="14.216841">
                <ele>39.070679</ele>
                <time>2005-09-24T03:59:45Z</time>
            </trkpt>
            <trkpt lon="101.406378" lat="14.216978">
                <ele>40.512817</ele>
                <time>2005-09-24T03:59:54Z</time>
            </trkpt>
            <trkpt lon="101.406361" lat="14.217007">
                <ele>40.512817</ele>
                <time>2005-09-24T04:00:05Z</time>
            </trkpt>
            <trkpt lon="101.406379" lat="14.216991">
                <ele>39.551270</ele>
                <time>2005-09-24T04:00:22Z</time>
            </trkpt>
            <trkpt lon="101.406438" lat="14.216945">
                <ele>40.993408</ele>
                <time>2005-09-24T04:02:27Z</time>
            </trkpt>
            <trkpt lon="101.406637" lat="14.216863">
                <ele>40.993408</ele>
                <time>2005-09-24T04:02:39Z</time>
            </trkpt>
            <trkpt lon="101.406688" lat="14.216844">
                <ele>40.993408</ele>
                <time>2005-09-24T04:02:44Z</time>
            </trkpt>
            <trkpt lon="101.406788" lat="14.216860">
                <ele>40.993408</ele>
                <time>2005-09-24T04:02:50Z</time>
            </trkpt>
            <trkpt lon="101.407107" lat="14.216993">
                <ele>44.838623</ele>
                <time>2005-09-24T04:03:20Z</time>
            </trkpt>
        </trkseg>
    </trk>
</gpx>